<?xml version="1.0" encoding="UTF-8"?>
<gpx version="1.1" creator="GPSBabel - http://www.gpsbabel.org" xmlns="http://www.topografix.com/GPX/1/1" xmlns:tpx="http://www.garmin.com/xmlschemas/TrackPointExtension/v1">
  <metadata>
    <time>2023-06-15T19:35:42.472Z</time>
    <bounds minlat="47.733370000" minlon="0.509360000" maxlat="47.770070000" maxlon="0.577610000"/>
  </metadata>
  <trk>
    <name>randogps72-730</name>
    <trkseg>
      <trkpt lat="47.741080000" lon="0.514740000">
        <ele>66.000000</ele>
        <time>2023-06-13T11:43:52Z</time>
      </trkpt>
      <trkpt lat="47.741110000" lon="0.514790000">
        <ele>66.000000</ele>
        <time>2023-06-13T11:44:25Z</time>
      </trkpt>
      <trkpt lat="47.741120000" lon="0.514830000">
        <ele>67.000000</ele>
        <time>2023-06-13T11:44:28Z</time>
      </trkpt>
      <trkpt lat="47.741180000" lon="0.514960000">
        <ele>68.000000</ele>
        <time>2023-06-13T11:44:37Z</time>
      </trkpt>
      <trkpt lat="47.741190000" lon="0.515000000">
        <ele>68.000000</ele>
        <time>2023-06-13T11:44:39Z</time>
      </trkpt>
      <trkpt lat="47.741210000" lon="0.515030000">
        <ele>67.000000</ele>
        <time>2023-06-13T11:44:41Z</time>
      </trkpt>
      <trkpt lat="47.741230000" lon="0.515040000">
        <ele>67.000000</ele>
        <time>2023-06-13T11:44:44Z</time>
      </trkpt>
      <trkpt lat="47.741260000" lon="0.515030000">
        <ele>67.000000</ele>
        <time>2023-06-13T11:44:46Z</time>
      </trkpt>
      <trkpt lat="47.741310000" lon="0.514990000">
        <ele>66.000000</ele>
        <time>2023-06-13T11:44:52Z</time>
      </trkpt>
      <trkpt lat="47.741480000" lon="0.514940000">
        <ele>68.000000</ele>
        <time>2023-06-13T11:45:05Z</time>
      </trkpt>
      <trkpt lat="47.741630000" lon="0.514940000">
        <ele>71.000000</ele>
        <time>2023-06-13T11:45:22Z</time>
      </trkpt>
      <trkpt lat="47.741660000" lon="0.514930000">
        <ele>71.000000</ele>
        <time>2023-06-13T11:45:26Z</time>
      </trkpt>
      <trkpt lat="47.741690000" lon="0.514950000">
        <ele>71.000000</ele>
        <time>2023-06-13T11:45:30Z</time>
      </trkpt>
      <trkpt lat="47.741710000" lon="0.514990000">
        <ele>71.000000</ele>
        <time>2023-06-13T11:45:32Z</time>
      </trkpt>
      <trkpt lat="47.741710000" lon="0.515050000">
        <ele>71.000000</ele>
        <time>2023-06-13T11:45:34Z</time>
      </trkpt>
      <trkpt lat="47.741720000" lon="0.515100000">
        <ele>71.000000</ele>
        <time>2023-06-13T11:45:36Z</time>
      </trkpt>
      <trkpt lat="47.741720000" lon="0.515390000">
        <ele>70.000000</ele>
        <time>2023-06-13T11:45:52Z</time>
      </trkpt>
      <trkpt lat="47.741730000" lon="0.515450000">
        <ele>69.000000</ele>
        <time>2023-06-13T11:45:55Z</time>
      </trkpt>
      <trkpt lat="47.741730000" lon="0.515510000">
        <ele>68.000000</ele>
        <time>2023-06-13T11:45:58Z</time>
      </trkpt>
      <trkpt lat="47.741710000" lon="0.515600000">
        <ele>68.000000</ele>
        <time>2023-06-13T11:46:04Z</time>
      </trkpt>
      <trkpt lat="47.741710000" lon="0.515700000">
        <ele>68.000000</ele>
        <time>2023-06-13T11:46:09Z</time>
      </trkpt>
      <trkpt lat="47.741700000" lon="0.515790000">
        <ele>67.000000</ele>
        <time>2023-06-13T11:46:13Z</time>
      </trkpt>
      <trkpt lat="47.741670000" lon="0.515870000">
        <ele>67.000000</ele>
        <time>2023-06-13T11:46:18Z</time>
      </trkpt>
      <trkpt lat="47.741640000" lon="0.516000000">
        <ele>68.000000</ele>
        <time>2023-06-13T11:46:25Z</time>
      </trkpt>
      <trkpt lat="47.741640000" lon="0.516050000">
        <ele>67.000000</ele>
        <time>2023-06-13T11:46:28Z</time>
      </trkpt>
      <trkpt lat="47.741610000" lon="0.516180000">
        <ele>67.000000</ele>
        <time>2023-06-13T11:46:36Z</time>
      </trkpt>
      <trkpt lat="47.741600000" lon="0.516270000">
        <ele>67.000000</ele>
        <time>2023-06-13T11:46:40Z</time>
      </trkpt>
      <trkpt lat="47.741600000" lon="0.516370000">
        <ele>66.000000</ele>
        <time>2023-06-13T11:46:46Z</time>
      </trkpt>
      <trkpt lat="47.741570000" lon="0.516520000">
        <ele>65.000000</ele>
        <time>2023-06-13T11:46:53Z</time>
      </trkpt>
      <trkpt lat="47.741570000" lon="0.516560000">
        <ele>65.000000</ele>
        <time>2023-06-13T11:46:55Z</time>
      </trkpt>
      <trkpt lat="47.741650000" lon="0.516690000">
        <ele>62.000000</ele>
        <time>2023-06-13T11:47:03Z</time>
      </trkpt>
      <trkpt lat="47.741740000" lon="0.516750000">
        <ele>59.000000</ele>
        <time>2023-06-13T11:47:10Z</time>
      </trkpt>
      <trkpt lat="47.741760000" lon="0.516780000">
        <ele>59.000000</ele>
        <time>2023-06-13T11:47:12Z</time>
      </trkpt>
      <trkpt lat="47.741820000" lon="0.516830000">
        <ele>58.000000</ele>
        <time>2023-06-13T11:47:16Z</time>
      </trkpt>
      <trkpt lat="47.741880000" lon="0.516860000">
        <ele>58.000000</ele>
        <time>2023-06-13T11:47:20Z</time>
      </trkpt>
      <trkpt lat="47.742130000" lon="0.517090000">
        <ele>61.000000</ele>
        <time>2023-06-13T11:47:42Z</time>
      </trkpt>
      <trkpt lat="47.742240000" lon="0.517230000">
        <ele>60.000000</ele>
        <time>2023-06-13T11:47:52Z</time>
      </trkpt>
      <trkpt lat="47.742280000" lon="0.517310000">
        <ele>60.000000</ele>
        <time>2023-06-13T11:47:57Z</time>
      </trkpt>
      <trkpt lat="47.742330000" lon="0.517360000">
        <ele>61.000000</ele>
        <time>2023-06-13T11:48:01Z</time>
      </trkpt>
      <trkpt lat="47.742450000" lon="0.517590000">
        <ele>60.000000</ele>
        <time>2023-06-13T11:48:17Z</time>
      </trkpt>
      <trkpt lat="47.742500000" lon="0.517670000">
        <ele>60.000000</ele>
        <time>2023-06-13T11:48:22Z</time>
      </trkpt>
      <trkpt lat="47.742510000" lon="0.517710000">
        <ele>60.000000</ele>
        <time>2023-06-13T11:48:24Z</time>
      </trkpt>
      <trkpt lat="47.742760000" lon="0.518110000">
        <ele>57.000000</ele>
        <time>2023-06-13T11:48:54Z</time>
      </trkpt>
      <trkpt lat="47.742780000" lon="0.518110000">
        <ele>57.000000</ele>
        <time>2023-06-13T11:48:56Z</time>
      </trkpt>
      <trkpt lat="47.742880000" lon="0.518000000">
        <ele>58.000000</ele>
        <time>2023-06-13T11:49:05Z</time>
      </trkpt>
      <trkpt lat="47.742930000" lon="0.517920000">
        <ele>59.000000</ele>
        <time>2023-06-13T11:49:09Z</time>
      </trkpt>
      <trkpt lat="47.742980000" lon="0.517740000">
        <ele>61.000000</ele>
        <time>2023-06-13T11:49:17Z</time>
      </trkpt>
      <trkpt lat="47.743000000" lon="0.517700000">
        <ele>62.000000</ele>
        <time>2023-06-13T11:49:19Z</time>
      </trkpt>
      <trkpt lat="47.743010000" lon="0.517650000">
        <ele>62.000000</ele>
        <time>2023-06-13T11:49:22Z</time>
      </trkpt>
      <trkpt lat="47.743100000" lon="0.517430000">
        <ele>62.000000</ele>
        <time>2023-06-13T11:49:34Z</time>
      </trkpt>
      <trkpt lat="47.743110000" lon="0.517380000">
        <ele>62.000000</ele>
        <time>2023-06-13T11:49:37Z</time>
      </trkpt>
      <trkpt lat="47.743160000" lon="0.517260000">
        <ele>61.000000</ele>
        <time>2023-06-13T11:49:44Z</time>
      </trkpt>
      <trkpt lat="47.743310000" lon="0.517060000">
        <ele>60.000000</ele>
        <time>2023-06-13T11:50:01Z</time>
      </trkpt>
      <trkpt lat="47.743360000" lon="0.517020000">
        <ele>60.000000</ele>
        <time>2023-06-13T11:50:06Z</time>
      </trkpt>
      <trkpt lat="47.743430000" lon="0.517040000">
        <ele>61.000000</ele>
        <time>2023-06-13T11:50:11Z</time>
      </trkpt>
      <trkpt lat="47.743500000" lon="0.517080000">
        <ele>61.000000</ele>
        <time>2023-06-13T11:50:17Z</time>
      </trkpt>
      <trkpt lat="47.743590000" lon="0.517160000">
        <ele>61.000000</ele>
        <time>2023-06-13T11:50:26Z</time>
      </trkpt>
      <trkpt lat="47.743650000" lon="0.517180000">
        <ele>62.000000</ele>
        <time>2023-06-13T11:50:33Z</time>
      </trkpt>
      <trkpt lat="47.743810000" lon="0.517270000">
        <ele>63.000000</ele>
        <time>2023-06-13T11:50:50Z</time>
      </trkpt>
      <trkpt lat="47.743920000" lon="0.517380000">
        <ele>64.000000</ele>
        <time>2023-06-13T11:51:01Z</time>
      </trkpt>
      <trkpt lat="47.743960000" lon="0.517460000">
        <ele>66.000000</ele>
        <time>2023-06-13T11:51:08Z</time>
      </trkpt>
      <trkpt lat="47.744080000" lon="0.517560000">
        <ele>66.000000</ele>
        <time>2023-06-13T11:51:21Z</time>
      </trkpt>
      <trkpt lat="47.744210000" lon="0.517700000">
        <ele>69.000000</ele>
        <time>2023-06-13T11:51:34Z</time>
      </trkpt>
      <trkpt lat="47.744240000" lon="0.517710000">
        <ele>71.000000</ele>
        <time>2023-06-13T11:51:39Z</time>
      </trkpt>
      <trkpt lat="47.744450000" lon="0.517640000">
        <ele>82.000000</ele>
        <time>2023-06-13T11:52:01Z</time>
      </trkpt>
      <trkpt lat="47.744500000" lon="0.517600000">
        <ele>83.000000</ele>
        <time>2023-06-13T11:52:07Z</time>
      </trkpt>
      <trkpt lat="47.744600000" lon="0.517570000">
        <ele>86.000000</ele>
        <time>2023-06-13T11:52:15Z</time>
      </trkpt>
      <trkpt lat="47.744710000" lon="0.517480000">
        <ele>92.000000</ele>
        <time>2023-06-13T11:52:28Z</time>
      </trkpt>
      <trkpt lat="47.744760000" lon="0.517420000">
        <ele>95.000000</ele>
        <time>2023-06-13T11:52:35Z</time>
      </trkpt>
      <trkpt lat="47.744860000" lon="0.517400000">
        <ele>99.000000</ele>
        <time>2023-06-13T11:52:46Z</time>
      </trkpt>
      <trkpt lat="47.744930000" lon="0.517400000">
        <ele>101.000000</ele>
        <time>2023-06-13T11:52:53Z</time>
      </trkpt>
      <trkpt lat="47.745020000" lon="0.517350000">
        <ele>103.000000</ele>
        <time>2023-06-13T11:53:04Z</time>
      </trkpt>
      <trkpt lat="47.745120000" lon="0.517390000">
        <ele>105.000000</ele>
        <time>2023-06-13T11:53:14Z</time>
      </trkpt>
      <trkpt lat="47.745180000" lon="0.517400000">
        <ele>105.000000</ele>
        <time>2023-06-13T11:53:19Z</time>
      </trkpt>
      <trkpt lat="47.745230000" lon="0.517440000">
        <ele>106.000000</ele>
        <time>2023-06-13T11:53:25Z</time>
      </trkpt>
      <trkpt lat="47.745320000" lon="0.517480000">
        <ele>107.000000</ele>
        <time>2023-06-13T11:53:35Z</time>
      </trkpt>
      <trkpt lat="47.745350000" lon="0.517480000">
        <ele>107.000000</ele>
        <time>2023-06-13T11:53:37Z</time>
      </trkpt>
      <trkpt lat="47.745380000" lon="0.517500000">
        <ele>107.000000</ele>
        <time>2023-06-13T11:53:40Z</time>
      </trkpt>
      <trkpt lat="47.745530000" lon="0.517540000">
        <ele>106.000000</ele>
        <time>2023-06-13T11:53:54Z</time>
      </trkpt>
      <trkpt lat="47.745600000" lon="0.517540000">
        <ele>107.000000</ele>
        <time>2023-06-13T11:54:00Z</time>
      </trkpt>
      <trkpt lat="47.745690000" lon="0.517510000">
        <ele>106.000000</ele>
        <time>2023-06-13T11:54:06Z</time>
      </trkpt>
      <trkpt lat="47.745890000" lon="0.517490000">
        <ele>108.000000</ele>
        <time>2023-06-13T11:54:23Z</time>
      </trkpt>
      <trkpt lat="47.745950000" lon="0.517510000">
        <ele>110.000000</ele>
        <time>2023-06-13T11:54:30Z</time>
      </trkpt>
      <trkpt lat="47.745990000" lon="0.517510000">
        <ele>110.000000</ele>
        <time>2023-06-13T11:54:33Z</time>
      </trkpt>
      <trkpt lat="47.746090000" lon="0.517540000">
        <ele>112.000000</ele>
        <time>2023-06-13T11:54:42Z</time>
      </trkpt>
      <trkpt lat="47.746120000" lon="0.517580000">
        <ele>114.000000</ele>
        <time>2023-06-13T11:55:04Z</time>
      </trkpt>
      <trkpt lat="47.746140000" lon="0.517590000">
        <ele>114.000000</ele>
        <time>2023-06-13T11:55:11Z</time>
      </trkpt>
      <trkpt lat="47.746260000" lon="0.517530000">
        <ele>114.000000</ele>
        <time>2023-06-13T11:57:51Z</time>
      </trkpt>
      <trkpt lat="47.746390000" lon="0.517490000">
        <ele>115.000000</ele>
        <time>2023-06-13T11:58:05Z</time>
      </trkpt>
      <trkpt lat="47.746500000" lon="0.517490000">
        <ele>117.000000</ele>
        <time>2023-06-13T11:58:13Z</time>
      </trkpt>
      <trkpt lat="47.746650000" lon="0.517510000">
        <ele>119.000000</ele>
        <time>2023-06-13T11:58:25Z</time>
      </trkpt>
      <trkpt lat="47.746720000" lon="0.517530000">
        <ele>120.000000</ele>
        <time>2023-06-13T11:58:30Z</time>
      </trkpt>
      <trkpt lat="47.746800000" lon="0.517530000">
        <ele>120.000000</ele>
        <time>2023-06-13T11:58:36Z</time>
      </trkpt>
      <trkpt lat="47.746870000" lon="0.517550000">
        <ele>119.000000</ele>
        <time>2023-06-13T11:58:42Z</time>
      </trkpt>
      <trkpt lat="47.746910000" lon="0.517550000">
        <ele>120.000000</ele>
        <time>2023-06-13T11:58:44Z</time>
      </trkpt>
      <trkpt lat="47.746980000" lon="0.517570000">
        <ele>121.000000</ele>
        <time>2023-06-13T11:58:50Z</time>
      </trkpt>
      <trkpt lat="47.747030000" lon="0.517630000">
        <ele>121.000000</ele>
        <time>2023-06-13T11:58:56Z</time>
      </trkpt>
      <trkpt lat="47.747070000" lon="0.517710000">
        <ele>121.000000</ele>
        <time>2023-06-13T11:59:02Z</time>
      </trkpt>
      <trkpt lat="47.747100000" lon="0.517750000">
        <ele>121.000000</ele>
        <time>2023-06-13T11:59:05Z</time>
      </trkpt>
      <trkpt lat="47.747180000" lon="0.517900000">
        <ele>120.000000</ele>
        <time>2023-06-13T11:59:15Z</time>
      </trkpt>
      <trkpt lat="47.747210000" lon="0.517940000">
        <ele>119.000000</ele>
        <time>2023-06-13T11:59:18Z</time>
      </trkpt>
      <trkpt lat="47.747230000" lon="0.517990000">
        <ele>119.000000</ele>
        <time>2023-06-13T11:59:21Z</time>
      </trkpt>
      <trkpt lat="47.747280000" lon="0.518060000">
        <ele>119.000000</ele>
        <time>2023-06-13T11:59:26Z</time>
      </trkpt>
      <trkpt lat="47.747360000" lon="0.518200000">
        <ele>120.000000</ele>
        <time>2023-06-13T11:59:34Z</time>
      </trkpt>
      <trkpt lat="47.747370000" lon="0.518240000">
        <ele>120.000000</ele>
        <time>2023-06-13T11:59:36Z</time>
      </trkpt>
      <trkpt lat="47.747410000" lon="0.518320000">
        <ele>121.000000</ele>
        <time>2023-06-13T11:59:41Z</time>
      </trkpt>
      <trkpt lat="47.747440000" lon="0.518350000">
        <ele>121.000000</ele>
        <time>2023-06-13T11:59:44Z</time>
      </trkpt>
      <trkpt lat="47.747580000" lon="0.518600000">
        <ele>120.000000</ele>
        <time>2023-06-13T11:59:59Z</time>
      </trkpt>
      <trkpt lat="47.747590000" lon="0.518640000">
        <ele>120.000000</ele>
        <time>2023-06-13T12:00:01Z</time>
      </trkpt>
      <trkpt lat="47.747620000" lon="0.518670000">
        <ele>119.000000</ele>
        <time>2023-06-13T12:00:04Z</time>
      </trkpt>
      <trkpt lat="47.747690000" lon="0.518790000">
        <ele>118.000000</ele>
        <time>2023-06-13T12:00:12Z</time>
      </trkpt>
      <trkpt lat="47.747790000" lon="0.518870000">
        <ele>120.000000</ele>
        <time>2023-06-13T12:00:21Z</time>
      </trkpt>
      <trkpt lat="47.747830000" lon="0.518880000">
        <ele>121.000000</ele>
        <time>2023-06-13T12:00:23Z</time>
      </trkpt>
      <trkpt lat="47.747880000" lon="0.518920000">
        <ele>121.000000</ele>
        <time>2023-06-13T12:00:27Z</time>
      </trkpt>
      <trkpt lat="47.748000000" lon="0.518980000">
        <ele>121.000000</ele>
        <time>2023-06-13T12:00:36Z</time>
      </trkpt>
      <trkpt lat="47.748020000" lon="0.519010000">
        <ele>121.000000</ele>
        <time>2023-06-13T12:00:38Z</time>
      </trkpt>
      <trkpt lat="47.748050000" lon="0.519030000">
        <ele>122.000000</ele>
        <time>2023-06-13T12:00:40Z</time>
      </trkpt>
      <trkpt lat="47.748250000" lon="0.519360000">
        <ele>122.000000</ele>
        <time>2023-06-13T12:01:01Z</time>
      </trkpt>
      <trkpt lat="47.748280000" lon="0.519390000">
        <ele>122.000000</ele>
        <time>2023-06-13T12:01:04Z</time>
      </trkpt>
      <trkpt lat="47.748300000" lon="0.519430000">
        <ele>122.000000</ele>
        <time>2023-06-13T12:01:07Z</time>
      </trkpt>
      <trkpt lat="47.748470000" lon="0.519620000">
        <ele>121.000000</ele>
        <time>2023-06-13T12:01:21Z</time>
      </trkpt>
      <trkpt lat="47.748500000" lon="0.519640000">
        <ele>120.000000</ele>
        <time>2023-06-13T12:01:24Z</time>
      </trkpt>
      <trkpt lat="47.748520000" lon="0.519680000">
        <ele>120.000000</ele>
        <time>2023-06-13T12:01:27Z</time>
      </trkpt>
      <trkpt lat="47.748550000" lon="0.519710000">
        <ele>120.000000</ele>
        <time>2023-06-13T12:01:30Z</time>
      </trkpt>
      <trkpt lat="47.748610000" lon="0.519820000">
        <ele>121.000000</ele>
        <time>2023-06-13T12:01:37Z</time>
      </trkpt>
      <trkpt lat="47.748760000" lon="0.520020000">
        <ele>117.000000</ele>
        <time>2023-06-13T12:01:53Z</time>
      </trkpt>
      <trkpt lat="47.748860000" lon="0.520220000">
        <ele>119.000000</ele>
        <time>2023-06-13T12:02:04Z</time>
      </trkpt>
      <trkpt lat="47.748910000" lon="0.520280000">
        <ele>118.000000</ele>
        <time>2023-06-13T12:02:08Z</time>
      </trkpt>
      <trkpt lat="47.748930000" lon="0.520320000">
        <ele>118.000000</ele>
        <time>2023-06-13T12:02:11Z</time>
      </trkpt>
      <trkpt lat="47.748980000" lon="0.520580000">
        <ele>116.000000</ele>
        <time>2023-06-13T12:02:26Z</time>
      </trkpt>
      <trkpt lat="47.749000000" lon="0.520620000">
        <ele>116.000000</ele>
        <time>2023-06-13T12:02:28Z</time>
      </trkpt>
      <trkpt lat="47.749020000" lon="0.520710000">
        <ele>117.000000</ele>
        <time>2023-06-13T12:02:32Z</time>
      </trkpt>
      <trkpt lat="47.749050000" lon="0.520790000">
        <ele>117.000000</ele>
        <time>2023-06-13T12:02:37Z</time>
      </trkpt>
      <trkpt lat="47.749090000" lon="0.520860000">
        <ele>118.000000</ele>
        <time>2023-06-13T12:02:41Z</time>
      </trkpt>
      <trkpt lat="47.749140000" lon="0.520990000">
        <ele>119.000000</ele>
        <time>2023-06-13T12:02:48Z</time>
      </trkpt>
      <trkpt lat="47.749160000" lon="0.521080000">
        <ele>119.000000</ele>
        <time>2023-06-13T12:02:53Z</time>
      </trkpt>
      <trkpt lat="47.749230000" lon="0.521260000">
        <ele>119.000000</ele>
        <time>2023-06-13T12:03:02Z</time>
      </trkpt>
      <trkpt lat="47.749290000" lon="0.521530000">
        <ele>120.000000</ele>
        <time>2023-06-13T12:03:15Z</time>
      </trkpt>
      <trkpt lat="47.749290000" lon="0.521660000">
        <ele>119.000000</ele>
        <time>2023-06-13T12:03:21Z</time>
      </trkpt>
      <trkpt lat="47.749280000" lon="0.521710000">
        <ele>119.000000</ele>
        <time>2023-06-13T12:03:24Z</time>
      </trkpt>
      <trkpt lat="47.749260000" lon="0.521750000">
        <ele>118.000000</ele>
        <time>2023-06-13T12:03:27Z</time>
      </trkpt>
      <trkpt lat="47.749250000" lon="0.521800000">
        <ele>117.000000</ele>
        <time>2023-06-13T12:03:30Z</time>
      </trkpt>
      <trkpt lat="47.749250000" lon="0.521890000">
        <ele>116.000000</ele>
        <time>2023-06-13T12:03:35Z</time>
      </trkpt>
      <trkpt lat="47.749350000" lon="0.522050000">
        <ele>116.000000</ele>
        <time>2023-06-13T12:03:45Z</time>
      </trkpt>
      <trkpt lat="47.749380000" lon="0.522070000">
        <ele>116.000000</ele>
        <time>2023-06-13T12:03:47Z</time>
      </trkpt>
      <trkpt lat="47.749470000" lon="0.522200000">
        <ele>116.000000</ele>
        <time>2023-06-13T12:03:56Z</time>
      </trkpt>
      <trkpt lat="47.749500000" lon="0.522220000">
        <ele>115.000000</ele>
        <time>2023-06-13T12:03:59Z</time>
      </trkpt>
      <trkpt lat="47.749560000" lon="0.522290000">
        <ele>115.000000</ele>
        <time>2023-06-13T12:04:05Z</time>
      </trkpt>
      <trkpt lat="47.749640000" lon="0.522360000">
        <ele>116.000000</ele>
        <time>2023-06-13T12:04:11Z</time>
      </trkpt>
      <trkpt lat="47.749730000" lon="0.522500000">
        <ele>116.000000</ele>
        <time>2023-06-13T12:04:20Z</time>
      </trkpt>
      <trkpt lat="47.749820000" lon="0.522590000">
        <ele>115.000000</ele>
        <time>2023-06-13T12:04:28Z</time>
      </trkpt>
      <trkpt lat="47.749900000" lon="0.522700000">
        <ele>114.000000</ele>
        <time>2023-06-13T12:04:36Z</time>
      </trkpt>
      <trkpt lat="47.749920000" lon="0.522740000">
        <ele>114.000000</ele>
        <time>2023-06-13T12:04:38Z</time>
      </trkpt>
      <trkpt lat="47.749950000" lon="0.522770000">
        <ele>114.000000</ele>
        <time>2023-06-13T12:04:40Z</time>
      </trkpt>
      <trkpt lat="47.749990000" lon="0.522840000">
        <ele>113.000000</ele>
        <time>2023-06-13T12:04:45Z</time>
      </trkpt>
      <trkpt lat="47.750020000" lon="0.522860000">
        <ele>113.000000</ele>
        <time>2023-06-13T12:04:47Z</time>
      </trkpt>
      <trkpt lat="47.750040000" lon="0.522890000">
        <ele>113.000000</ele>
        <time>2023-06-13T12:04:49Z</time>
      </trkpt>
      <trkpt lat="47.750120000" lon="0.522960000">
        <ele>114.000000</ele>
        <time>2023-06-13T12:04:55Z</time>
      </trkpt>
      <trkpt lat="47.750330000" lon="0.523110000">
        <ele>112.000000</ele>
        <time>2023-06-13T12:05:13Z</time>
      </trkpt>
      <trkpt lat="47.750480000" lon="0.523240000">
        <ele>108.000000</ele>
        <time>2023-06-13T12:05:28Z</time>
      </trkpt>
      <trkpt lat="47.750540000" lon="0.523280000">
        <ele>108.000000</ele>
        <time>2023-06-13T12:05:32Z</time>
      </trkpt>
      <trkpt lat="47.750630000" lon="0.523310000">
        <ele>108.000000</ele>
        <time>2023-06-13T12:05:38Z</time>
      </trkpt>
      <trkpt lat="47.750690000" lon="0.523360000">
        <ele>109.000000</ele>
        <time>2023-06-13T12:05:44Z</time>
      </trkpt>
      <trkpt lat="47.750760000" lon="0.523400000">
        <ele>111.000000</ele>
        <time>2023-06-13T12:05:49Z</time>
      </trkpt>
      <trkpt lat="47.750870000" lon="0.523440000">
        <ele>115.000000</ele>
        <time>2023-06-13T12:05:55Z</time>
      </trkpt>
      <trkpt lat="47.750990000" lon="0.523520000">
        <ele>116.000000</ele>
        <time>2023-06-13T12:06:05Z</time>
      </trkpt>
      <trkpt lat="47.751040000" lon="0.523570000">
        <ele>116.000000</ele>
        <time>2023-06-13T12:06:09Z</time>
      </trkpt>
      <trkpt lat="47.751070000" lon="0.523580000">
        <ele>116.000000</ele>
        <time>2023-06-13T12:06:11Z</time>
      </trkpt>
      <trkpt lat="47.751100000" lon="0.523610000">
        <ele>115.000000</ele>
        <time>2023-06-13T12:06:14Z</time>
      </trkpt>
      <trkpt lat="47.751200000" lon="0.523670000">
        <ele>115.000000</ele>
        <time>2023-06-13T12:06:21Z</time>
      </trkpt>
      <trkpt lat="47.751370000" lon="0.523810000">
        <ele>115.000000</ele>
        <time>2023-06-13T12:06:36Z</time>
      </trkpt>
      <trkpt lat="47.751460000" lon="0.523870000">
        <ele>115.000000</ele>
        <time>2023-06-13T12:06:42Z</time>
      </trkpt>
      <trkpt lat="47.751480000" lon="0.523900000">
        <ele>116.000000</ele>
        <time>2023-06-13T12:06:44Z</time>
      </trkpt>
      <trkpt lat="47.751600000" lon="0.524000000">
        <ele>112.000000</ele>
        <time>2023-06-13T12:06:56Z</time>
      </trkpt>
      <trkpt lat="47.751620000" lon="0.524030000">
        <ele>112.000000</ele>
        <time>2023-06-13T12:06:58Z</time>
      </trkpt>
      <trkpt lat="47.751650000" lon="0.524050000">
        <ele>112.000000</ele>
        <time>2023-06-13T12:07:00Z</time>
      </trkpt>
      <trkpt lat="47.751720000" lon="0.524140000">
        <ele>113.000000</ele>
        <time>2023-06-13T12:07:06Z</time>
      </trkpt>
      <trkpt lat="47.751860000" lon="0.524250000">
        <ele>115.000000</ele>
        <time>2023-06-13T12:07:17Z</time>
      </trkpt>
      <trkpt lat="47.752000000" lon="0.524380000">
        <ele>113.000000</ele>
        <time>2023-06-13T12:07:30Z</time>
      </trkpt>
      <trkpt lat="47.752160000" lon="0.524510000">
        <ele>112.000000</ele>
        <time>2023-06-13T12:07:42Z</time>
      </trkpt>
      <trkpt lat="47.752190000" lon="0.524520000">
        <ele>112.000000</ele>
        <time>2023-06-13T12:07:45Z</time>
      </trkpt>
      <trkpt lat="47.752370000" lon="0.524680000">
        <ele>112.000000</ele>
        <time>2023-06-13T12:08:01Z</time>
      </trkpt>
      <trkpt lat="47.752400000" lon="0.524720000">
        <ele>112.000000</ele>
        <time>2023-06-13T12:08:04Z</time>
      </trkpt>
      <trkpt lat="47.752520000" lon="0.524810000">
        <ele>112.000000</ele>
        <time>2023-06-13T12:08:12Z</time>
      </trkpt>
      <trkpt lat="47.752560000" lon="0.524860000">
        <ele>112.000000</ele>
        <time>2023-06-13T12:08:16Z</time>
      </trkpt>
      <trkpt lat="47.752670000" lon="0.524930000">
        <ele>110.000000</ele>
        <time>2023-06-13T12:08:25Z</time>
      </trkpt>
      <trkpt lat="47.752730000" lon="0.524930000">
        <ele>111.000000</ele>
        <time>2023-06-13T12:08:29Z</time>
      </trkpt>
      <trkpt lat="47.752750000" lon="0.524920000">
        <ele>111.000000</ele>
        <time>2023-06-13T12:08:31Z</time>
      </trkpt>
      <trkpt lat="47.752770000" lon="0.524890000">
        <ele>112.000000</ele>
        <time>2023-06-13T12:08:33Z</time>
      </trkpt>
      <trkpt lat="47.752800000" lon="0.524810000">
        <ele>112.000000</ele>
        <time>2023-06-13T12:08:37Z</time>
      </trkpt>
      <trkpt lat="47.752810000" lon="0.524760000">
        <ele>112.000000</ele>
        <time>2023-06-13T12:08:40Z</time>
      </trkpt>
      <trkpt lat="47.752810000" lon="0.524710000">
        <ele>112.000000</ele>
        <time>2023-06-13T12:08:43Z</time>
      </trkpt>
      <trkpt lat="47.752820000" lon="0.524660000">
        <ele>112.000000</ele>
        <time>2023-06-13T12:08:46Z</time>
      </trkpt>
      <trkpt lat="47.752820000" lon="0.524610000">
        <ele>112.000000</ele>
        <time>2023-06-13T12:08:48Z</time>
      </trkpt>
      <trkpt lat="47.752880000" lon="0.524350000">
        <ele>114.000000</ele>
        <time>2023-06-13T12:09:02Z</time>
      </trkpt>
      <trkpt lat="47.752900000" lon="0.524310000">
        <ele>115.000000</ele>
        <time>2023-06-13T12:09:04Z</time>
      </trkpt>
      <trkpt lat="47.752920000" lon="0.524230000">
        <ele>115.000000</ele>
        <time>2023-06-13T12:09:08Z</time>
      </trkpt>
      <trkpt lat="47.752940000" lon="0.524190000">
        <ele>115.000000</ele>
        <time>2023-06-13T12:09:10Z</time>
      </trkpt>
      <trkpt lat="47.752980000" lon="0.524040000">
        <ele>115.000000</ele>
        <time>2023-06-13T12:09:19Z</time>
      </trkpt>
      <trkpt lat="47.752960000" lon="0.523900000">
        <ele>116.000000</ele>
        <time>2023-06-13T12:09:25Z</time>
      </trkpt>
      <trkpt lat="47.752960000" lon="0.523750000">
        <ele>116.000000</ele>
        <time>2023-06-13T12:09:34Z</time>
      </trkpt>
      <trkpt lat="47.752950000" lon="0.523700000">
        <ele>115.000000</ele>
        <time>2023-06-13T12:09:37Z</time>
      </trkpt>
      <trkpt lat="47.752970000" lon="0.523610000">
        <ele>115.000000</ele>
        <time>2023-06-13T12:09:41Z</time>
      </trkpt>
      <trkpt lat="47.752970000" lon="0.523570000">
        <ele>115.000000</ele>
        <time>2023-06-13T12:09:43Z</time>
      </trkpt>
      <trkpt lat="47.752990000" lon="0.523520000">
        <ele>115.000000</ele>
        <time>2023-06-13T12:09:46Z</time>
      </trkpt>
      <trkpt lat="47.752990000" lon="0.523480000">
        <ele>115.000000</ele>
        <time>2023-06-13T12:09:48Z</time>
      </trkpt>
      <trkpt lat="47.753020000" lon="0.523320000">
        <ele>116.000000</ele>
        <time>2023-06-13T12:09:57Z</time>
      </trkpt>
      <trkpt lat="47.753020000" lon="0.523270000">
        <ele>117.000000</ele>
        <time>2023-06-13T12:09:59Z</time>
      </trkpt>
      <trkpt lat="47.753040000" lon="0.523220000">
        <ele>117.000000</ele>
        <time>2023-06-13T12:10:02Z</time>
      </trkpt>
      <trkpt lat="47.753070000" lon="0.523070000">
        <ele>118.000000</ele>
        <time>2023-06-13T12:10:10Z</time>
      </trkpt>
      <trkpt lat="47.753070000" lon="0.523020000">
        <ele>119.000000</ele>
        <time>2023-06-13T12:10:12Z</time>
      </trkpt>
      <trkpt lat="47.753100000" lon="0.522880000">
        <ele>119.000000</ele>
        <time>2023-06-13T12:10:20Z</time>
      </trkpt>
      <trkpt lat="47.753120000" lon="0.522830000">
        <ele>119.000000</ele>
        <time>2023-06-13T12:10:22Z</time>
      </trkpt>
      <trkpt lat="47.753200000" lon="0.522470000">
        <ele>118.000000</ele>
        <time>2023-06-13T12:10:41Z</time>
      </trkpt>
      <trkpt lat="47.753220000" lon="0.522430000">
        <ele>118.000000</ele>
        <time>2023-06-13T12:10:43Z</time>
      </trkpt>
      <trkpt lat="47.753240000" lon="0.522340000">
        <ele>118.000000</ele>
        <time>2023-06-13T12:10:48Z</time>
      </trkpt>
      <trkpt lat="47.753240000" lon="0.522290000">
        <ele>118.000000</ele>
        <time>2023-06-13T12:10:50Z</time>
      </trkpt>
      <trkpt lat="47.753250000" lon="0.522250000">
        <ele>117.000000</ele>
        <time>2023-06-13T12:10:52Z</time>
      </trkpt>
      <trkpt lat="47.753250000" lon="0.522210000">
        <ele>117.000000</ele>
        <time>2023-06-13T12:10:54Z</time>
      </trkpt>
      <trkpt lat="47.753270000" lon="0.522130000">
        <ele>116.000000</ele>
        <time>2023-06-13T12:10:58Z</time>
      </trkpt>
      <trkpt lat="47.753310000" lon="0.522040000">
        <ele>115.000000</ele>
        <time>2023-06-13T12:11:03Z</time>
      </trkpt>
      <trkpt lat="47.753350000" lon="0.521880000">
        <ele>114.000000</ele>
        <time>2023-06-13T12:11:11Z</time>
      </trkpt>
      <trkpt lat="47.753400000" lon="0.521760000">
        <ele>114.000000</ele>
        <time>2023-06-13T12:11:17Z</time>
      </trkpt>
      <trkpt lat="47.753440000" lon="0.521630000">
        <ele>113.000000</ele>
        <time>2023-06-13T12:11:24Z</time>
      </trkpt>
      <trkpt lat="47.753480000" lon="0.521460000">
        <ele>113.000000</ele>
        <time>2023-06-13T12:11:32Z</time>
      </trkpt>
      <trkpt lat="47.753480000" lon="0.521420000">
        <ele>113.000000</ele>
        <time>2023-06-13T12:11:34Z</time>
      </trkpt>
      <trkpt lat="47.753510000" lon="0.521290000">
        <ele>113.000000</ele>
        <time>2023-06-13T12:11:41Z</time>
      </trkpt>
      <trkpt lat="47.753510000" lon="0.521240000">
        <ele>113.000000</ele>
        <time>2023-06-13T12:11:43Z</time>
      </trkpt>
      <trkpt lat="47.753520000" lon="0.521200000">
        <ele>113.000000</ele>
        <time>2023-06-13T12:11:45Z</time>
      </trkpt>
      <trkpt lat="47.753520000" lon="0.521160000">
        <ele>114.000000</ele>
        <time>2023-06-13T12:11:47Z</time>
      </trkpt>
      <trkpt lat="47.753540000" lon="0.521110000">
        <ele>114.000000</ele>
        <time>2023-06-13T12:11:50Z</time>
      </trkpt>
      <trkpt lat="47.753610000" lon="0.520770000">
        <ele>115.000000</ele>
        <time>2023-06-13T12:12:07Z</time>
      </trkpt>
      <trkpt lat="47.753610000" lon="0.520720000">
        <ele>115.000000</ele>
        <time>2023-06-13T12:12:10Z</time>
      </trkpt>
      <trkpt lat="47.753660000" lon="0.520520000">
        <ele>115.000000</ele>
        <time>2023-06-13T12:12:21Z</time>
      </trkpt>
      <trkpt lat="47.753680000" lon="0.520470000">
        <ele>115.000000</ele>
        <time>2023-06-13T12:12:24Z</time>
      </trkpt>
      <trkpt lat="47.753700000" lon="0.520360000">
        <ele>114.000000</ele>
        <time>2023-06-13T12:12:30Z</time>
      </trkpt>
      <trkpt lat="47.753720000" lon="0.520320000">
        <ele>114.000000</ele>
        <time>2023-06-13T12:12:32Z</time>
      </trkpt>
      <trkpt lat="47.753730000" lon="0.520270000">
        <ele>115.000000</ele>
        <time>2023-06-13T12:12:34Z</time>
      </trkpt>
      <trkpt lat="47.753730000" lon="0.520220000">
        <ele>116.000000</ele>
        <time>2023-06-13T12:12:37Z</time>
      </trkpt>
      <trkpt lat="47.753750000" lon="0.520170000">
        <ele>117.000000</ele>
        <time>2023-06-13T12:12:40Z</time>
      </trkpt>
      <trkpt lat="47.753840000" lon="0.520090000">
        <ele>117.000000</ele>
        <time>2023-06-13T12:12:49Z</time>
      </trkpt>
      <trkpt lat="47.753900000" lon="0.520070000">
        <ele>117.000000</ele>
        <time>2023-06-13T12:12:55Z</time>
      </trkpt>
      <trkpt lat="47.753950000" lon="0.520030000">
        <ele>119.000000</ele>
        <time>2023-06-13T12:13:05Z</time>
      </trkpt>
      <trkpt lat="47.754050000" lon="0.520020000">
        <ele>119.000000</ele>
        <time>2023-06-13T12:13:32Z</time>
      </trkpt>
      <trkpt lat="47.754340000" lon="0.519940000">
        <ele>119.000000</ele>
        <time>2023-06-13T12:13:53Z</time>
      </trkpt>
      <trkpt lat="47.754500000" lon="0.519800000">
        <ele>120.000000</ele>
        <time>2023-06-13T12:14:06Z</time>
      </trkpt>
      <trkpt lat="47.754570000" lon="0.519720000">
        <ele>120.000000</ele>
        <time>2023-06-13T12:14:13Z</time>
      </trkpt>
      <trkpt lat="47.754590000" lon="0.519680000">
        <ele>119.000000</ele>
        <time>2023-06-13T12:14:16Z</time>
      </trkpt>
      <trkpt lat="47.754710000" lon="0.519530000">
        <ele>119.000000</ele>
        <time>2023-06-13T12:14:27Z</time>
      </trkpt>
      <trkpt lat="47.754990000" lon="0.519360000">
        <ele>119.000000</ele>
        <time>2023-06-13T12:14:51Z</time>
      </trkpt>
      <trkpt lat="47.755130000" lon="0.519320000">
        <ele>120.000000</ele>
        <time>2023-06-13T12:15:00Z</time>
      </trkpt>
      <trkpt lat="47.755160000" lon="0.519290000">
        <ele>120.000000</ele>
        <time>2023-06-13T12:15:03Z</time>
      </trkpt>
      <trkpt lat="47.755310000" lon="0.519220000">
        <ele>120.000000</ele>
        <time>2023-06-13T12:15:15Z</time>
      </trkpt>
      <trkpt lat="47.755670000" lon="0.519020000">
        <ele>120.000000</ele>
        <time>2023-06-13T12:15:47Z</time>
      </trkpt>
      <trkpt lat="47.755740000" lon="0.519000000">
        <ele>120.000000</ele>
        <time>2023-06-13T12:15:52Z</time>
      </trkpt>
      <trkpt lat="47.755790000" lon="0.518960000">
        <ele>120.000000</ele>
        <time>2023-06-13T12:15:56Z</time>
      </trkpt>
      <trkpt lat="47.755950000" lon="0.518880000">
        <ele>121.000000</ele>
        <time>2023-06-13T12:16:07Z</time>
      </trkpt>
      <trkpt lat="47.756000000" lon="0.518830000">
        <ele>121.000000</ele>
        <time>2023-06-13T12:16:11Z</time>
      </trkpt>
      <trkpt lat="47.756040000" lon="0.518820000">
        <ele>121.000000</ele>
        <time>2023-06-13T12:16:14Z</time>
      </trkpt>
      <trkpt lat="47.756290000" lon="0.518690000">
        <ele>120.000000</ele>
        <time>2023-06-13T12:16:34Z</time>
      </trkpt>
      <trkpt lat="47.756360000" lon="0.518640000">
        <ele>120.000000</ele>
        <time>2023-06-13T12:16:40Z</time>
      </trkpt>
      <trkpt lat="47.756390000" lon="0.518630000">
        <ele>120.000000</ele>
        <time>2023-06-13T12:16:43Z</time>
      </trkpt>
      <trkpt lat="47.756580000" lon="0.518500000">
        <ele>120.000000</ele>
        <time>2023-06-13T12:16:59Z</time>
      </trkpt>
      <trkpt lat="47.756610000" lon="0.518470000">
        <ele>120.000000</ele>
        <time>2023-06-13T12:17:02Z</time>
      </trkpt>
      <trkpt lat="47.756810000" lon="0.518360000">
        <ele>120.000000</ele>
        <time>2023-06-13T12:17:18Z</time>
      </trkpt>
      <trkpt lat="47.757090000" lon="0.518170000">
        <ele>121.000000</ele>
        <time>2023-06-13T12:17:42Z</time>
      </trkpt>
      <trkpt lat="47.757120000" lon="0.518140000">
        <ele>121.000000</ele>
        <time>2023-06-13T12:17:45Z</time>
      </trkpt>
      <trkpt lat="47.757150000" lon="0.518130000">
        <ele>121.000000</ele>
        <time>2023-06-13T12:17:47Z</time>
      </trkpt>
      <trkpt lat="47.757610000" lon="0.517800000">
        <ele>121.000000</ele>
        <time>2023-06-13T12:18:27Z</time>
      </trkpt>
      <trkpt lat="47.757690000" lon="0.517730000">
        <ele>121.000000</ele>
        <time>2023-06-13T12:18:33Z</time>
      </trkpt>
      <trkpt lat="47.757820000" lon="0.517640000">
        <ele>121.000000</ele>
        <time>2023-06-13T12:18:45Z</time>
      </trkpt>
      <trkpt lat="47.757880000" lon="0.517580000">
        <ele>121.000000</ele>
        <time>2023-06-13T12:18:50Z</time>
      </trkpt>
      <trkpt lat="47.758040000" lon="0.517470000">
        <ele>121.000000</ele>
        <time>2023-06-13T12:19:05Z</time>
      </trkpt>
      <trkpt lat="47.758130000" lon="0.517380000">
        <ele>121.000000</ele>
        <time>2023-06-13T12:19:13Z</time>
      </trkpt>
      <trkpt lat="47.758250000" lon="0.517300000">
        <ele>121.000000</ele>
        <time>2023-06-13T12:19:23Z</time>
      </trkpt>
      <trkpt lat="47.758380000" lon="0.517180000">
        <ele>122.000000</ele>
        <time>2023-06-13T12:19:35Z</time>
      </trkpt>
      <trkpt lat="47.758480000" lon="0.517130000">
        <ele>121.000000</ele>
        <time>2023-06-13T12:19:42Z</time>
      </trkpt>
      <trkpt lat="47.758510000" lon="0.517130000">
        <ele>121.000000</ele>
        <time>2023-06-13T12:19:44Z</time>
      </trkpt>
      <trkpt lat="47.758760000" lon="0.516950000">
        <ele>121.000000</ele>
        <time>2023-06-13T12:20:05Z</time>
      </trkpt>
      <trkpt lat="47.758800000" lon="0.516950000">
        <ele>121.000000</ele>
        <time>2023-06-13T12:20:08Z</time>
      </trkpt>
      <trkpt lat="47.758830000" lon="0.516970000">
        <ele>121.000000</ele>
        <time>2023-06-13T12:20:11Z</time>
      </trkpt>
      <trkpt lat="47.758850000" lon="0.517000000">
        <ele>122.000000</ele>
        <time>2023-06-13T12:20:13Z</time>
      </trkpt>
      <trkpt lat="47.758860000" lon="0.517040000">
        <ele>122.000000</ele>
        <time>2023-06-13T12:20:15Z</time>
      </trkpt>
      <trkpt lat="47.758950000" lon="0.517240000">
        <ele>123.000000</ele>
        <time>2023-06-13T12:20:26Z</time>
      </trkpt>
      <trkpt lat="47.758970000" lon="0.517310000">
        <ele>123.000000</ele>
        <time>2023-06-13T12:20:30Z</time>
      </trkpt>
      <trkpt lat="47.758990000" lon="0.517350000">
        <ele>123.000000</ele>
        <time>2023-06-13T12:20:32Z</time>
      </trkpt>
      <trkpt lat="47.759030000" lon="0.517540000">
        <ele>122.000000</ele>
        <time>2023-06-13T12:20:42Z</time>
      </trkpt>
      <trkpt lat="47.759120000" lon="0.517770000">
        <ele>122.000000</ele>
        <time>2023-06-13T12:20:55Z</time>
      </trkpt>
      <trkpt lat="47.759150000" lon="0.517910000">
        <ele>123.000000</ele>
        <time>2023-06-13T12:21:01Z</time>
      </trkpt>
      <trkpt lat="47.759180000" lon="0.517990000">
        <ele>124.000000</ele>
        <time>2023-06-13T12:21:05Z</time>
      </trkpt>
      <trkpt lat="47.759200000" lon="0.518020000">
        <ele>124.000000</ele>
        <time>2023-06-13T12:21:07Z</time>
      </trkpt>
      <trkpt lat="47.759320000" lon="0.518360000">
        <ele>124.000000</ele>
        <time>2023-06-13T12:21:26Z</time>
      </trkpt>
      <trkpt lat="47.759340000" lon="0.518390000">
        <ele>124.000000</ele>
        <time>2023-06-13T12:21:28Z</time>
      </trkpt>
      <trkpt lat="47.759370000" lon="0.518470000">
        <ele>124.000000</ele>
        <time>2023-06-13T12:21:32Z</time>
      </trkpt>
      <trkpt lat="47.759400000" lon="0.518600000">
        <ele>124.000000</ele>
        <time>2023-06-13T12:21:39Z</time>
      </trkpt>
      <trkpt lat="47.759440000" lon="0.518690000">
        <ele>124.000000</ele>
        <time>2023-06-13T12:21:44Z</time>
      </trkpt>
      <trkpt lat="47.759500000" lon="0.518910000">
        <ele>124.000000</ele>
        <time>2023-06-13T12:21:56Z</time>
      </trkpt>
      <trkpt lat="47.759550000" lon="0.519030000">
        <ele>122.000000</ele>
        <time>2023-06-13T12:22:03Z</time>
      </trkpt>
      <trkpt lat="47.759580000" lon="0.519190000">
        <ele>120.000000</ele>
        <time>2023-06-13T12:22:12Z</time>
      </trkpt>
      <trkpt lat="47.759600000" lon="0.519230000">
        <ele>120.000000</ele>
        <time>2023-06-13T12:22:14Z</time>
      </trkpt>
      <trkpt lat="47.759660000" lon="0.519470000">
        <ele>119.000000</ele>
        <time>2023-06-13T12:22:28Z</time>
      </trkpt>
      <trkpt lat="47.759730000" lon="0.519820000">
        <ele>118.000000</ele>
        <time>2023-06-13T12:22:46Z</time>
      </trkpt>
      <trkpt lat="47.759770000" lon="0.519960000">
        <ele>118.000000</ele>
        <time>2023-06-13T12:22:53Z</time>
      </trkpt>
      <trkpt lat="47.759790000" lon="0.520000000">
        <ele>118.000000</ele>
        <time>2023-06-13T12:22:55Z</time>
      </trkpt>
      <trkpt lat="47.759860000" lon="0.520310000">
        <ele>119.000000</ele>
        <time>2023-06-13T12:23:10Z</time>
      </trkpt>
      <trkpt lat="47.759860000" lon="0.520360000">
        <ele>120.000000</ele>
        <time>2023-06-13T12:23:12Z</time>
      </trkpt>
      <trkpt lat="47.759890000" lon="0.520450000">
        <ele>119.000000</ele>
        <time>2023-06-13T12:23:17Z</time>
      </trkpt>
      <trkpt lat="47.759960000" lon="0.520790000">
        <ele>121.000000</ele>
        <time>2023-06-13T12:23:34Z</time>
      </trkpt>
      <trkpt lat="47.759960000" lon="0.520830000">
        <ele>121.000000</ele>
        <time>2023-06-13T12:23:36Z</time>
      </trkpt>
      <trkpt lat="47.760030000" lon="0.521140000">
        <ele>119.000000</ele>
        <time>2023-06-13T12:23:51Z</time>
      </trkpt>
      <trkpt lat="47.760050000" lon="0.521180000">
        <ele>119.000000</ele>
        <time>2023-06-13T12:23:54Z</time>
      </trkpt>
      <trkpt lat="47.760100000" lon="0.521410000">
        <ele>118.000000</ele>
        <time>2023-06-13T12:24:07Z</time>
      </trkpt>
      <trkpt lat="47.760120000" lon="0.521460000">
        <ele>118.000000</ele>
        <time>2023-06-13T12:24:09Z</time>
      </trkpt>
      <trkpt lat="47.760170000" lon="0.521530000">
        <ele>120.000000</ele>
        <time>2023-06-13T12:24:13Z</time>
      </trkpt>
      <trkpt lat="47.760230000" lon="0.521570000">
        <ele>121.000000</ele>
        <time>2023-06-13T12:24:18Z</time>
      </trkpt>
      <trkpt lat="47.760460000" lon="0.521570000">
        <ele>123.000000</ele>
        <time>2023-06-13T12:24:33Z</time>
      </trkpt>
      <trkpt lat="47.760490000" lon="0.521560000">
        <ele>123.000000</ele>
        <time>2023-06-13T12:24:35Z</time>
      </trkpt>
      <trkpt lat="47.760860000" lon="0.521580000">
        <ele>123.000000</ele>
        <time>2023-06-13T12:25:02Z</time>
      </trkpt>
      <trkpt lat="47.761080000" lon="0.521640000">
        <ele>125.000000</ele>
        <time>2023-06-13T12:25:18Z</time>
      </trkpt>
      <trkpt lat="47.761170000" lon="0.521700000">
        <ele>123.000000</ele>
        <time>2023-06-13T12:25:26Z</time>
      </trkpt>
      <trkpt lat="47.761240000" lon="0.521730000">
        <ele>124.000000</ele>
        <time>2023-06-13T12:25:32Z</time>
      </trkpt>
      <trkpt lat="47.761410000" lon="0.521870000">
        <ele>124.000000</ele>
        <time>2023-06-13T12:25:45Z</time>
      </trkpt>
      <trkpt lat="47.761530000" lon="0.522030000">
        <ele>122.000000</ele>
        <time>2023-06-13T12:25:58Z</time>
      </trkpt>
      <trkpt lat="47.761570000" lon="0.522110000">
        <ele>123.000000</ele>
        <time>2023-06-13T12:26:02Z</time>
      </trkpt>
      <trkpt lat="47.761630000" lon="0.522200000">
        <ele>122.000000</ele>
        <time>2023-06-13T12:26:09Z</time>
      </trkpt>
      <trkpt lat="47.761660000" lon="0.522230000">
        <ele>122.000000</ele>
        <time>2023-06-13T12:26:12Z</time>
      </trkpt>
      <trkpt lat="47.761690000" lon="0.522240000">
        <ele>123.000000</ele>
        <time>2023-06-13T12:26:14Z</time>
      </trkpt>
      <trkpt lat="47.761780000" lon="0.522230000">
        <ele>123.000000</ele>
        <time>2023-06-13T12:26:21Z</time>
      </trkpt>
      <trkpt lat="47.762040000" lon="0.522110000">
        <ele>123.000000</ele>
        <time>2023-06-13T12:26:41Z</time>
      </trkpt>
      <trkpt lat="47.762100000" lon="0.522100000">
        <ele>122.000000</ele>
        <time>2023-06-13T12:26:45Z</time>
      </trkpt>
      <trkpt lat="47.762190000" lon="0.522040000">
        <ele>123.000000</ele>
        <time>2023-06-13T12:26:53Z</time>
      </trkpt>
      <trkpt lat="47.762250000" lon="0.521980000">
        <ele>125.000000</ele>
        <time>2023-06-13T12:26:59Z</time>
      </trkpt>
      <trkpt lat="47.762320000" lon="0.521960000">
        <ele>124.000000</ele>
        <time>2023-06-13T12:27:04Z</time>
      </trkpt>
      <trkpt lat="47.762350000" lon="0.521940000">
        <ele>124.000000</ele>
        <time>2023-06-13T12:27:06Z</time>
      </trkpt>
      <trkpt lat="47.762420000" lon="0.521920000">
        <ele>123.000000</ele>
        <time>2023-06-13T12:27:11Z</time>
      </trkpt>
      <trkpt lat="47.762660000" lon="0.521800000">
        <ele>123.000000</ele>
        <time>2023-06-13T12:27:31Z</time>
      </trkpt>
      <trkpt lat="47.762700000" lon="0.521810000">
        <ele>123.000000</ele>
        <time>2023-06-13T12:27:33Z</time>
      </trkpt>
      <trkpt lat="47.762730000" lon="0.521840000">
        <ele>124.000000</ele>
        <time>2023-06-13T12:27:36Z</time>
      </trkpt>
      <trkpt lat="47.762760000" lon="0.521910000">
        <ele>125.000000</ele>
        <time>2023-06-13T12:27:40Z</time>
      </trkpt>
      <trkpt lat="47.762800000" lon="0.522080000">
        <ele>124.000000</ele>
        <time>2023-06-13T12:27:50Z</time>
      </trkpt>
      <trkpt lat="47.762800000" lon="0.522130000">
        <ele>124.000000</ele>
        <time>2023-06-13T12:27:53Z</time>
      </trkpt>
      <trkpt lat="47.762810000" lon="0.522180000">
        <ele>124.000000</ele>
        <time>2023-06-13T12:27:55Z</time>
      </trkpt>
      <trkpt lat="47.762810000" lon="0.522280000">
        <ele>123.000000</ele>
        <time>2023-06-13T12:28:00Z</time>
      </trkpt>
      <trkpt lat="47.762820000" lon="0.522320000">
        <ele>124.000000</ele>
        <time>2023-06-13T12:28:03Z</time>
      </trkpt>
      <trkpt lat="47.762820000" lon="0.522370000">
        <ele>124.000000</ele>
        <time>2023-06-13T12:28:05Z</time>
      </trkpt>
      <trkpt lat="47.762830000" lon="0.522410000">
        <ele>124.000000</ele>
        <time>2023-06-13T12:28:07Z</time>
      </trkpt>
      <trkpt lat="47.762830000" lon="0.522450000">
        <ele>123.000000</ele>
        <time>2023-06-13T12:28:09Z</time>
      </trkpt>
      <trkpt lat="47.762860000" lon="0.522610000">
        <ele>122.000000</ele>
        <time>2023-06-13T12:28:18Z</time>
      </trkpt>
      <trkpt lat="47.762860000" lon="0.522660000">
        <ele>122.000000</ele>
        <time>2023-06-13T12:28:20Z</time>
      </trkpt>
      <trkpt lat="47.762870000" lon="0.522700000">
        <ele>122.000000</ele>
        <time>2023-06-13T12:28:22Z</time>
      </trkpt>
      <trkpt lat="47.762890000" lon="0.522930000">
        <ele>122.000000</ele>
        <time>2023-06-13T12:28:34Z</time>
      </trkpt>
      <trkpt lat="47.762920000" lon="0.523070000">
        <ele>121.000000</ele>
        <time>2023-06-13T12:28:41Z</time>
      </trkpt>
      <trkpt lat="47.762920000" lon="0.523110000">
        <ele>121.000000</ele>
        <time>2023-06-13T12:28:43Z</time>
      </trkpt>
      <trkpt lat="47.762930000" lon="0.523150000">
        <ele>120.000000</ele>
        <time>2023-06-13T12:28:45Z</time>
      </trkpt>
      <trkpt lat="47.762930000" lon="0.523590000">
        <ele>118.000000</ele>
        <time>2023-06-13T12:29:10Z</time>
      </trkpt>
      <trkpt lat="47.762920000" lon="0.523650000">
        <ele>118.000000</ele>
        <time>2023-06-13T12:29:13Z</time>
      </trkpt>
      <trkpt lat="47.762920000" lon="0.523880000">
        <ele>118.000000</ele>
        <time>2023-06-13T12:29:24Z</time>
      </trkpt>
      <trkpt lat="47.762900000" lon="0.523970000">
        <ele>117.000000</ele>
        <time>2023-06-13T12:29:29Z</time>
      </trkpt>
      <trkpt lat="47.762900000" lon="0.524160000">
        <ele>115.000000</ele>
        <time>2023-06-13T12:29:40Z</time>
      </trkpt>
      <trkpt lat="47.762910000" lon="0.524200000">
        <ele>115.000000</ele>
        <time>2023-06-13T12:29:42Z</time>
      </trkpt>
      <trkpt lat="47.762930000" lon="0.524230000">
        <ele>115.000000</ele>
        <time>2023-06-13T12:29:44Z</time>
      </trkpt>
      <trkpt lat="47.762980000" lon="0.524260000">
        <ele>115.000000</ele>
        <time>2023-06-13T12:29:49Z</time>
      </trkpt>
      <trkpt lat="47.763020000" lon="0.524270000">
        <ele>116.000000</ele>
        <time>2023-06-13T12:29:52Z</time>
      </trkpt>
      <trkpt lat="47.763200000" lon="0.524270000">
        <ele>120.000000</ele>
        <time>2023-06-13T12:30:03Z</time>
      </trkpt>
      <trkpt lat="47.763330000" lon="0.524290000">
        <ele>120.000000</ele>
        <time>2023-06-13T12:30:14Z</time>
      </trkpt>
      <trkpt lat="47.763600000" lon="0.524370000">
        <ele>119.000000</ele>
        <time>2023-06-13T12:30:35Z</time>
      </trkpt>
      <trkpt lat="47.763860000" lon="0.524500000">
        <ele>118.000000</ele>
        <time>2023-06-13T12:30:55Z</time>
      </trkpt>
      <trkpt lat="47.764030000" lon="0.524540000">
        <ele>120.000000</ele>
        <time>2023-06-13T12:31:08Z</time>
      </trkpt>
      <trkpt lat="47.764190000" lon="0.524610000">
        <ele>121.000000</ele>
        <time>2023-06-13T12:31:21Z</time>
      </trkpt>
      <trkpt lat="47.764350000" lon="0.524750000">
        <ele>123.000000</ele>
        <time>2023-06-13T12:31:34Z</time>
      </trkpt>
      <trkpt lat="47.764370000" lon="0.524780000">
        <ele>123.000000</ele>
        <time>2023-06-13T12:31:38Z</time>
      </trkpt>
      <trkpt lat="47.764400000" lon="0.524800000">
        <ele>123.000000</ele>
        <time>2023-06-13T12:31:41Z</time>
      </trkpt>
      <trkpt lat="47.764600000" lon="0.524840000">
        <ele>121.000000</ele>
        <time>2023-06-13T12:32:00Z</time>
      </trkpt>
      <trkpt lat="47.764620000" lon="0.524830000">
        <ele>121.000000</ele>
        <time>2023-06-13T12:32:06Z</time>
      </trkpt>
      <trkpt lat="47.764870000" lon="0.524930000">
        <ele>124.000000</ele>
        <time>2023-06-13T12:33:26Z</time>
      </trkpt>
      <trkpt lat="47.764920000" lon="0.524970000">
        <ele>124.000000</ele>
        <time>2023-06-13T12:33:31Z</time>
      </trkpt>
      <trkpt lat="47.765010000" lon="0.525010000">
        <ele>125.000000</ele>
        <time>2023-06-13T12:33:37Z</time>
      </trkpt>
      <trkpt lat="47.765100000" lon="0.525030000">
        <ele>126.000000</ele>
        <time>2023-06-13T12:33:44Z</time>
      </trkpt>
      <trkpt lat="47.765320000" lon="0.525020000">
        <ele>127.000000</ele>
        <time>2023-06-13T12:33:59Z</time>
      </trkpt>
      <trkpt lat="47.765650000" lon="0.525090000">
        <ele>126.000000</ele>
        <time>2023-06-13T12:34:25Z</time>
      </trkpt>
      <trkpt lat="47.765810000" lon="0.525100000">
        <ele>128.000000</ele>
        <time>2023-06-13T12:34:35Z</time>
      </trkpt>
      <trkpt lat="47.765910000" lon="0.525130000">
        <ele>130.000000</ele>
        <time>2023-06-13T12:34:41Z</time>
      </trkpt>
      <trkpt lat="47.765970000" lon="0.525130000">
        <ele>129.000000</ele>
        <time>2023-06-13T12:34:46Z</time>
      </trkpt>
      <trkpt lat="47.766210000" lon="0.525200000">
        <ele>128.000000</ele>
        <time>2023-06-13T12:35:04Z</time>
      </trkpt>
      <trkpt lat="47.766320000" lon="0.525200000">
        <ele>128.000000</ele>
        <time>2023-06-13T12:35:12Z</time>
      </trkpt>
      <trkpt lat="47.766540000" lon="0.525250000">
        <ele>128.000000</ele>
        <time>2023-06-13T12:35:29Z</time>
      </trkpt>
      <trkpt lat="47.766570000" lon="0.525280000">
        <ele>129.000000</ele>
        <time>2023-06-13T12:35:32Z</time>
      </trkpt>
      <trkpt lat="47.766640000" lon="0.525300000">
        <ele>130.000000</ele>
        <time>2023-06-13T12:35:36Z</time>
      </trkpt>
      <trkpt lat="47.766700000" lon="0.525340000">
        <ele>129.000000</ele>
        <time>2023-06-13T12:35:40Z</time>
      </trkpt>
      <trkpt lat="47.766740000" lon="0.525350000">
        <ele>128.000000</ele>
        <time>2023-06-13T12:35:43Z</time>
      </trkpt>
      <trkpt lat="47.766840000" lon="0.525350000">
        <ele>128.000000</ele>
        <time>2023-06-13T12:35:51Z</time>
      </trkpt>
      <trkpt lat="47.766900000" lon="0.525380000">
        <ele>126.000000</ele>
        <time>2023-06-13T12:35:56Z</time>
      </trkpt>
      <trkpt lat="47.766920000" lon="0.525410000">
        <ele>125.000000</ele>
        <time>2023-06-13T12:35:58Z</time>
      </trkpt>
      <trkpt lat="47.766970000" lon="0.525540000">
        <ele>124.000000</ele>
        <time>2023-06-13T12:36:05Z</time>
      </trkpt>
      <trkpt lat="47.766980000" lon="0.525630000">
        <ele>125.000000</ele>
        <time>2023-06-13T12:36:09Z</time>
      </trkpt>
      <trkpt lat="47.766980000" lon="0.525760000">
        <ele>125.000000</ele>
        <time>2023-06-13T12:36:15Z</time>
      </trkpt>
      <trkpt lat="47.766990000" lon="0.525810000">
        <ele>126.000000</ele>
        <time>2023-06-13T12:36:17Z</time>
      </trkpt>
      <trkpt lat="47.766990000" lon="0.526220000">
        <ele>123.000000</ele>
        <time>2023-06-13T12:36:37Z</time>
      </trkpt>
      <trkpt lat="47.766980000" lon="0.526270000">
        <ele>123.000000</ele>
        <time>2023-06-13T12:36:40Z</time>
      </trkpt>
      <trkpt lat="47.766980000" lon="0.526330000">
        <ele>122.000000</ele>
        <time>2023-06-13T12:36:43Z</time>
      </trkpt>
      <trkpt lat="47.766970000" lon="0.526370000">
        <ele>122.000000</ele>
        <time>2023-06-13T12:36:45Z</time>
      </trkpt>
      <trkpt lat="47.766970000" lon="0.526680000">
        <ele>123.000000</ele>
        <time>2023-06-13T12:36:59Z</time>
      </trkpt>
      <trkpt lat="47.767030000" lon="0.526940000">
        <ele>118.000000</ele>
        <time>2023-06-13T12:37:15Z</time>
      </trkpt>
      <trkpt lat="47.767030000" lon="0.527090000">
        <ele>116.000000</ele>
        <time>2023-06-13T12:37:22Z</time>
      </trkpt>
      <trkpt lat="47.767020000" lon="0.527140000">
        <ele>115.000000</ele>
        <time>2023-06-13T12:37:24Z</time>
      </trkpt>
      <trkpt lat="47.767020000" lon="0.527280000">
        <ele>114.000000</ele>
        <time>2023-06-13T12:37:31Z</time>
      </trkpt>
      <trkpt lat="47.767010000" lon="0.527330000">
        <ele>114.000000</ele>
        <time>2023-06-13T12:37:33Z</time>
      </trkpt>
      <trkpt lat="47.767010000" lon="0.527410000">
        <ele>114.000000</ele>
        <time>2023-06-13T12:37:37Z</time>
      </trkpt>
      <trkpt lat="47.766990000" lon="0.527550000">
        <ele>114.000000</ele>
        <time>2023-06-13T12:37:43Z</time>
      </trkpt>
      <trkpt lat="47.766990000" lon="0.527600000">
        <ele>115.000000</ele>
        <time>2023-06-13T12:37:45Z</time>
      </trkpt>
      <trkpt lat="47.766960000" lon="0.527830000">
        <ele>115.000000</ele>
        <time>2023-06-13T12:37:58Z</time>
      </trkpt>
      <trkpt lat="47.766960000" lon="0.527930000">
        <ele>115.000000</ele>
        <time>2023-06-13T12:38:02Z</time>
      </trkpt>
      <trkpt lat="47.766980000" lon="0.527970000">
        <ele>115.000000</ele>
        <time>2023-06-13T12:38:04Z</time>
      </trkpt>
      <trkpt lat="47.766990000" lon="0.528020000">
        <ele>116.000000</ele>
        <time>2023-06-13T12:38:06Z</time>
      </trkpt>
      <trkpt lat="47.766990000" lon="0.528070000">
        <ele>117.000000</ele>
        <time>2023-06-13T12:38:09Z</time>
      </trkpt>
      <trkpt lat="47.767000000" lon="0.528120000">
        <ele>117.000000</ele>
        <time>2023-06-13T12:38:11Z</time>
      </trkpt>
      <trkpt lat="47.767000000" lon="0.528200000">
        <ele>119.000000</ele>
        <time>2023-06-13T12:38:15Z</time>
      </trkpt>
      <trkpt lat="47.767020000" lon="0.528290000">
        <ele>118.000000</ele>
        <time>2023-06-13T12:38:19Z</time>
      </trkpt>
      <trkpt lat="47.767020000" lon="0.528330000">
        <ele>118.000000</ele>
        <time>2023-06-13T12:38:22Z</time>
      </trkpt>
      <trkpt lat="47.767040000" lon="0.528400000">
        <ele>119.000000</ele>
        <time>2023-06-13T12:38:27Z</time>
      </trkpt>
      <trkpt lat="47.767100000" lon="0.528470000">
        <ele>118.000000</ele>
        <time>2023-06-13T12:38:33Z</time>
      </trkpt>
      <trkpt lat="47.767160000" lon="0.528490000">
        <ele>117.000000</ele>
        <time>2023-06-13T12:38:37Z</time>
      </trkpt>
      <trkpt lat="47.767260000" lon="0.528500000">
        <ele>116.000000</ele>
        <time>2023-06-13T12:38:44Z</time>
      </trkpt>
      <trkpt lat="47.767410000" lon="0.528430000">
        <ele>116.000000</ele>
        <time>2023-06-13T12:38:55Z</time>
      </trkpt>
      <trkpt lat="47.767480000" lon="0.528410000">
        <ele>115.000000</ele>
        <time>2023-06-13T12:39:01Z</time>
      </trkpt>
      <trkpt lat="47.767520000" lon="0.528410000">
        <ele>114.000000</ele>
        <time>2023-06-13T12:39:04Z</time>
      </trkpt>
      <trkpt lat="47.767580000" lon="0.528390000">
        <ele>113.000000</ele>
        <time>2023-06-13T12:39:08Z</time>
      </trkpt>
      <trkpt lat="47.767790000" lon="0.528370000">
        <ele>113.000000</ele>
        <time>2023-06-13T12:39:24Z</time>
      </trkpt>
      <trkpt lat="47.767820000" lon="0.528380000">
        <ele>112.000000</ele>
        <time>2023-06-13T12:39:27Z</time>
      </trkpt>
      <trkpt lat="47.767850000" lon="0.528410000">
        <ele>112.000000</ele>
        <time>2023-06-13T12:39:30Z</time>
      </trkpt>
      <trkpt lat="47.767930000" lon="0.528580000">
        <ele>110.000000</ele>
        <time>2023-06-13T12:39:42Z</time>
      </trkpt>
      <trkpt lat="47.767980000" lon="0.528640000">
        <ele>109.000000</ele>
        <time>2023-06-13T12:39:48Z</time>
      </trkpt>
      <trkpt lat="47.768050000" lon="0.528670000">
        <ele>106.000000</ele>
        <time>2023-06-13T12:39:55Z</time>
      </trkpt>
      <trkpt lat="47.768280000" lon="0.528700000">
        <ele>101.000000</ele>
        <time>2023-06-13T12:40:18Z</time>
      </trkpt>
      <trkpt lat="47.768380000" lon="0.528700000">
        <ele>98.000000</ele>
        <time>2023-06-13T12:40:29Z</time>
      </trkpt>
      <trkpt lat="47.768440000" lon="0.528680000">
        <ele>95.000000</ele>
        <time>2023-06-13T12:40:33Z</time>
      </trkpt>
      <trkpt lat="47.768470000" lon="0.528640000">
        <ele>94.000000</ele>
        <time>2023-06-13T12:40:36Z</time>
      </trkpt>
      <trkpt lat="47.768570000" lon="0.528360000">
        <ele>93.000000</ele>
        <time>2023-06-13T12:40:53Z</time>
      </trkpt>
      <trkpt lat="47.768610000" lon="0.528280000">
        <ele>93.000000</ele>
        <time>2023-06-13T12:40:59Z</time>
      </trkpt>
      <trkpt lat="47.768730000" lon="0.528110000">
        <ele>91.000000</ele>
        <time>2023-06-13T12:41:12Z</time>
      </trkpt>
      <trkpt lat="47.768810000" lon="0.528020000">
        <ele>90.000000</ele>
        <time>2023-06-13T12:41:20Z</time>
      </trkpt>
      <trkpt lat="47.768840000" lon="0.528000000">
        <ele>90.000000</ele>
        <time>2023-06-13T12:41:23Z</time>
      </trkpt>
      <trkpt lat="47.768870000" lon="0.528010000">
        <ele>90.000000</ele>
        <time>2023-06-13T12:41:26Z</time>
      </trkpt>
      <trkpt lat="47.768890000" lon="0.528050000">
        <ele>90.000000</ele>
        <time>2023-06-13T12:41:29Z</time>
      </trkpt>
      <trkpt lat="47.768920000" lon="0.528200000">
        <ele>90.000000</ele>
        <time>2023-06-13T12:41:37Z</time>
      </trkpt>
      <trkpt lat="47.768920000" lon="0.528290000">
        <ele>90.000000</ele>
        <time>2023-06-13T12:41:41Z</time>
      </trkpt>
      <trkpt lat="47.768910000" lon="0.528330000">
        <ele>90.000000</ele>
        <time>2023-06-13T12:41:43Z</time>
      </trkpt>
      <trkpt lat="47.768910000" lon="0.528390000">
        <ele>90.000000</ele>
        <time>2023-06-13T12:41:46Z</time>
      </trkpt>
      <trkpt lat="47.768900000" lon="0.528430000">
        <ele>90.000000</ele>
        <time>2023-06-13T12:41:48Z</time>
      </trkpt>
      <trkpt lat="47.768900000" lon="0.528670000">
        <ele>90.000000</ele>
        <time>2023-06-13T12:42:00Z</time>
      </trkpt>
      <trkpt lat="47.768880000" lon="0.528710000">
        <ele>89.000000</ele>
        <time>2023-06-13T12:42:10Z</time>
      </trkpt>
      <trkpt lat="47.768890000" lon="0.528740000">
        <ele>89.000000</ele>
        <time>2023-06-13T12:42:24Z</time>
      </trkpt>
      <trkpt lat="47.768900000" lon="0.528880000">
        <ele>90.000000</ele>
        <time>2023-06-13T12:43:52Z</time>
      </trkpt>
      <trkpt lat="47.768890000" lon="0.528930000">
        <ele>89.000000</ele>
        <time>2023-06-13T12:43:55Z</time>
      </trkpt>
      <trkpt lat="47.768890000" lon="0.529030000">
        <ele>88.000000</ele>
        <time>2023-06-13T12:44:01Z</time>
      </trkpt>
      <trkpt lat="47.768900000" lon="0.529070000">
        <ele>88.000000</ele>
        <time>2023-06-13T12:44:06Z</time>
      </trkpt>
      <trkpt lat="47.768890000" lon="0.529110000">
        <ele>90.000000</ele>
        <time>2023-06-13T12:44:55Z</time>
      </trkpt>
      <trkpt lat="47.768890000" lon="0.529260000">
        <ele>89.000000</ele>
        <time>2023-06-13T12:45:04Z</time>
      </trkpt>
      <trkpt lat="47.768880000" lon="0.529310000">
        <ele>88.000000</ele>
        <time>2023-06-13T12:45:07Z</time>
      </trkpt>
      <trkpt lat="47.768880000" lon="0.529360000">
        <ele>87.000000</ele>
        <time>2023-06-13T12:45:10Z</time>
      </trkpt>
      <trkpt lat="47.768860000" lon="0.529460000">
        <ele>86.000000</ele>
        <time>2023-06-13T12:45:15Z</time>
      </trkpt>
      <trkpt lat="47.768860000" lon="0.529500000">
        <ele>85.000000</ele>
        <time>2023-06-13T12:45:17Z</time>
      </trkpt>
      <trkpt lat="47.768850000" lon="0.529540000">
        <ele>85.000000</ele>
        <time>2023-06-13T12:45:19Z</time>
      </trkpt>
      <trkpt lat="47.768850000" lon="0.529590000">
        <ele>85.000000</ele>
        <time>2023-06-13T12:45:22Z</time>
      </trkpt>
      <trkpt lat="47.768830000" lon="0.529690000">
        <ele>85.000000</ele>
        <time>2023-06-13T12:45:26Z</time>
      </trkpt>
      <trkpt lat="47.768830000" lon="0.529730000">
        <ele>85.000000</ele>
        <time>2023-06-13T12:45:28Z</time>
      </trkpt>
      <trkpt lat="47.768810000" lon="0.529830000">
        <ele>86.000000</ele>
        <time>2023-06-13T12:45:33Z</time>
      </trkpt>
      <trkpt lat="47.768810000" lon="0.530020000">
        <ele>85.000000</ele>
        <time>2023-06-13T12:45:42Z</time>
      </trkpt>
      <trkpt lat="47.768770000" lon="0.530190000">
        <ele>85.000000</ele>
        <time>2023-06-13T12:45:51Z</time>
      </trkpt>
      <trkpt lat="47.768770000" lon="0.530240000">
        <ele>85.000000</ele>
        <time>2023-06-13T12:45:54Z</time>
      </trkpt>
      <trkpt lat="47.768750000" lon="0.530350000">
        <ele>85.000000</ele>
        <time>2023-06-13T12:46:00Z</time>
      </trkpt>
      <trkpt lat="47.768730000" lon="0.530390000">
        <ele>84.000000</ele>
        <time>2023-06-13T12:46:02Z</time>
      </trkpt>
      <trkpt lat="47.768730000" lon="0.530450000">
        <ele>83.000000</ele>
        <time>2023-06-13T12:46:05Z</time>
      </trkpt>
      <trkpt lat="47.768720000" lon="0.530500000">
        <ele>83.000000</ele>
        <time>2023-06-13T12:46:07Z</time>
      </trkpt>
      <trkpt lat="47.768720000" lon="0.530680000">
        <ele>82.000000</ele>
        <time>2023-06-13T12:46:15Z</time>
      </trkpt>
      <trkpt lat="47.768730000" lon="0.530730000">
        <ele>82.000000</ele>
        <time>2023-06-13T12:46:17Z</time>
      </trkpt>
      <trkpt lat="47.768730000" lon="0.530780000">
        <ele>82.000000</ele>
        <time>2023-06-13T12:46:19Z</time>
      </trkpt>
      <trkpt lat="47.768810000" lon="0.530980000">
        <ele>84.000000</ele>
        <time>2023-06-13T12:46:30Z</time>
      </trkpt>
      <trkpt lat="47.768840000" lon="0.531140000">
        <ele>86.000000</ele>
        <time>2023-06-13T12:46:37Z</time>
      </trkpt>
      <trkpt lat="47.768880000" lon="0.531220000">
        <ele>86.000000</ele>
        <time>2023-06-13T12:46:41Z</time>
      </trkpt>
      <trkpt lat="47.768890000" lon="0.531260000">
        <ele>86.000000</ele>
        <time>2023-06-13T12:46:43Z</time>
      </trkpt>
      <trkpt lat="47.768990000" lon="0.531460000">
        <ele>84.000000</ele>
        <time>2023-06-13T12:46:54Z</time>
      </trkpt>
      <trkpt lat="47.768990000" lon="0.531510000">
        <ele>84.000000</ele>
        <time>2023-06-13T12:46:57Z</time>
      </trkpt>
      <trkpt lat="47.769020000" lon="0.531640000">
        <ele>82.000000</ele>
        <time>2023-06-13T12:47:05Z</time>
      </trkpt>
      <trkpt lat="47.769020000" lon="0.531680000">
        <ele>82.000000</ele>
        <time>2023-06-13T12:47:08Z</time>
      </trkpt>
      <trkpt lat="47.769050000" lon="0.531820000">
        <ele>80.000000</ele>
        <time>2023-06-13T12:47:15Z</time>
      </trkpt>
      <trkpt lat="47.769110000" lon="0.531940000">
        <ele>78.000000</ele>
        <time>2023-06-13T12:47:23Z</time>
      </trkpt>
      <trkpt lat="47.769130000" lon="0.532030000">
        <ele>76.000000</ele>
        <time>2023-06-13T12:47:28Z</time>
      </trkpt>
      <trkpt lat="47.769150000" lon="0.532080000">
        <ele>75.000000</ele>
        <time>2023-06-13T12:47:31Z</time>
      </trkpt>
      <trkpt lat="47.769190000" lon="0.532240000">
        <ele>73.000000</ele>
        <time>2023-06-13T12:47:39Z</time>
      </trkpt>
      <trkpt lat="47.769230000" lon="0.532310000">
        <ele>72.000000</ele>
        <time>2023-06-13T12:47:43Z</time>
      </trkpt>
      <trkpt lat="47.769270000" lon="0.532420000">
        <ele>70.000000</ele>
        <time>2023-06-13T12:47:49Z</time>
      </trkpt>
      <trkpt lat="47.769310000" lon="0.532490000">
        <ele>69.000000</ele>
        <time>2023-06-13T12:47:53Z</time>
      </trkpt>
      <trkpt lat="47.769320000" lon="0.532540000">
        <ele>69.000000</ele>
        <time>2023-06-13T12:47:56Z</time>
      </trkpt>
      <trkpt lat="47.769420000" lon="0.532800000">
        <ele>68.000000</ele>
        <time>2023-06-13T12:48:10Z</time>
      </trkpt>
      <trkpt lat="47.769440000" lon="0.532880000">
        <ele>68.000000</ele>
        <time>2023-06-13T12:48:14Z</time>
      </trkpt>
      <trkpt lat="47.769510000" lon="0.533020000">
        <ele>67.000000</ele>
        <time>2023-06-13T12:48:23Z</time>
      </trkpt>
      <trkpt lat="47.769530000" lon="0.533090000">
        <ele>66.000000</ele>
        <time>2023-06-13T12:48:27Z</time>
      </trkpt>
      <trkpt lat="47.769570000" lon="0.533170000">
        <ele>66.000000</ele>
        <time>2023-06-13T12:48:32Z</time>
      </trkpt>
      <trkpt lat="47.769620000" lon="0.533350000">
        <ele>67.000000</ele>
        <time>2023-06-13T12:48:42Z</time>
      </trkpt>
      <trkpt lat="47.769680000" lon="0.533520000">
        <ele>67.000000</ele>
        <time>2023-06-13T12:48:51Z</time>
      </trkpt>
      <trkpt lat="47.769760000" lon="0.533610000">
        <ele>66.000000</ele>
        <time>2023-06-13T12:48:59Z</time>
      </trkpt>
      <trkpt lat="47.769930000" lon="0.533680000">
        <ele>66.000000</ele>
        <time>2023-06-13T12:49:11Z</time>
      </trkpt>
      <trkpt lat="47.769990000" lon="0.533740000">
        <ele>67.000000</ele>
        <time>2023-06-13T12:49:17Z</time>
      </trkpt>
      <trkpt lat="47.770030000" lon="0.533810000">
        <ele>66.000000</ele>
        <time>2023-06-13T12:49:21Z</time>
      </trkpt>
      <trkpt lat="47.770060000" lon="0.533890000">
        <ele>66.000000</ele>
        <time>2023-06-13T12:49:27Z</time>
      </trkpt>
      <trkpt lat="47.770070000" lon="0.533940000">
        <ele>65.000000</ele>
        <time>2023-06-13T12:49:30Z</time>
      </trkpt>
      <trkpt lat="47.770070000" lon="0.534120000">
        <ele>64.000000</ele>
        <time>2023-06-13T12:49:38Z</time>
      </trkpt>
      <trkpt lat="47.770050000" lon="0.534260000">
        <ele>65.000000</ele>
        <time>2023-06-13T12:49:45Z</time>
      </trkpt>
      <trkpt lat="47.770050000" lon="0.534310000">
        <ele>64.000000</ele>
        <time>2023-06-13T12:49:48Z</time>
      </trkpt>
      <trkpt lat="47.769990000" lon="0.534590000">
        <ele>64.000000</ele>
        <time>2023-06-13T12:50:02Z</time>
      </trkpt>
      <trkpt lat="47.769990000" lon="0.534640000">
        <ele>64.000000</ele>
        <time>2023-06-13T12:50:05Z</time>
      </trkpt>
      <trkpt lat="47.769960000" lon="0.534780000">
        <ele>65.000000</ele>
        <time>2023-06-13T12:50:12Z</time>
      </trkpt>
      <trkpt lat="47.769960000" lon="0.534830000">
        <ele>65.000000</ele>
        <time>2023-06-13T12:50:14Z</time>
      </trkpt>
      <trkpt lat="47.769950000" lon="0.534870000">
        <ele>65.000000</ele>
        <time>2023-06-13T12:50:16Z</time>
      </trkpt>
      <trkpt lat="47.769950000" lon="0.534920000">
        <ele>64.000000</ele>
        <time>2023-06-13T12:50:19Z</time>
      </trkpt>
      <trkpt lat="47.769910000" lon="0.535120000">
        <ele>63.000000</ele>
        <time>2023-06-13T12:50:30Z</time>
      </trkpt>
      <trkpt lat="47.769910000" lon="0.535170000">
        <ele>63.000000</ele>
        <time>2023-06-13T12:50:32Z</time>
      </trkpt>
      <trkpt lat="47.769890000" lon="0.535280000">
        <ele>64.000000</ele>
        <time>2023-06-13T12:50:38Z</time>
      </trkpt>
      <trkpt lat="47.769890000" lon="0.535340000">
        <ele>64.000000</ele>
        <time>2023-06-13T12:50:41Z</time>
      </trkpt>
      <trkpt lat="47.769870000" lon="0.535430000">
        <ele>65.000000</ele>
        <time>2023-06-13T12:50:45Z</time>
      </trkpt>
      <trkpt lat="47.769870000" lon="0.535470000">
        <ele>65.000000</ele>
        <time>2023-06-13T12:50:47Z</time>
      </trkpt>
      <trkpt lat="47.769850000" lon="0.535520000">
        <ele>66.000000</ele>
        <time>2023-06-13T12:50:50Z</time>
      </trkpt>
      <trkpt lat="47.769840000" lon="0.535610000">
        <ele>66.000000</ele>
        <time>2023-06-13T12:50:54Z</time>
      </trkpt>
      <trkpt lat="47.769750000" lon="0.536030000">
        <ele>69.000000</ele>
        <time>2023-06-13T12:51:20Z</time>
      </trkpt>
      <trkpt lat="47.769750000" lon="0.536280000">
        <ele>69.000000</ele>
        <time>2023-06-13T12:51:31Z</time>
      </trkpt>
      <trkpt lat="47.769760000" lon="0.536330000">
        <ele>69.000000</ele>
        <time>2023-06-13T12:51:33Z</time>
      </trkpt>
      <trkpt lat="47.769760000" lon="0.536430000">
        <ele>69.000000</ele>
        <time>2023-06-13T12:51:39Z</time>
      </trkpt>
      <trkpt lat="47.769770000" lon="0.536490000">
        <ele>68.000000</ele>
        <time>2023-06-13T12:51:42Z</time>
      </trkpt>
      <trkpt lat="47.769770000" lon="0.536770000">
        <ele>64.000000</ele>
        <time>2023-06-13T12:51:56Z</time>
      </trkpt>
      <trkpt lat="47.769760000" lon="0.536810000">
        <ele>64.000000</ele>
        <time>2023-06-13T12:51:58Z</time>
      </trkpt>
      <trkpt lat="47.769760000" lon="0.536870000">
        <ele>64.000000</ele>
        <time>2023-06-13T12:52:01Z</time>
      </trkpt>
      <trkpt lat="47.769770000" lon="0.536920000">
        <ele>63.000000</ele>
        <time>2023-06-13T12:52:04Z</time>
      </trkpt>
      <trkpt lat="47.769770000" lon="0.536980000">
        <ele>63.000000</ele>
        <time>2023-06-13T12:52:07Z</time>
      </trkpt>
      <trkpt lat="47.769780000" lon="0.537020000">
        <ele>64.000000</ele>
        <time>2023-06-13T12:52:09Z</time>
      </trkpt>
      <trkpt lat="47.769780000" lon="0.537070000">
        <ele>65.000000</ele>
        <time>2023-06-13T12:52:11Z</time>
      </trkpt>
      <trkpt lat="47.769800000" lon="0.537150000">
        <ele>65.000000</ele>
        <time>2023-06-13T12:52:15Z</time>
      </trkpt>
      <trkpt lat="47.769800000" lon="0.537440000">
        <ele>63.000000</ele>
        <time>2023-06-13T12:52:31Z</time>
      </trkpt>
      <trkpt lat="47.769810000" lon="0.537490000">
        <ele>63.000000</ele>
        <time>2023-06-13T12:52:33Z</time>
      </trkpt>
      <trkpt lat="47.769810000" lon="0.537630000">
        <ele>65.000000</ele>
        <time>2023-06-13T12:52:39Z</time>
      </trkpt>
      <trkpt lat="47.769820000" lon="0.537680000">
        <ele>66.000000</ele>
        <time>2023-06-13T12:52:41Z</time>
      </trkpt>
      <trkpt lat="47.769820000" lon="0.538040000">
        <ele>67.000000</ele>
        <time>2023-06-13T12:53:01Z</time>
      </trkpt>
      <trkpt lat="47.769830000" lon="0.538090000">
        <ele>66.000000</ele>
        <time>2023-06-13T12:53:04Z</time>
      </trkpt>
      <trkpt lat="47.769830000" lon="0.538140000">
        <ele>65.000000</ele>
        <time>2023-06-13T12:53:06Z</time>
      </trkpt>
      <trkpt lat="47.769840000" lon="0.538180000">
        <ele>65.000000</ele>
        <time>2023-06-13T12:53:08Z</time>
      </trkpt>
      <trkpt lat="47.769840000" lon="0.538290000">
        <ele>65.000000</ele>
        <time>2023-06-13T12:53:14Z</time>
      </trkpt>
      <trkpt lat="47.769860000" lon="0.538450000">
        <ele>64.000000</ele>
        <time>2023-06-13T12:53:22Z</time>
      </trkpt>
      <trkpt lat="47.769860000" lon="0.538540000">
        <ele>65.000000</ele>
        <time>2023-06-13T12:53:26Z</time>
      </trkpt>
      <trkpt lat="47.769870000" lon="0.538590000">
        <ele>65.000000</ele>
        <time>2023-06-13T12:53:29Z</time>
      </trkpt>
      <trkpt lat="47.769870000" lon="0.538640000">
        <ele>65.000000</ele>
        <time>2023-06-13T12:53:31Z</time>
      </trkpt>
      <trkpt lat="47.769880000" lon="0.538680000">
        <ele>65.000000</ele>
        <time>2023-06-13T12:53:33Z</time>
      </trkpt>
      <trkpt lat="47.769880000" lon="0.538770000">
        <ele>64.000000</ele>
        <time>2023-06-13T12:53:37Z</time>
      </trkpt>
      <trkpt lat="47.769870000" lon="0.538820000">
        <ele>64.000000</ele>
        <time>2023-06-13T12:53:39Z</time>
      </trkpt>
      <trkpt lat="47.769870000" lon="0.539030000">
        <ele>64.000000</ele>
        <time>2023-06-13T12:53:50Z</time>
      </trkpt>
      <trkpt lat="47.769880000" lon="0.539090000">
        <ele>64.000000</ele>
        <time>2023-06-13T12:53:53Z</time>
      </trkpt>
      <trkpt lat="47.769880000" lon="0.539280000">
        <ele>63.000000</ele>
        <time>2023-06-13T12:54:03Z</time>
      </trkpt>
      <trkpt lat="47.769890000" lon="0.539330000">
        <ele>63.000000</ele>
        <time>2023-06-13T12:54:05Z</time>
      </trkpt>
      <trkpt lat="47.769890000" lon="0.539520000">
        <ele>62.000000</ele>
        <time>2023-06-13T12:54:15Z</time>
      </trkpt>
      <trkpt lat="47.769900000" lon="0.539570000">
        <ele>62.000000</ele>
        <time>2023-06-13T12:54:17Z</time>
      </trkpt>
      <trkpt lat="47.769900000" lon="0.539680000">
        <ele>63.000000</ele>
        <time>2023-06-13T12:54:22Z</time>
      </trkpt>
      <trkpt lat="47.769890000" lon="0.539720000">
        <ele>63.000000</ele>
        <time>2023-06-13T12:54:24Z</time>
      </trkpt>
      <trkpt lat="47.769900000" lon="0.539770000">
        <ele>63.000000</ele>
        <time>2023-06-13T12:54:26Z</time>
      </trkpt>
      <trkpt lat="47.769900000" lon="0.539850000">
        <ele>63.000000</ele>
        <time>2023-06-13T12:54:31Z</time>
      </trkpt>
      <trkpt lat="47.769910000" lon="0.539900000">
        <ele>63.000000</ele>
        <time>2023-06-13T12:54:33Z</time>
      </trkpt>
      <trkpt lat="47.769910000" lon="0.540150000">
        <ele>65.000000</ele>
        <time>2023-06-13T12:54:47Z</time>
      </trkpt>
      <trkpt lat="47.769920000" lon="0.540200000">
        <ele>66.000000</ele>
        <time>2023-06-13T12:54:49Z</time>
      </trkpt>
      <trkpt lat="47.769920000" lon="0.540560000">
        <ele>65.000000</ele>
        <time>2023-06-13T12:55:08Z</time>
      </trkpt>
      <trkpt lat="47.769930000" lon="0.540610000">
        <ele>65.000000</ele>
        <time>2023-06-13T12:55:11Z</time>
      </trkpt>
      <trkpt lat="47.769930000" lon="0.540760000">
        <ele>65.000000</ele>
        <time>2023-06-13T12:55:19Z</time>
      </trkpt>
      <trkpt lat="47.769910000" lon="0.540860000">
        <ele>65.000000</ele>
        <time>2023-06-13T12:55:25Z</time>
      </trkpt>
      <trkpt lat="47.769910000" lon="0.540970000">
        <ele>66.000000</ele>
        <time>2023-06-13T12:55:31Z</time>
      </trkpt>
      <trkpt lat="47.769890000" lon="0.541070000">
        <ele>68.000000</ele>
        <time>2023-06-13T12:55:35Z</time>
      </trkpt>
      <trkpt lat="47.769890000" lon="0.541120000">
        <ele>68.000000</ele>
        <time>2023-06-13T12:55:38Z</time>
      </trkpt>
      <trkpt lat="47.769840000" lon="0.541240000">
        <ele>69.000000</ele>
        <time>2023-06-13T12:55:48Z</time>
      </trkpt>
      <trkpt lat="47.769830000" lon="0.541290000">
        <ele>69.000000</ele>
        <time>2023-06-13T12:55:51Z</time>
      </trkpt>
      <trkpt lat="47.769800000" lon="0.541320000">
        <ele>69.000000</ele>
        <time>2023-06-13T12:55:53Z</time>
      </trkpt>
      <trkpt lat="47.769720000" lon="0.541350000">
        <ele>70.000000</ele>
        <time>2023-06-13T12:56:00Z</time>
      </trkpt>
      <trkpt lat="47.769590000" lon="0.541350000">
        <ele>68.000000</ele>
        <time>2023-06-13T12:56:09Z</time>
      </trkpt>
      <trkpt lat="47.769400000" lon="0.541400000">
        <ele>70.000000</ele>
        <time>2023-06-13T12:56:23Z</time>
      </trkpt>
      <trkpt lat="47.769140000" lon="0.541420000">
        <ele>69.000000</ele>
        <time>2023-06-13T12:56:42Z</time>
      </trkpt>
      <trkpt lat="47.768970000" lon="0.541470000">
        <ele>70.000000</ele>
        <time>2023-06-13T12:56:54Z</time>
      </trkpt>
      <trkpt lat="47.768940000" lon="0.541470000">
        <ele>70.000000</ele>
        <time>2023-06-13T12:56:57Z</time>
      </trkpt>
      <trkpt lat="47.768900000" lon="0.541490000">
        <ele>69.000000</ele>
        <time>2023-06-13T12:57:00Z</time>
      </trkpt>
      <trkpt lat="47.768790000" lon="0.541500000">
        <ele>69.000000</ele>
        <time>2023-06-13T12:57:08Z</time>
      </trkpt>
      <trkpt lat="47.768660000" lon="0.541530000">
        <ele>68.000000</ele>
        <time>2023-06-13T12:57:19Z</time>
      </trkpt>
      <trkpt lat="47.768590000" lon="0.541560000">
        <ele>67.000000</ele>
        <time>2023-06-13T12:57:25Z</time>
      </trkpt>
      <trkpt lat="47.768440000" lon="0.541570000">
        <ele>67.000000</ele>
        <time>2023-06-13T12:57:35Z</time>
      </trkpt>
      <trkpt lat="47.768240000" lon="0.541610000">
        <ele>68.000000</ele>
        <time>2023-06-13T12:57:50Z</time>
      </trkpt>
      <trkpt lat="47.768210000" lon="0.541640000">
        <ele>68.000000</ele>
        <time>2023-06-13T12:57:53Z</time>
      </trkpt>
      <trkpt lat="47.768190000" lon="0.541730000">
        <ele>68.000000</ele>
        <time>2023-06-13T12:57:58Z</time>
      </trkpt>
      <trkpt lat="47.768190000" lon="0.541820000">
        <ele>68.000000</ele>
        <time>2023-06-13T12:58:03Z</time>
      </trkpt>
      <trkpt lat="47.768210000" lon="0.541980000">
        <ele>69.000000</ele>
        <time>2023-06-13T12:58:11Z</time>
      </trkpt>
      <trkpt lat="47.768210000" lon="0.542060000">
        <ele>69.000000</ele>
        <time>2023-06-13T12:58:15Z</time>
      </trkpt>
      <trkpt lat="47.768220000" lon="0.542110000">
        <ele>69.000000</ele>
        <time>2023-06-13T12:58:18Z</time>
      </trkpt>
      <trkpt lat="47.768220000" lon="0.542160000">
        <ele>69.000000</ele>
        <time>2023-06-13T12:58:21Z</time>
      </trkpt>
      <trkpt lat="47.768230000" lon="0.542200000">
        <ele>68.000000</ele>
        <time>2023-06-13T12:58:23Z</time>
      </trkpt>
      <trkpt lat="47.768230000" lon="0.542350000">
        <ele>69.000000</ele>
        <time>2023-06-13T12:58:30Z</time>
      </trkpt>
      <trkpt lat="47.768240000" lon="0.542400000">
        <ele>69.000000</ele>
        <time>2023-06-13T12:58:33Z</time>
      </trkpt>
      <trkpt lat="47.768240000" lon="0.542520000">
        <ele>70.000000</ele>
        <time>2023-06-13T12:58:40Z</time>
      </trkpt>
      <trkpt lat="47.768260000" lon="0.542680000">
        <ele>71.000000</ele>
        <time>2023-06-13T12:58:49Z</time>
      </trkpt>
      <trkpt lat="47.768260000" lon="0.542820000">
        <ele>72.000000</ele>
        <time>2023-06-13T12:58:55Z</time>
      </trkpt>
      <trkpt lat="47.768270000" lon="0.542870000">
        <ele>73.000000</ele>
        <time>2023-06-13T12:58:58Z</time>
      </trkpt>
      <trkpt lat="47.768270000" lon="0.543020000">
        <ele>74.000000</ele>
        <time>2023-06-13T12:59:07Z</time>
      </trkpt>
      <trkpt lat="47.768280000" lon="0.543070000">
        <ele>75.000000</ele>
        <time>2023-06-13T12:59:10Z</time>
      </trkpt>
      <trkpt lat="47.768280000" lon="0.543170000">
        <ele>76.000000</ele>
        <time>2023-06-13T12:59:16Z</time>
      </trkpt>
      <trkpt lat="47.768290000" lon="0.543220000">
        <ele>77.000000</ele>
        <time>2023-06-13T12:59:19Z</time>
      </trkpt>
      <trkpt lat="47.768290000" lon="0.543280000">
        <ele>78.000000</ele>
        <time>2023-06-13T12:59:22Z</time>
      </trkpt>
      <trkpt lat="47.768300000" lon="0.543320000">
        <ele>79.000000</ele>
        <time>2023-06-13T12:59:25Z</time>
      </trkpt>
      <trkpt lat="47.768300000" lon="0.543470000">
        <ele>80.000000</ele>
        <time>2023-06-13T12:59:33Z</time>
      </trkpt>
      <trkpt lat="47.768310000" lon="0.543510000">
        <ele>80.000000</ele>
        <time>2023-06-13T12:59:36Z</time>
      </trkpt>
      <trkpt lat="47.768310000" lon="0.543560000">
        <ele>80.000000</ele>
        <time>2023-06-13T12:59:39Z</time>
      </trkpt>
      <trkpt lat="47.768320000" lon="0.543600000">
        <ele>81.000000</ele>
        <time>2023-06-13T12:59:42Z</time>
      </trkpt>
      <trkpt lat="47.768320000" lon="0.543650000">
        <ele>82.000000</ele>
        <time>2023-06-13T12:59:45Z</time>
      </trkpt>
      <trkpt lat="47.768330000" lon="0.543690000">
        <ele>83.000000</ele>
        <time>2023-06-13T12:59:48Z</time>
      </trkpt>
      <trkpt lat="47.768330000" lon="0.543790000">
        <ele>84.000000</ele>
        <time>2023-06-13T12:59:54Z</time>
      </trkpt>
      <trkpt lat="47.768310000" lon="0.543880000">
        <ele>84.000000</ele>
        <time>2023-06-13T13:00:00Z</time>
      </trkpt>
      <trkpt lat="47.768260000" lon="0.543940000">
        <ele>88.000000</ele>
        <time>2023-06-13T13:00:07Z</time>
      </trkpt>
      <trkpt lat="47.768170000" lon="0.544120000">
        <ele>91.000000</ele>
        <time>2023-06-13T13:00:39Z</time>
      </trkpt>
      <trkpt lat="47.768140000" lon="0.544150000">
        <ele>91.000000</ele>
        <time>2023-06-13T13:00:42Z</time>
      </trkpt>
      <trkpt lat="47.768070000" lon="0.544260000">
        <ele>91.000000</ele>
        <time>2023-06-13T13:00:50Z</time>
      </trkpt>
      <trkpt lat="47.767930000" lon="0.544540000">
        <ele>92.000000</ele>
        <time>2023-06-13T13:01:09Z</time>
      </trkpt>
      <trkpt lat="47.767840000" lon="0.544650000">
        <ele>94.000000</ele>
        <time>2023-06-13T13:01:17Z</time>
      </trkpt>
      <trkpt lat="47.767700000" lon="0.544870000">
        <ele>96.000000</ele>
        <time>2023-06-13T13:01:33Z</time>
      </trkpt>
      <trkpt lat="47.767620000" lon="0.545020000">
        <ele>99.000000</ele>
        <time>2023-06-13T13:01:43Z</time>
      </trkpt>
      <trkpt lat="47.767490000" lon="0.545180000">
        <ele>102.000000</ele>
        <time>2023-06-13T13:01:58Z</time>
      </trkpt>
      <trkpt lat="47.767410000" lon="0.545250000">
        <ele>103.000000</ele>
        <time>2023-06-13T13:02:06Z</time>
      </trkpt>
      <trkpt lat="47.767390000" lon="0.545290000">
        <ele>103.000000</ele>
        <time>2023-06-13T13:02:09Z</time>
      </trkpt>
      <trkpt lat="47.767360000" lon="0.545320000">
        <ele>104.000000</ele>
        <time>2023-06-13T13:02:12Z</time>
      </trkpt>
      <trkpt lat="47.767370000" lon="0.545370000">
        <ele>107.000000</ele>
        <time>2023-06-13T13:02:53Z</time>
      </trkpt>
      <trkpt lat="47.767270000" lon="0.545850000">
        <ele>107.000000</ele>
        <time>2023-06-13T13:03:18Z</time>
      </trkpt>
      <trkpt lat="47.767270000" lon="0.545940000">
        <ele>107.000000</ele>
        <time>2023-06-13T13:03:23Z</time>
      </trkpt>
      <trkpt lat="47.767220000" lon="0.546180000">
        <ele>106.000000</ele>
        <time>2023-06-13T13:03:36Z</time>
      </trkpt>
      <trkpt lat="47.767220000" lon="0.546230000">
        <ele>106.000000</ele>
        <time>2023-06-13T13:03:38Z</time>
      </trkpt>
      <trkpt lat="47.767200000" lon="0.546320000">
        <ele>107.000000</ele>
        <time>2023-06-13T13:03:43Z</time>
      </trkpt>
      <trkpt lat="47.767200000" lon="0.546420000">
        <ele>108.000000</ele>
        <time>2023-06-13T13:03:51Z</time>
      </trkpt>
      <trkpt lat="47.767170000" lon="0.546550000">
        <ele>108.000000</ele>
        <time>2023-06-13T13:03:57Z</time>
      </trkpt>
      <trkpt lat="47.767170000" lon="0.546590000">
        <ele>108.000000</ele>
        <time>2023-06-13T13:03:59Z</time>
      </trkpt>
      <trkpt lat="47.767120000" lon="0.546820000">
        <ele>109.000000</ele>
        <time>2023-06-13T13:04:11Z</time>
      </trkpt>
      <trkpt lat="47.767120000" lon="0.546860000">
        <ele>110.000000</ele>
        <time>2023-06-13T13:04:13Z</time>
      </trkpt>
      <trkpt lat="47.767110000" lon="0.546900000">
        <ele>110.000000</ele>
        <time>2023-06-13T13:04:15Z</time>
      </trkpt>
      <trkpt lat="47.767110000" lon="0.546960000">
        <ele>111.000000</ele>
        <time>2023-06-13T13:04:18Z</time>
      </trkpt>
      <trkpt lat="47.767060000" lon="0.547170000">
        <ele>112.000000</ele>
        <time>2023-06-13T13:04:28Z</time>
      </trkpt>
      <trkpt lat="47.767040000" lon="0.547210000">
        <ele>112.000000</ele>
        <time>2023-06-13T13:04:31Z</time>
      </trkpt>
      <trkpt lat="47.767030000" lon="0.547260000">
        <ele>111.000000</ele>
        <time>2023-06-13T13:04:34Z</time>
      </trkpt>
      <trkpt lat="47.766890000" lon="0.547540000">
        <ele>110.000000</ele>
        <time>2023-06-13T13:04:50Z</time>
      </trkpt>
      <trkpt lat="47.766860000" lon="0.547680000">
        <ele>110.000000</ele>
        <time>2023-06-13T13:04:57Z</time>
      </trkpt>
      <trkpt lat="47.766840000" lon="0.547720000">
        <ele>111.000000</ele>
        <time>2023-06-13T13:04:59Z</time>
      </trkpt>
      <trkpt lat="47.766820000" lon="0.547810000">
        <ele>112.000000</ele>
        <time>2023-06-13T13:05:03Z</time>
      </trkpt>
      <trkpt lat="47.766800000" lon="0.547840000">
        <ele>112.000000</ele>
        <time>2023-06-13T13:05:05Z</time>
      </trkpt>
      <trkpt lat="47.766680000" lon="0.548170000">
        <ele>114.000000</ele>
        <time>2023-06-13T13:05:23Z</time>
      </trkpt>
      <trkpt lat="47.766640000" lon="0.548250000">
        <ele>114.000000</ele>
        <time>2023-06-13T13:05:28Z</time>
      </trkpt>
      <trkpt lat="47.766630000" lon="0.548300000">
        <ele>114.000000</ele>
        <time>2023-06-13T13:05:31Z</time>
      </trkpt>
      <trkpt lat="47.766600000" lon="0.548380000">
        <ele>114.000000</ele>
        <time>2023-06-13T13:05:35Z</time>
      </trkpt>
      <trkpt lat="47.766560000" lon="0.548450000">
        <ele>114.000000</ele>
        <time>2023-06-13T13:05:39Z</time>
      </trkpt>
      <trkpt lat="47.766460000" lon="0.548680000">
        <ele>114.000000</ele>
        <time>2023-06-13T13:05:52Z</time>
      </trkpt>
      <trkpt lat="47.766450000" lon="0.548730000">
        <ele>114.000000</ele>
        <time>2023-06-13T13:05:54Z</time>
      </trkpt>
      <trkpt lat="47.766430000" lon="0.548770000">
        <ele>115.000000</ele>
        <time>2023-06-13T13:05:56Z</time>
      </trkpt>
      <trkpt lat="47.766420000" lon="0.548820000">
        <ele>116.000000</ele>
        <time>2023-06-13T13:05:59Z</time>
      </trkpt>
      <trkpt lat="47.766310000" lon="0.549060000">
        <ele>115.000000</ele>
        <time>2023-06-13T13:06:12Z</time>
      </trkpt>
      <trkpt lat="47.766280000" lon="0.549150000">
        <ele>116.000000</ele>
        <time>2023-06-13T13:06:17Z</time>
      </trkpt>
      <trkpt lat="47.766250000" lon="0.549280000">
        <ele>117.000000</ele>
        <time>2023-06-13T13:06:23Z</time>
      </trkpt>
      <trkpt lat="47.766230000" lon="0.549310000">
        <ele>117.000000</ele>
        <time>2023-06-13T13:06:25Z</time>
      </trkpt>
      <trkpt lat="47.766180000" lon="0.549490000">
        <ele>118.000000</ele>
        <time>2023-06-13T13:06:34Z</time>
      </trkpt>
      <trkpt lat="47.766080000" lon="0.549730000">
        <ele>117.000000</ele>
        <time>2023-06-13T13:06:47Z</time>
      </trkpt>
      <trkpt lat="47.766070000" lon="0.549770000">
        <ele>117.000000</ele>
        <time>2023-06-13T13:06:49Z</time>
      </trkpt>
      <trkpt lat="47.766070000" lon="0.549810000">
        <ele>116.000000</ele>
        <time>2023-06-13T13:06:51Z</time>
      </trkpt>
      <trkpt lat="47.766060000" lon="0.549850000">
        <ele>116.000000</ele>
        <time>2023-06-13T13:06:53Z</time>
      </trkpt>
      <trkpt lat="47.766060000" lon="0.550020000">
        <ele>115.000000</ele>
        <time>2023-06-13T13:07:01Z</time>
      </trkpt>
      <trkpt lat="47.766090000" lon="0.550180000">
        <ele>115.000000</ele>
        <time>2023-06-13T13:07:09Z</time>
      </trkpt>
      <trkpt lat="47.766090000" lon="0.550270000">
        <ele>116.000000</ele>
        <time>2023-06-13T13:07:13Z</time>
      </trkpt>
      <trkpt lat="47.766120000" lon="0.550430000">
        <ele>114.000000</ele>
        <time>2023-06-13T13:07:21Z</time>
      </trkpt>
      <trkpt lat="47.766120000" lon="0.550470000">
        <ele>114.000000</ele>
        <time>2023-06-13T13:07:23Z</time>
      </trkpt>
      <trkpt lat="47.766160000" lon="0.550630000">
        <ele>113.000000</ele>
        <time>2023-06-13T13:07:31Z</time>
      </trkpt>
      <trkpt lat="47.766160000" lon="0.550680000">
        <ele>113.000000</ele>
        <time>2023-06-13T13:07:33Z</time>
      </trkpt>
      <trkpt lat="47.766250000" lon="0.551030000">
        <ele>116.000000</ele>
        <time>2023-06-13T13:07:50Z</time>
      </trkpt>
      <trkpt lat="47.766250000" lon="0.551080000">
        <ele>116.000000</ele>
        <time>2023-06-13T13:07:52Z</time>
      </trkpt>
      <trkpt lat="47.766260000" lon="0.551120000">
        <ele>117.000000</ele>
        <time>2023-06-13T13:07:54Z</time>
      </trkpt>
      <trkpt lat="47.766260000" lon="0.551160000">
        <ele>117.000000</ele>
        <time>2023-06-13T13:07:56Z</time>
      </trkpt>
      <trkpt lat="47.766280000" lon="0.551260000">
        <ele>116.000000</ele>
        <time>2023-06-13T13:08:01Z</time>
      </trkpt>
      <trkpt lat="47.766280000" lon="0.551300000">
        <ele>116.000000</ele>
        <time>2023-06-13T13:08:03Z</time>
      </trkpt>
      <trkpt lat="47.766310000" lon="0.551440000">
        <ele>114.000000</ele>
        <time>2023-06-13T13:08:10Z</time>
      </trkpt>
      <trkpt lat="47.766310000" lon="0.551490000">
        <ele>114.000000</ele>
        <time>2023-06-13T13:08:12Z</time>
      </trkpt>
      <trkpt lat="47.766330000" lon="0.551580000">
        <ele>114.000000</ele>
        <time>2023-06-13T13:08:17Z</time>
      </trkpt>
      <trkpt lat="47.766330000" lon="0.551630000">
        <ele>114.000000</ele>
        <time>2023-06-13T13:08:19Z</time>
      </trkpt>
      <trkpt lat="47.766360000" lon="0.551750000">
        <ele>115.000000</ele>
        <time>2023-06-13T13:08:25Z</time>
      </trkpt>
      <trkpt lat="47.766360000" lon="0.551800000">
        <ele>115.000000</ele>
        <time>2023-06-13T13:08:27Z</time>
      </trkpt>
      <trkpt lat="47.766380000" lon="0.551890000">
        <ele>116.000000</ele>
        <time>2023-06-13T13:08:31Z</time>
      </trkpt>
      <trkpt lat="47.766380000" lon="0.551930000">
        <ele>116.000000</ele>
        <time>2023-06-13T13:08:33Z</time>
      </trkpt>
      <trkpt lat="47.766430000" lon="0.552150000">
        <ele>115.000000</ele>
        <time>2023-06-13T13:08:44Z</time>
      </trkpt>
      <trkpt lat="47.766430000" lon="0.552200000">
        <ele>115.000000</ele>
        <time>2023-06-13T13:08:46Z</time>
      </trkpt>
      <trkpt lat="47.766450000" lon="0.552340000">
        <ele>115.000000</ele>
        <time>2023-06-13T13:08:54Z</time>
      </trkpt>
      <trkpt lat="47.766450000" lon="0.552440000">
        <ele>114.000000</ele>
        <time>2023-06-13T13:08:58Z</time>
      </trkpt>
      <trkpt lat="47.766460000" lon="0.552480000">
        <ele>114.000000</ele>
        <time>2023-06-13T13:09:00Z</time>
      </trkpt>
      <trkpt lat="47.766460000" lon="0.552620000">
        <ele>112.000000</ele>
        <time>2023-06-13T13:09:07Z</time>
      </trkpt>
      <trkpt lat="47.766440000" lon="0.552700000">
        <ele>112.000000</ele>
        <time>2023-06-13T13:09:11Z</time>
      </trkpt>
      <trkpt lat="47.766400000" lon="0.552760000">
        <ele>112.000000</ele>
        <time>2023-06-13T13:09:15Z</time>
      </trkpt>
      <trkpt lat="47.766330000" lon="0.552790000">
        <ele>112.000000</ele>
        <time>2023-06-13T13:09:21Z</time>
      </trkpt>
      <trkpt lat="47.766170000" lon="0.552890000">
        <ele>111.000000</ele>
        <time>2023-06-13T13:09:35Z</time>
      </trkpt>
      <trkpt lat="47.766080000" lon="0.552910000">
        <ele>111.000000</ele>
        <time>2023-06-13T13:09:41Z</time>
      </trkpt>
      <trkpt lat="47.766010000" lon="0.552960000">
        <ele>109.000000</ele>
        <time>2023-06-13T13:09:47Z</time>
      </trkpt>
      <trkpt lat="47.765900000" lon="0.553010000">
        <ele>107.000000</ele>
        <time>2023-06-13T13:09:56Z</time>
      </trkpt>
      <trkpt lat="47.765840000" lon="0.553020000">
        <ele>108.000000</ele>
        <time>2023-06-13T13:10:00Z</time>
      </trkpt>
      <trkpt lat="47.765720000" lon="0.553090000">
        <ele>109.000000</ele>
        <time>2023-06-13T13:10:08Z</time>
      </trkpt>
      <trkpt lat="47.765590000" lon="0.553120000">
        <ele>110.000000</ele>
        <time>2023-06-13T13:10:16Z</time>
      </trkpt>
      <trkpt lat="47.765560000" lon="0.553140000">
        <ele>110.000000</ele>
        <time>2023-06-13T13:10:18Z</time>
      </trkpt>
      <trkpt lat="47.765340000" lon="0.553170000">
        <ele>111.000000</ele>
        <time>2023-06-13T13:10:34Z</time>
      </trkpt>
      <trkpt lat="47.765310000" lon="0.553160000">
        <ele>110.000000</ele>
        <time>2023-06-13T13:10:36Z</time>
      </trkpt>
      <trkpt lat="47.765210000" lon="0.553160000">
        <ele>110.000000</ele>
        <time>2023-06-13T13:10:43Z</time>
      </trkpt>
      <trkpt lat="47.765180000" lon="0.553170000">
        <ele>110.000000</ele>
        <time>2023-06-13T13:10:46Z</time>
      </trkpt>
      <trkpt lat="47.764810000" lon="0.553150000">
        <ele>111.000000</ele>
        <time>2023-06-13T13:11:10Z</time>
      </trkpt>
      <trkpt lat="47.764740000" lon="0.553130000">
        <ele>111.000000</ele>
        <time>2023-06-13T13:11:15Z</time>
      </trkpt>
      <trkpt lat="47.764610000" lon="0.553140000">
        <ele>112.000000</ele>
        <time>2023-06-13T13:11:24Z</time>
      </trkpt>
      <trkpt lat="47.764580000" lon="0.553130000">
        <ele>113.000000</ele>
        <time>2023-06-13T13:11:26Z</time>
      </trkpt>
      <trkpt lat="47.764380000" lon="0.553130000">
        <ele>116.000000</ele>
        <time>2023-06-13T13:11:40Z</time>
      </trkpt>
      <trkpt lat="47.764270000" lon="0.553110000">
        <ele>114.000000</ele>
        <time>2023-06-13T13:11:47Z</time>
      </trkpt>
      <trkpt lat="47.763910000" lon="0.553100000">
        <ele>109.000000</ele>
        <time>2023-06-13T13:12:15Z</time>
      </trkpt>
      <trkpt lat="47.763850000" lon="0.553080000">
        <ele>109.000000</ele>
        <time>2023-06-13T13:12:20Z</time>
      </trkpt>
      <trkpt lat="47.763780000" lon="0.553040000">
        <ele>110.000000</ele>
        <time>2023-06-13T13:12:26Z</time>
      </trkpt>
      <trkpt lat="47.763740000" lon="0.553030000">
        <ele>111.000000</ele>
        <time>2023-06-13T13:12:28Z</time>
      </trkpt>
      <trkpt lat="47.763650000" lon="0.552970000">
        <ele>114.000000</ele>
        <time>2023-06-13T13:12:35Z</time>
      </trkpt>
      <trkpt lat="47.763620000" lon="0.552930000">
        <ele>114.000000</ele>
        <time>2023-06-13T13:12:38Z</time>
      </trkpt>
      <trkpt lat="47.763430000" lon="0.552810000">
        <ele>110.000000</ele>
        <time>2023-06-13T13:12:55Z</time>
      </trkpt>
      <trkpt lat="47.763400000" lon="0.552800000">
        <ele>110.000000</ele>
        <time>2023-06-13T13:12:57Z</time>
      </trkpt>
      <trkpt lat="47.763380000" lon="0.552780000">
        <ele>109.000000</ele>
        <time>2023-06-13T13:12:59Z</time>
      </trkpt>
      <trkpt lat="47.763350000" lon="0.552770000">
        <ele>109.000000</ele>
        <time>2023-06-13T13:13:01Z</time>
      </trkpt>
      <trkpt lat="47.763250000" lon="0.552690000">
        <ele>108.000000</ele>
        <time>2023-06-13T13:13:09Z</time>
      </trkpt>
      <trkpt lat="47.763150000" lon="0.552630000">
        <ele>109.000000</ele>
        <time>2023-06-13T13:13:15Z</time>
      </trkpt>
      <trkpt lat="47.763040000" lon="0.552540000">
        <ele>109.000000</ele>
        <time>2023-06-13T13:13:23Z</time>
      </trkpt>
      <trkpt lat="47.762730000" lon="0.552340000">
        <ele>109.000000</ele>
        <time>2023-06-13T13:13:47Z</time>
      </trkpt>
      <trkpt lat="47.762700000" lon="0.552310000">
        <ele>109.000000</ele>
        <time>2023-06-13T13:13:49Z</time>
      </trkpt>
      <trkpt lat="47.762480000" lon="0.552160000">
        <ele>108.000000</ele>
        <time>2023-06-13T13:14:08Z</time>
      </trkpt>
      <trkpt lat="47.762360000" lon="0.552050000">
        <ele>110.000000</ele>
        <time>2023-06-13T13:14:18Z</time>
      </trkpt>
      <trkpt lat="47.762240000" lon="0.551830000">
        <ele>109.000000</ele>
        <time>2023-06-13T13:14:33Z</time>
      </trkpt>
      <trkpt lat="47.762190000" lon="0.551720000">
        <ele>109.000000</ele>
        <time>2023-06-13T13:14:39Z</time>
      </trkpt>
      <trkpt lat="47.761970000" lon="0.551340000">
        <ele>106.000000</ele>
        <time>2023-06-13T13:15:08Z</time>
      </trkpt>
      <trkpt lat="47.761900000" lon="0.551180000">
        <ele>104.000000</ele>
        <time>2023-06-13T13:15:19Z</time>
      </trkpt>
      <trkpt lat="47.761870000" lon="0.551150000">
        <ele>104.000000</ele>
        <time>2023-06-13T13:15:21Z</time>
      </trkpt>
      <trkpt lat="47.761860000" lon="0.551110000">
        <ele>104.000000</ele>
        <time>2023-06-13T13:15:23Z</time>
      </trkpt>
      <trkpt lat="47.761830000" lon="0.551070000">
        <ele>104.000000</ele>
        <time>2023-06-13T13:15:25Z</time>
      </trkpt>
      <trkpt lat="47.761820000" lon="0.551030000">
        <ele>103.000000</ele>
        <time>2023-06-13T13:15:29Z</time>
      </trkpt>
      <trkpt lat="47.761670000" lon="0.550710000">
        <ele>105.000000</ele>
        <time>2023-06-13T13:15:46Z</time>
      </trkpt>
      <trkpt lat="47.761570000" lon="0.550530000">
        <ele>103.000000</ele>
        <time>2023-06-13T13:15:57Z</time>
      </trkpt>
      <trkpt lat="47.761560000" lon="0.550480000">
        <ele>103.000000</ele>
        <time>2023-06-13T13:16:00Z</time>
      </trkpt>
      <trkpt lat="47.761520000" lon="0.550400000">
        <ele>102.000000</ele>
        <time>2023-06-13T13:16:05Z</time>
      </trkpt>
      <trkpt lat="47.761480000" lon="0.550280000">
        <ele>102.000000</ele>
        <time>2023-06-13T13:16:12Z</time>
      </trkpt>
      <trkpt lat="47.761420000" lon="0.550180000">
        <ele>101.000000</ele>
        <time>2023-06-13T13:16:18Z</time>
      </trkpt>
      <trkpt lat="47.761410000" lon="0.550140000">
        <ele>101.000000</ele>
        <time>2023-06-13T13:16:20Z</time>
      </trkpt>
      <trkpt lat="47.761330000" lon="0.549980000">
        <ele>102.000000</ele>
        <time>2023-06-13T13:16:29Z</time>
      </trkpt>
      <trkpt lat="47.761310000" lon="0.549900000">
        <ele>103.000000</ele>
        <time>2023-06-13T13:16:33Z</time>
      </trkpt>
      <trkpt lat="47.761290000" lon="0.549860000">
        <ele>103.000000</ele>
        <time>2023-06-13T13:16:35Z</time>
      </trkpt>
      <trkpt lat="47.761280000" lon="0.549810000">
        <ele>102.000000</ele>
        <time>2023-06-13T13:16:38Z</time>
      </trkpt>
      <trkpt lat="47.761200000" lon="0.549640000">
        <ele>103.000000</ele>
        <time>2023-06-13T13:16:48Z</time>
      </trkpt>
      <trkpt lat="47.761170000" lon="0.549600000">
        <ele>103.000000</ele>
        <time>2023-06-13T13:16:51Z</time>
      </trkpt>
      <trkpt lat="47.761110000" lon="0.549470000">
        <ele>103.000000</ele>
        <time>2023-06-13T13:16:58Z</time>
      </trkpt>
      <trkpt lat="47.761030000" lon="0.549330000">
        <ele>103.000000</ele>
        <time>2023-06-13T13:17:07Z</time>
      </trkpt>
      <trkpt lat="47.760940000" lon="0.549290000">
        <ele>101.000000</ele>
        <time>2023-06-13T13:17:15Z</time>
      </trkpt>
      <trkpt lat="47.760840000" lon="0.549310000">
        <ele>101.000000</ele>
        <time>2023-06-13T13:17:21Z</time>
      </trkpt>
      <trkpt lat="47.760810000" lon="0.549330000">
        <ele>100.000000</ele>
        <time>2023-06-13T13:17:23Z</time>
      </trkpt>
      <trkpt lat="47.760720000" lon="0.549360000">
        <ele>100.000000</ele>
        <time>2023-06-13T13:17:31Z</time>
      </trkpt>
      <trkpt lat="47.760690000" lon="0.549380000">
        <ele>100.000000</ele>
        <time>2023-06-13T13:17:34Z</time>
      </trkpt>
      <trkpt lat="47.760590000" lon="0.549410000">
        <ele>101.000000</ele>
        <time>2023-06-13T13:17:41Z</time>
      </trkpt>
      <trkpt lat="47.760560000" lon="0.549430000">
        <ele>100.000000</ele>
        <time>2023-06-13T13:17:44Z</time>
      </trkpt>
      <trkpt lat="47.760530000" lon="0.549430000">
        <ele>100.000000</ele>
        <time>2023-06-13T13:17:46Z</time>
      </trkpt>
      <trkpt lat="47.760470000" lon="0.549470000">
        <ele>100.000000</ele>
        <time>2023-06-13T13:17:51Z</time>
      </trkpt>
      <trkpt lat="47.760370000" lon="0.549580000">
        <ele>99.000000</ele>
        <time>2023-06-13T13:18:00Z</time>
      </trkpt>
      <trkpt lat="47.760040000" lon="0.550030000">
        <ele>101.000000</ele>
        <time>2023-06-13T13:18:35Z</time>
      </trkpt>
      <trkpt lat="47.759980000" lon="0.550090000">
        <ele>101.000000</ele>
        <time>2023-06-13T13:18:41Z</time>
      </trkpt>
      <trkpt lat="47.759920000" lon="0.550200000">
        <ele>101.000000</ele>
        <time>2023-06-13T13:18:49Z</time>
      </trkpt>
      <trkpt lat="47.759890000" lon="0.550210000">
        <ele>105.000000</ele>
        <time>2023-06-13T13:19:55Z</time>
      </trkpt>
      <trkpt lat="47.759870000" lon="0.550230000">
        <ele>107.000000</ele>
        <time>2023-06-13T13:20:00Z</time>
      </trkpt>
      <trkpt lat="47.759850000" lon="0.550280000">
        <ele>106.000000</ele>
        <time>2023-06-13T13:20:17Z</time>
      </trkpt>
      <trkpt lat="47.759850000" lon="0.550330000">
        <ele>105.000000</ele>
        <time>2023-06-13T13:20:20Z</time>
      </trkpt>
      <trkpt lat="47.759860000" lon="0.550370000">
        <ele>105.000000</ele>
        <time>2023-06-13T13:20:22Z</time>
      </trkpt>
      <trkpt lat="47.759860000" lon="0.550420000">
        <ele>104.000000</ele>
        <time>2023-06-13T13:20:25Z</time>
      </trkpt>
      <trkpt lat="47.759890000" lon="0.550620000">
        <ele>103.000000</ele>
        <time>2023-06-13T13:20:34Z</time>
      </trkpt>
      <trkpt lat="47.759890000" lon="0.550670000">
        <ele>103.000000</ele>
        <time>2023-06-13T13:20:36Z</time>
      </trkpt>
      <trkpt lat="47.759920000" lon="0.550750000">
        <ele>102.000000</ele>
        <time>2023-06-13T13:20:42Z</time>
      </trkpt>
      <trkpt lat="47.759930000" lon="0.550840000">
        <ele>101.000000</ele>
        <time>2023-06-13T13:20:47Z</time>
      </trkpt>
      <trkpt lat="47.759930000" lon="0.550940000">
        <ele>100.000000</ele>
        <time>2023-06-13T13:20:51Z</time>
      </trkpt>
      <trkpt lat="47.759950000" lon="0.551030000">
        <ele>99.000000</ele>
        <time>2023-06-13T13:20:56Z</time>
      </trkpt>
      <trkpt lat="47.759950000" lon="0.551080000">
        <ele>100.000000</ele>
        <time>2023-06-13T13:20:58Z</time>
      </trkpt>
      <trkpt lat="47.759970000" lon="0.551180000">
        <ele>101.000000</ele>
        <time>2023-06-13T13:21:03Z</time>
      </trkpt>
      <trkpt lat="47.759970000" lon="0.551270000">
        <ele>102.000000</ele>
        <time>2023-06-13T13:21:07Z</time>
      </trkpt>
      <trkpt lat="47.759980000" lon="0.551310000">
        <ele>102.000000</ele>
        <time>2023-06-13T13:21:09Z</time>
      </trkpt>
      <trkpt lat="47.759980000" lon="0.551360000">
        <ele>102.000000</ele>
        <time>2023-06-13T13:21:12Z</time>
      </trkpt>
      <trkpt lat="47.759990000" lon="0.551410000">
        <ele>103.000000</ele>
        <time>2023-06-13T13:21:14Z</time>
      </trkpt>
      <trkpt lat="47.759990000" lon="0.551510000">
        <ele>104.000000</ele>
        <time>2023-06-13T13:21:18Z</time>
      </trkpt>
      <trkpt lat="47.760010000" lon="0.551550000">
        <ele>105.000000</ele>
        <time>2023-06-13T13:21:21Z</time>
      </trkpt>
      <trkpt lat="47.760030000" lon="0.551650000">
        <ele>107.000000</ele>
        <time>2023-06-13T13:21:26Z</time>
      </trkpt>
      <trkpt lat="47.760030000" lon="0.551750000">
        <ele>109.000000</ele>
        <time>2023-06-13T13:21:32Z</time>
      </trkpt>
      <trkpt lat="47.760040000" lon="0.551860000">
        <ele>111.000000</ele>
        <time>2023-06-13T13:21:38Z</time>
      </trkpt>
      <trkpt lat="47.760060000" lon="0.551950000">
        <ele>112.000000</ele>
        <time>2023-06-13T13:22:06Z</time>
      </trkpt>
      <trkpt lat="47.760060000" lon="0.552010000">
        <ele>112.000000</ele>
        <time>2023-06-13T13:22:09Z</time>
      </trkpt>
      <trkpt lat="47.760070000" lon="0.552060000">
        <ele>111.000000</ele>
        <time>2023-06-13T13:22:12Z</time>
      </trkpt>
      <trkpt lat="47.760070000" lon="0.552160000">
        <ele>111.000000</ele>
        <time>2023-06-13T13:22:16Z</time>
      </trkpt>
      <trkpt lat="47.760050000" lon="0.552300000">
        <ele>113.000000</ele>
        <time>2023-06-13T13:22:23Z</time>
      </trkpt>
      <trkpt lat="47.760060000" lon="0.552350000">
        <ele>113.000000</ele>
        <time>2023-06-13T13:22:25Z</time>
      </trkpt>
      <trkpt lat="47.760060000" lon="0.552440000">
        <ele>114.000000</ele>
        <time>2023-06-13T13:22:29Z</time>
      </trkpt>
      <trkpt lat="47.760070000" lon="0.552480000">
        <ele>114.000000</ele>
        <time>2023-06-13T13:22:31Z</time>
      </trkpt>
      <trkpt lat="47.760070000" lon="0.552530000">
        <ele>114.000000</ele>
        <time>2023-06-13T13:22:34Z</time>
      </trkpt>
      <trkpt lat="47.760090000" lon="0.552630000">
        <ele>111.000000</ele>
        <time>2023-06-13T13:22:47Z</time>
      </trkpt>
      <trkpt lat="47.760090000" lon="0.552820000">
        <ele>111.000000</ele>
        <time>2023-06-13T13:22:57Z</time>
      </trkpt>
      <trkpt lat="47.760100000" lon="0.552860000">
        <ele>111.000000</ele>
        <time>2023-06-13T13:22:59Z</time>
      </trkpt>
      <trkpt lat="47.760100000" lon="0.552950000">
        <ele>110.000000</ele>
        <time>2023-06-13T13:23:04Z</time>
      </trkpt>
      <trkpt lat="47.760110000" lon="0.553000000">
        <ele>110.000000</ele>
        <time>2023-06-13T13:23:06Z</time>
      </trkpt>
      <trkpt lat="47.760110000" lon="0.553640000">
        <ele>110.000000</ele>
        <time>2023-06-13T13:23:35Z</time>
      </trkpt>
      <trkpt lat="47.760120000" lon="0.553700000">
        <ele>110.000000</ele>
        <time>2023-06-13T13:23:38Z</time>
      </trkpt>
      <trkpt lat="47.760120000" lon="0.554020000">
        <ele>110.000000</ele>
        <time>2023-06-13T13:23:53Z</time>
      </trkpt>
      <trkpt lat="47.760130000" lon="0.554070000">
        <ele>110.000000</ele>
        <time>2023-06-13T13:23:56Z</time>
      </trkpt>
      <trkpt lat="47.760120000" lon="0.554120000">
        <ele>110.000000</ele>
        <time>2023-06-13T13:23:58Z</time>
      </trkpt>
      <trkpt lat="47.760120000" lon="0.554440000">
        <ele>111.000000</ele>
        <time>2023-06-13T13:24:13Z</time>
      </trkpt>
      <trkpt lat="47.760130000" lon="0.554480000">
        <ele>111.000000</ele>
        <time>2023-06-13T13:24:15Z</time>
      </trkpt>
      <trkpt lat="47.760130000" lon="0.554530000">
        <ele>112.000000</ele>
        <time>2023-06-13T13:24:17Z</time>
      </trkpt>
      <trkpt lat="47.760120000" lon="0.554580000">
        <ele>112.000000</ele>
        <time>2023-06-13T13:24:20Z</time>
      </trkpt>
      <trkpt lat="47.760120000" lon="0.555390000">
        <ele>112.000000</ele>
        <time>2023-06-13T13:24:58Z</time>
      </trkpt>
      <trkpt lat="47.760140000" lon="0.555530000">
        <ele>112.000000</ele>
        <time>2023-06-13T13:25:05Z</time>
      </trkpt>
      <trkpt lat="47.760140000" lon="0.555640000">
        <ele>111.000000</ele>
        <time>2023-06-13T13:25:11Z</time>
      </trkpt>
      <trkpt lat="47.760120000" lon="0.555730000">
        <ele>110.000000</ele>
        <time>2023-06-13T13:25:15Z</time>
      </trkpt>
      <trkpt lat="47.760120000" lon="0.555770000">
        <ele>110.000000</ele>
        <time>2023-06-13T13:25:17Z</time>
      </trkpt>
      <trkpt lat="47.760100000" lon="0.555870000">
        <ele>110.000000</ele>
        <time>2023-06-13T13:25:34Z</time>
      </trkpt>
      <trkpt lat="47.760080000" lon="0.555910000">
        <ele>110.000000</ele>
        <time>2023-06-13T13:25:36Z</time>
      </trkpt>
      <trkpt lat="47.760030000" lon="0.556110000">
        <ele>111.000000</ele>
        <time>2023-06-13T13:25:47Z</time>
      </trkpt>
      <trkpt lat="47.759890000" lon="0.556440000">
        <ele>109.000000</ele>
        <time>2023-06-13T13:26:10Z</time>
      </trkpt>
      <trkpt lat="47.759880000" lon="0.556490000">
        <ele>109.000000</ele>
        <time>2023-06-13T13:26:13Z</time>
      </trkpt>
      <trkpt lat="47.759860000" lon="0.556530000">
        <ele>109.000000</ele>
        <time>2023-06-13T13:26:15Z</time>
      </trkpt>
      <trkpt lat="47.759820000" lon="0.556660000">
        <ele>110.000000</ele>
        <time>2023-06-13T13:26:22Z</time>
      </trkpt>
      <trkpt lat="47.759670000" lon="0.557060000">
        <ele>108.000000</ele>
        <time>2023-06-13T13:26:43Z</time>
      </trkpt>
      <trkpt lat="47.759640000" lon="0.557200000">
        <ele>108.000000</ele>
        <time>2023-06-13T13:26:51Z</time>
      </trkpt>
      <trkpt lat="47.759640000" lon="0.557250000">
        <ele>108.000000</ele>
        <time>2023-06-13T13:26:53Z</time>
      </trkpt>
      <trkpt lat="47.759630000" lon="0.557300000">
        <ele>108.000000</ele>
        <time>2023-06-13T13:26:55Z</time>
      </trkpt>
      <trkpt lat="47.759630000" lon="0.557450000">
        <ele>106.000000</ele>
        <time>2023-06-13T13:27:03Z</time>
      </trkpt>
      <trkpt lat="47.759620000" lon="0.557500000">
        <ele>105.000000</ele>
        <time>2023-06-13T13:27:05Z</time>
      </trkpt>
      <trkpt lat="47.759620000" lon="0.557630000">
        <ele>105.000000</ele>
        <time>2023-06-13T13:27:11Z</time>
      </trkpt>
      <trkpt lat="47.759610000" lon="0.557670000">
        <ele>105.000000</ele>
        <time>2023-06-13T13:27:13Z</time>
      </trkpt>
      <trkpt lat="47.759610000" lon="0.557720000">
        <ele>104.000000</ele>
        <time>2023-06-13T13:27:16Z</time>
      </trkpt>
      <trkpt lat="47.759560000" lon="0.557950000">
        <ele>103.000000</ele>
        <time>2023-06-13T13:27:27Z</time>
      </trkpt>
      <trkpt lat="47.759540000" lon="0.557990000">
        <ele>103.000000</ele>
        <time>2023-06-13T13:27:29Z</time>
      </trkpt>
      <trkpt lat="47.759520000" lon="0.558060000">
        <ele>103.000000</ele>
        <time>2023-06-13T13:27:33Z</time>
      </trkpt>
      <trkpt lat="47.759500000" lon="0.558100000">
        <ele>103.000000</ele>
        <time>2023-06-13T13:27:35Z</time>
      </trkpt>
      <trkpt lat="47.759460000" lon="0.558230000">
        <ele>101.000000</ele>
        <time>2023-06-13T13:27:42Z</time>
      </trkpt>
      <trkpt lat="47.759420000" lon="0.558420000">
        <ele>100.000000</ele>
        <time>2023-06-13T13:27:52Z</time>
      </trkpt>
      <trkpt lat="47.759420000" lon="0.558480000">
        <ele>101.000000</ele>
        <time>2023-06-13T13:27:55Z</time>
      </trkpt>
      <trkpt lat="47.759430000" lon="0.558530000">
        <ele>100.000000</ele>
        <time>2023-06-13T13:27:58Z</time>
      </trkpt>
      <trkpt lat="47.759430000" lon="0.558590000">
        <ele>100.000000</ele>
        <time>2023-06-13T13:28:01Z</time>
      </trkpt>
      <trkpt lat="47.759440000" lon="0.558640000">
        <ele>100.000000</ele>
        <time>2023-06-13T13:28:03Z</time>
      </trkpt>
      <trkpt lat="47.759440000" lon="0.558690000">
        <ele>99.000000</ele>
        <time>2023-06-13T13:28:06Z</time>
      </trkpt>
      <trkpt lat="47.759450000" lon="0.558740000">
        <ele>99.000000</ele>
        <time>2023-06-13T13:28:08Z</time>
      </trkpt>
      <trkpt lat="47.759450000" lon="0.558840000">
        <ele>99.000000</ele>
        <time>2023-06-13T13:28:12Z</time>
      </trkpt>
      <trkpt lat="47.759480000" lon="0.558970000">
        <ele>100.000000</ele>
        <time>2023-06-13T13:28:18Z</time>
      </trkpt>
      <trkpt lat="47.759480000" lon="0.559010000">
        <ele>100.000000</ele>
        <time>2023-06-13T13:28:20Z</time>
      </trkpt>
      <trkpt lat="47.759490000" lon="0.559050000">
        <ele>100.000000</ele>
        <time>2023-06-13T13:28:22Z</time>
      </trkpt>
      <trkpt lat="47.759490000" lon="0.559100000">
        <ele>100.000000</ele>
        <time>2023-06-13T13:28:24Z</time>
      </trkpt>
      <trkpt lat="47.759520000" lon="0.559240000">
        <ele>100.000000</ele>
        <time>2023-06-13T13:28:31Z</time>
      </trkpt>
      <trkpt lat="47.759530000" lon="0.559410000">
        <ele>99.000000</ele>
        <time>2023-06-13T13:28:39Z</time>
      </trkpt>
      <trkpt lat="47.759600000" lon="0.559720000">
        <ele>97.000000</ele>
        <time>2023-06-13T13:28:56Z</time>
      </trkpt>
      <trkpt lat="47.759600000" lon="0.559830000">
        <ele>96.000000</ele>
        <time>2023-06-13T13:29:01Z</time>
      </trkpt>
      <trkpt lat="47.759570000" lon="0.559910000">
        <ele>95.000000</ele>
        <time>2023-06-13T13:29:06Z</time>
      </trkpt>
      <trkpt lat="47.759540000" lon="0.559950000">
        <ele>94.000000</ele>
        <time>2023-06-13T13:29:09Z</time>
      </trkpt>
      <trkpt lat="47.759530000" lon="0.559990000">
        <ele>94.000000</ele>
        <time>2023-06-13T13:29:11Z</time>
      </trkpt>
      <trkpt lat="47.759450000" lon="0.560150000">
        <ele>93.000000</ele>
        <time>2023-06-13T13:29:22Z</time>
      </trkpt>
      <trkpt lat="47.759420000" lon="0.560190000">
        <ele>93.000000</ele>
        <time>2023-06-13T13:29:25Z</time>
      </trkpt>
      <trkpt lat="47.759360000" lon="0.560370000">
        <ele>92.000000</ele>
        <time>2023-06-13T13:29:34Z</time>
      </trkpt>
      <trkpt lat="47.759340000" lon="0.560410000">
        <ele>91.000000</ele>
        <time>2023-06-13T13:29:36Z</time>
      </trkpt>
      <trkpt lat="47.759290000" lon="0.560660000">
        <ele>88.000000</ele>
        <time>2023-06-13T13:29:50Z</time>
      </trkpt>
      <trkpt lat="47.759290000" lon="0.560710000">
        <ele>88.000000</ele>
        <time>2023-06-13T13:29:52Z</time>
      </trkpt>
      <trkpt lat="47.759210000" lon="0.561090000">
        <ele>87.000000</ele>
        <time>2023-06-13T13:30:12Z</time>
      </trkpt>
      <trkpt lat="47.759210000" lon="0.561140000">
        <ele>87.000000</ele>
        <time>2023-06-13T13:30:14Z</time>
      </trkpt>
      <trkpt lat="47.759160000" lon="0.561380000">
        <ele>85.000000</ele>
        <time>2023-06-13T13:30:25Z</time>
      </trkpt>
      <trkpt lat="47.759160000" lon="0.561420000">
        <ele>85.000000</ele>
        <time>2023-06-13T13:30:27Z</time>
      </trkpt>
      <trkpt lat="47.759100000" lon="0.561640000">
        <ele>84.000000</ele>
        <time>2023-06-13T13:30:40Z</time>
      </trkpt>
      <trkpt lat="47.759050000" lon="0.561710000">
        <ele>84.000000</ele>
        <time>2023-06-13T13:30:46Z</time>
      </trkpt>
      <trkpt lat="47.758990000" lon="0.561730000">
        <ele>84.000000</ele>
        <time>2023-06-13T13:30:50Z</time>
      </trkpt>
      <trkpt lat="47.758870000" lon="0.561680000">
        <ele>85.000000</ele>
        <time>2023-06-13T13:31:00Z</time>
      </trkpt>
      <trkpt lat="47.758740000" lon="0.561600000">
        <ele>85.000000</ele>
        <time>2023-06-13T13:31:10Z</time>
      </trkpt>
      <trkpt lat="47.758710000" lon="0.561570000">
        <ele>85.000000</ele>
        <time>2023-06-13T13:31:13Z</time>
      </trkpt>
      <trkpt lat="47.758590000" lon="0.561490000">
        <ele>85.000000</ele>
        <time>2023-06-13T13:31:22Z</time>
      </trkpt>
      <trkpt lat="47.758470000" lon="0.561440000">
        <ele>85.000000</ele>
        <time>2023-06-13T13:31:31Z</time>
      </trkpt>
      <trkpt lat="47.758300000" lon="0.561310000">
        <ele>86.000000</ele>
        <time>2023-06-13T13:31:46Z</time>
      </trkpt>
      <trkpt lat="47.758150000" lon="0.561240000">
        <ele>83.000000</ele>
        <time>2023-06-13T13:31:57Z</time>
      </trkpt>
      <trkpt lat="47.757720000" lon="0.560960000">
        <ele>82.000000</ele>
        <time>2023-06-13T13:32:31Z</time>
      </trkpt>
      <trkpt lat="47.757660000" lon="0.560910000">
        <ele>81.000000</ele>
        <time>2023-06-13T13:32:36Z</time>
      </trkpt>
      <trkpt lat="47.757590000" lon="0.560880000">
        <ele>81.000000</ele>
        <time>2023-06-13T13:32:42Z</time>
      </trkpt>
      <trkpt lat="47.757440000" lon="0.560780000">
        <ele>82.000000</ele>
        <time>2023-06-13T13:32:53Z</time>
      </trkpt>
      <trkpt lat="47.757380000" lon="0.560760000">
        <ele>83.000000</ele>
        <time>2023-06-13T13:33:05Z</time>
      </trkpt>
      <trkpt lat="47.757310000" lon="0.560720000">
        <ele>83.000000</ele>
        <time>2023-06-13T13:33:09Z</time>
      </trkpt>
      <trkpt lat="47.757210000" lon="0.560690000">
        <ele>82.000000</ele>
        <time>2023-06-13T13:33:18Z</time>
      </trkpt>
      <trkpt lat="47.757180000" lon="0.560670000">
        <ele>81.000000</ele>
        <time>2023-06-13T13:33:21Z</time>
      </trkpt>
      <trkpt lat="47.757010000" lon="0.560670000">
        <ele>78.000000</ele>
        <time>2023-06-13T13:33:34Z</time>
      </trkpt>
      <trkpt lat="47.756670000" lon="0.560770000">
        <ele>77.000000</ele>
        <time>2023-06-13T13:33:59Z</time>
      </trkpt>
      <trkpt lat="47.756560000" lon="0.560840000">
        <ele>77.000000</ele>
        <time>2023-06-13T13:34:08Z</time>
      </trkpt>
      <trkpt lat="47.756530000" lon="0.560840000">
        <ele>78.000000</ele>
        <time>2023-06-13T13:34:10Z</time>
      </trkpt>
      <trkpt lat="47.756280000" lon="0.560950000">
        <ele>79.000000</ele>
        <time>2023-06-13T13:34:28Z</time>
      </trkpt>
      <trkpt lat="47.756250000" lon="0.561010000">
        <ele>80.000000</ele>
        <time>2023-06-13T13:34:32Z</time>
      </trkpt>
      <trkpt lat="47.756250000" lon="0.561050000">
        <ele>80.000000</ele>
        <time>2023-06-13T13:34:34Z</time>
      </trkpt>
      <trkpt lat="47.756260000" lon="0.561090000">
        <ele>80.000000</ele>
        <time>2023-06-13T13:34:36Z</time>
      </trkpt>
      <trkpt lat="47.756300000" lon="0.561160000">
        <ele>80.000000</ele>
        <time>2023-06-13T13:34:40Z</time>
      </trkpt>
      <trkpt lat="47.756390000" lon="0.561250000">
        <ele>81.000000</ele>
        <time>2023-06-13T13:34:46Z</time>
      </trkpt>
      <trkpt lat="47.756400000" lon="0.561280000">
        <ele>80.000000</ele>
        <time>2023-06-13T13:34:48Z</time>
      </trkpt>
      <trkpt lat="47.756450000" lon="0.561350000">
        <ele>80.000000</ele>
        <time>2023-06-13T13:34:54Z</time>
      </trkpt>
      <trkpt lat="47.756850000" lon="0.561690000">
        <ele>77.000000</ele>
        <time>2023-06-13T13:35:31Z</time>
      </trkpt>
      <trkpt lat="47.756920000" lon="0.561770000">
        <ele>78.000000</ele>
        <time>2023-06-13T13:35:38Z</time>
      </trkpt>
      <trkpt lat="47.756990000" lon="0.561810000">
        <ele>79.000000</ele>
        <time>2023-06-13T13:35:44Z</time>
      </trkpt>
      <trkpt lat="47.757260000" lon="0.562070000">
        <ele>81.000000</ele>
        <time>2023-06-13T13:36:10Z</time>
      </trkpt>
      <trkpt lat="47.757280000" lon="0.562100000">
        <ele>80.000000</ele>
        <time>2023-06-13T13:36:13Z</time>
      </trkpt>
      <trkpt lat="47.757420000" lon="0.562230000">
        <ele>84.000000</ele>
        <time>2023-06-13T13:36:25Z</time>
      </trkpt>
      <trkpt lat="47.757720000" lon="0.562400000">
        <ele>88.000000</ele>
        <time>2023-06-13T13:36:51Z</time>
      </trkpt>
      <trkpt lat="47.758140000" lon="0.562660000">
        <ele>96.000000</ele>
        <time>2023-06-13T13:37:28Z</time>
      </trkpt>
      <trkpt lat="47.758250000" lon="0.562740000">
        <ele>96.000000</ele>
        <time>2023-06-13T13:37:39Z</time>
      </trkpt>
      <trkpt lat="47.758280000" lon="0.562750000">
        <ele>95.000000</ele>
        <time>2023-06-13T13:37:41Z</time>
      </trkpt>
      <trkpt lat="47.758430000" lon="0.562880000">
        <ele>93.000000</ele>
        <time>2023-06-13T13:37:55Z</time>
      </trkpt>
      <trkpt lat="47.758480000" lon="0.562950000">
        <ele>94.000000</ele>
        <time>2023-06-13T13:38:01Z</time>
      </trkpt>
      <trkpt lat="47.758510000" lon="0.563030000">
        <ele>95.000000</ele>
        <time>2023-06-13T13:38:07Z</time>
      </trkpt>
      <trkpt lat="47.758540000" lon="0.563170000">
        <ele>98.000000</ele>
        <time>2023-06-13T13:38:13Z</time>
      </trkpt>
      <trkpt lat="47.758540000" lon="0.563220000">
        <ele>99.000000</ele>
        <time>2023-06-13T13:38:15Z</time>
      </trkpt>
      <trkpt lat="47.758560000" lon="0.563320000">
        <ele>102.000000</ele>
        <time>2023-06-13T13:38:21Z</time>
      </trkpt>
      <trkpt lat="47.758550000" lon="0.563370000">
        <ele>102.000000</ele>
        <time>2023-06-13T13:38:24Z</time>
      </trkpt>
      <trkpt lat="47.758550000" lon="0.563610000">
        <ele>102.000000</ele>
        <time>2023-06-13T13:38:37Z</time>
      </trkpt>
      <trkpt lat="47.758530000" lon="0.563660000">
        <ele>102.000000</ele>
        <time>2023-06-13T13:38:40Z</time>
      </trkpt>
      <trkpt lat="47.758530000" lon="0.563710000">
        <ele>102.000000</ele>
        <time>2023-06-13T13:38:42Z</time>
      </trkpt>
      <trkpt lat="47.758520000" lon="0.563750000">
        <ele>102.000000</ele>
        <time>2023-06-13T13:38:44Z</time>
      </trkpt>
      <trkpt lat="47.758520000" lon="0.563800000">
        <ele>103.000000</ele>
        <time>2023-06-13T13:38:47Z</time>
      </trkpt>
      <trkpt lat="47.758510000" lon="0.563850000">
        <ele>103.000000</ele>
        <time>2023-06-13T13:38:49Z</time>
      </trkpt>
      <trkpt lat="47.758510000" lon="0.563930000">
        <ele>104.000000</ele>
        <time>2023-06-13T13:38:54Z</time>
      </trkpt>
      <trkpt lat="47.758500000" lon="0.563980000">
        <ele>105.000000</ele>
        <time>2023-06-13T13:38:57Z</time>
      </trkpt>
      <trkpt lat="47.758500000" lon="0.564040000">
        <ele>105.000000</ele>
        <time>2023-06-13T13:39:00Z</time>
      </trkpt>
      <trkpt lat="47.758490000" lon="0.564080000">
        <ele>106.000000</ele>
        <time>2023-06-13T13:39:25Z</time>
      </trkpt>
      <trkpt lat="47.758490000" lon="0.564180000">
        <ele>106.000000</ele>
        <time>2023-06-13T13:39:29Z</time>
      </trkpt>
      <trkpt lat="47.758480000" lon="0.564230000">
        <ele>106.000000</ele>
        <time>2023-06-13T13:39:32Z</time>
      </trkpt>
      <trkpt lat="47.758480000" lon="0.564290000">
        <ele>106.000000</ele>
        <time>2023-06-13T13:39:34Z</time>
      </trkpt>
      <trkpt lat="47.758470000" lon="0.564340000">
        <ele>106.000000</ele>
        <time>2023-06-13T13:39:36Z</time>
      </trkpt>
      <trkpt lat="47.758470000" lon="0.564390000">
        <ele>106.000000</ele>
        <time>2023-06-13T13:39:38Z</time>
      </trkpt>
      <trkpt lat="47.758450000" lon="0.564490000">
        <ele>106.000000</ele>
        <time>2023-06-13T13:39:42Z</time>
      </trkpt>
      <trkpt lat="47.758440000" lon="0.564640000">
        <ele>106.000000</ele>
        <time>2023-06-13T13:39:49Z</time>
      </trkpt>
      <trkpt lat="47.758420000" lon="0.564730000">
        <ele>105.000000</ele>
        <time>2023-06-13T13:39:53Z</time>
      </trkpt>
      <trkpt lat="47.758420000" lon="0.564780000">
        <ele>105.000000</ele>
        <time>2023-06-13T13:39:56Z</time>
      </trkpt>
      <trkpt lat="47.758410000" lon="0.564830000">
        <ele>105.000000</ele>
        <time>2023-06-13T13:39:59Z</time>
      </trkpt>
      <trkpt lat="47.758410000" lon="0.564880000">
        <ele>105.000000</ele>
        <time>2023-06-13T13:40:01Z</time>
      </trkpt>
      <trkpt lat="47.758400000" lon="0.564920000">
        <ele>105.000000</ele>
        <time>2023-06-13T13:40:03Z</time>
      </trkpt>
      <trkpt lat="47.758400000" lon="0.564970000">
        <ele>105.000000</ele>
        <time>2023-06-13T13:40:05Z</time>
      </trkpt>
      <trkpt lat="47.758390000" lon="0.565010000">
        <ele>104.000000</ele>
        <time>2023-06-13T13:40:07Z</time>
      </trkpt>
      <trkpt lat="47.758390000" lon="0.565170000">
        <ele>105.000000</ele>
        <time>2023-06-13T13:40:16Z</time>
      </trkpt>
      <trkpt lat="47.758410000" lon="0.565280000">
        <ele>106.000000</ele>
        <time>2023-06-13T13:40:22Z</time>
      </trkpt>
      <trkpt lat="47.758410000" lon="0.565320000">
        <ele>107.000000</ele>
        <time>2023-06-13T13:40:24Z</time>
      </trkpt>
      <trkpt lat="47.758440000" lon="0.565450000">
        <ele>108.000000</ele>
        <time>2023-06-13T13:40:30Z</time>
      </trkpt>
      <trkpt lat="47.758440000" lon="0.565500000">
        <ele>109.000000</ele>
        <time>2023-06-13T13:40:32Z</time>
      </trkpt>
      <trkpt lat="47.758480000" lon="0.565660000">
        <ele>110.000000</ele>
        <time>2023-06-13T13:40:40Z</time>
      </trkpt>
      <trkpt lat="47.758570000" lon="0.565870000">
        <ele>113.000000</ele>
        <time>2023-06-13T13:40:53Z</time>
      </trkpt>
      <trkpt lat="47.758630000" lon="0.565940000">
        <ele>113.000000</ele>
        <time>2023-06-13T13:40:58Z</time>
      </trkpt>
      <trkpt lat="47.758650000" lon="0.565980000">
        <ele>113.000000</ele>
        <time>2023-06-13T13:41:00Z</time>
      </trkpt>
      <trkpt lat="47.758900000" lon="0.566150000">
        <ele>114.000000</ele>
        <time>2023-06-13T13:41:21Z</time>
      </trkpt>
      <trkpt lat="47.758930000" lon="0.566160000">
        <ele>114.000000</ele>
        <time>2023-06-13T13:41:23Z</time>
      </trkpt>
      <trkpt lat="47.759070000" lon="0.566260000">
        <ele>115.000000</ele>
        <time>2023-06-13T13:41:34Z</time>
      </trkpt>
      <trkpt lat="47.759190000" lon="0.566320000">
        <ele>116.000000</ele>
        <time>2023-06-13T13:41:43Z</time>
      </trkpt>
      <trkpt lat="47.759280000" lon="0.566400000">
        <ele>115.000000</ele>
        <time>2023-06-13T13:41:52Z</time>
      </trkpt>
      <trkpt lat="47.759350000" lon="0.566440000">
        <ele>115.000000</ele>
        <time>2023-06-13T13:41:57Z</time>
      </trkpt>
      <trkpt lat="47.759370000" lon="0.566470000">
        <ele>116.000000</ele>
        <time>2023-06-13T13:41:59Z</time>
      </trkpt>
      <trkpt lat="47.759400000" lon="0.566490000">
        <ele>116.000000</ele>
        <time>2023-06-13T13:42:01Z</time>
      </trkpt>
      <trkpt lat="47.759420000" lon="0.566520000">
        <ele>116.000000</ele>
        <time>2023-06-13T13:42:03Z</time>
      </trkpt>
      <trkpt lat="47.759450000" lon="0.566530000">
        <ele>117.000000</ele>
        <time>2023-06-13T13:42:05Z</time>
      </trkpt>
      <trkpt lat="47.759500000" lon="0.566580000">
        <ele>117.000000</ele>
        <time>2023-06-13T13:42:09Z</time>
      </trkpt>
      <trkpt lat="47.759630000" lon="0.566790000">
        <ele>117.000000</ele>
        <time>2023-06-13T13:42:24Z</time>
      </trkpt>
      <trkpt lat="47.759680000" lon="0.566920000">
        <ele>118.000000</ele>
        <time>2023-06-13T13:42:32Z</time>
      </trkpt>
      <trkpt lat="47.759670000" lon="0.567010000">
        <ele>119.000000</ele>
        <time>2023-06-13T13:42:36Z</time>
      </trkpt>
      <trkpt lat="47.759600000" lon="0.567170000">
        <ele>118.000000</ele>
        <time>2023-06-13T13:42:45Z</time>
      </trkpt>
      <trkpt lat="47.759590000" lon="0.567210000">
        <ele>118.000000</ele>
        <time>2023-06-13T13:42:47Z</time>
      </trkpt>
      <trkpt lat="47.759510000" lon="0.567360000">
        <ele>117.000000</ele>
        <time>2023-06-13T13:42:56Z</time>
      </trkpt>
      <trkpt lat="47.759340000" lon="0.567750000">
        <ele>119.000000</ele>
        <time>2023-06-13T13:43:19Z</time>
      </trkpt>
      <trkpt lat="47.759260000" lon="0.567980000">
        <ele>123.000000</ele>
        <time>2023-06-13T13:43:31Z</time>
      </trkpt>
      <trkpt lat="47.759220000" lon="0.568050000">
        <ele>123.000000</ele>
        <time>2023-06-13T13:43:36Z</time>
      </trkpt>
      <trkpt lat="47.759210000" lon="0.568090000">
        <ele>123.000000</ele>
        <time>2023-06-13T13:43:38Z</time>
      </trkpt>
      <trkpt lat="47.759170000" lon="0.568170000">
        <ele>122.000000</ele>
        <time>2023-06-13T13:43:44Z</time>
      </trkpt>
      <trkpt lat="47.759110000" lon="0.568220000">
        <ele>120.000000</ele>
        <time>2023-06-13T13:43:50Z</time>
      </trkpt>
      <trkpt lat="47.759040000" lon="0.568220000">
        <ele>119.000000</ele>
        <time>2023-06-13T13:43:54Z</time>
      </trkpt>
      <trkpt lat="47.758770000" lon="0.568090000">
        <ele>119.000000</ele>
        <time>2023-06-13T13:44:16Z</time>
      </trkpt>
      <trkpt lat="47.758700000" lon="0.568080000">
        <ele>118.000000</ele>
        <time>2023-06-13T13:44:22Z</time>
      </trkpt>
      <trkpt lat="47.758640000" lon="0.568110000">
        <ele>121.000000</ele>
        <time>2023-06-13T13:45:36Z</time>
      </trkpt>
      <trkpt lat="47.758620000" lon="0.568140000">
        <ele>122.000000</ele>
        <time>2023-06-13T13:45:38Z</time>
      </trkpt>
      <trkpt lat="47.758580000" lon="0.568290000">
        <ele>120.000000</ele>
        <time>2023-06-13T13:45:46Z</time>
      </trkpt>
      <trkpt lat="47.758580000" lon="0.568380000">
        <ele>119.000000</ele>
        <time>2023-06-13T13:45:50Z</time>
      </trkpt>
      <trkpt lat="47.758570000" lon="0.568420000">
        <ele>119.000000</ele>
        <time>2023-06-13T13:45:52Z</time>
      </trkpt>
      <trkpt lat="47.758570000" lon="0.568460000">
        <ele>119.000000</ele>
        <time>2023-06-13T13:45:54Z</time>
      </trkpt>
      <trkpt lat="47.758550000" lon="0.568550000">
        <ele>118.000000</ele>
        <time>2023-06-13T13:45:58Z</time>
      </trkpt>
      <trkpt lat="47.758550000" lon="0.568590000">
        <ele>118.000000</ele>
        <time>2023-06-13T13:46:00Z</time>
      </trkpt>
      <trkpt lat="47.758500000" lon="0.568800000">
        <ele>119.000000</ele>
        <time>2023-06-13T13:46:10Z</time>
      </trkpt>
      <trkpt lat="47.758490000" lon="0.568940000">
        <ele>120.000000</ele>
        <time>2023-06-13T13:46:17Z</time>
      </trkpt>
      <trkpt lat="47.758470000" lon="0.569030000">
        <ele>121.000000</ele>
        <time>2023-06-13T13:46:21Z</time>
      </trkpt>
      <trkpt lat="47.758470000" lon="0.569070000">
        <ele>121.000000</ele>
        <time>2023-06-13T13:46:23Z</time>
      </trkpt>
      <trkpt lat="47.758450000" lon="0.569160000">
        <ele>122.000000</ele>
        <time>2023-06-13T13:46:27Z</time>
      </trkpt>
      <trkpt lat="47.758450000" lon="0.569200000">
        <ele>122.000000</ele>
        <time>2023-06-13T13:46:29Z</time>
      </trkpt>
      <trkpt lat="47.758380000" lon="0.569520000">
        <ele>121.000000</ele>
        <time>2023-06-13T13:46:45Z</time>
      </trkpt>
      <trkpt lat="47.758360000" lon="0.569560000">
        <ele>121.000000</ele>
        <time>2023-06-13T13:46:47Z</time>
      </trkpt>
      <trkpt lat="47.758290000" lon="0.569880000">
        <ele>121.000000</ele>
        <time>2023-06-13T13:47:03Z</time>
      </trkpt>
      <trkpt lat="47.758290000" lon="0.569920000">
        <ele>122.000000</ele>
        <time>2023-06-13T13:47:05Z</time>
      </trkpt>
      <trkpt lat="47.758260000" lon="0.570070000">
        <ele>122.000000</ele>
        <time>2023-06-13T13:47:13Z</time>
      </trkpt>
      <trkpt lat="47.758240000" lon="0.570110000">
        <ele>122.000000</ele>
        <time>2023-06-13T13:47:15Z</time>
      </trkpt>
      <trkpt lat="47.758160000" lon="0.570220000">
        <ele>120.000000</ele>
        <time>2023-06-13T13:47:23Z</time>
      </trkpt>
      <trkpt lat="47.758130000" lon="0.570240000">
        <ele>119.000000</ele>
        <time>2023-06-13T13:47:25Z</time>
      </trkpt>
      <trkpt lat="47.758010000" lon="0.570380000">
        <ele>119.000000</ele>
        <time>2023-06-13T13:47:35Z</time>
      </trkpt>
      <trkpt lat="47.757840000" lon="0.570610000">
        <ele>121.000000</ele>
        <time>2023-06-13T13:47:51Z</time>
      </trkpt>
      <trkpt lat="47.757810000" lon="0.570690000">
        <ele>121.000000</ele>
        <time>2023-06-13T13:47:56Z</time>
      </trkpt>
      <trkpt lat="47.757750000" lon="0.570910000">
        <ele>121.000000</ele>
        <time>2023-06-13T13:48:07Z</time>
      </trkpt>
      <trkpt lat="47.757750000" lon="0.570960000">
        <ele>121.000000</ele>
        <time>2023-06-13T13:48:09Z</time>
      </trkpt>
      <trkpt lat="47.757720000" lon="0.571120000">
        <ele>119.000000</ele>
        <time>2023-06-13T13:48:17Z</time>
      </trkpt>
      <trkpt lat="47.757720000" lon="0.571250000">
        <ele>119.000000</ele>
        <time>2023-06-13T13:48:23Z</time>
      </trkpt>
      <trkpt lat="47.757710000" lon="0.571290000">
        <ele>120.000000</ele>
        <time>2023-06-13T13:48:25Z</time>
      </trkpt>
      <trkpt lat="47.757710000" lon="0.571430000">
        <ele>119.000000</ele>
        <time>2023-06-13T13:48:32Z</time>
      </trkpt>
      <trkpt lat="47.757700000" lon="0.571470000">
        <ele>119.000000</ele>
        <time>2023-06-13T13:48:34Z</time>
      </trkpt>
      <trkpt lat="47.757700000" lon="0.572230000">
        <ele>118.000000</ele>
        <time>2023-06-13T13:49:10Z</time>
      </trkpt>
      <trkpt lat="47.757680000" lon="0.572330000">
        <ele>117.000000</ele>
        <time>2023-06-13T13:49:15Z</time>
      </trkpt>
      <trkpt lat="47.757660000" lon="0.572370000">
        <ele>117.000000</ele>
        <time>2023-06-13T13:49:18Z</time>
      </trkpt>
      <trkpt lat="47.757650000" lon="0.572420000">
        <ele>117.000000</ele>
        <time>2023-06-13T13:49:20Z</time>
      </trkpt>
      <trkpt lat="47.757600000" lon="0.572540000">
        <ele>118.000000</ele>
        <time>2023-06-13T13:49:27Z</time>
      </trkpt>
      <trkpt lat="47.757570000" lon="0.572650000">
        <ele>119.000000</ele>
        <time>2023-06-13T13:49:33Z</time>
      </trkpt>
      <trkpt lat="47.757550000" lon="0.572690000">
        <ele>119.000000</ele>
        <time>2023-06-13T13:49:35Z</time>
      </trkpt>
      <trkpt lat="47.757510000" lon="0.572850000">
        <ele>120.000000</ele>
        <time>2023-06-13T13:49:43Z</time>
      </trkpt>
      <trkpt lat="47.757490000" lon="0.572890000">
        <ele>119.000000</ele>
        <time>2023-06-13T13:49:45Z</time>
      </trkpt>
      <trkpt lat="47.757470000" lon="0.572980000">
        <ele>121.000000</ele>
        <time>2023-06-13T13:49:50Z</time>
      </trkpt>
      <trkpt lat="47.757360000" lon="0.573180000">
        <ele>119.000000</ele>
        <time>2023-06-13T13:50:03Z</time>
      </trkpt>
      <trkpt lat="47.757350000" lon="0.573220000">
        <ele>118.000000</ele>
        <time>2023-06-13T13:50:05Z</time>
      </trkpt>
      <trkpt lat="47.757310000" lon="0.573300000">
        <ele>118.000000</ele>
        <time>2023-06-13T13:50:10Z</time>
      </trkpt>
      <trkpt lat="47.757300000" lon="0.573340000">
        <ele>118.000000</ele>
        <time>2023-06-13T13:50:12Z</time>
      </trkpt>
      <trkpt lat="47.757240000" lon="0.573460000">
        <ele>120.000000</ele>
        <time>2023-06-13T13:50:19Z</time>
      </trkpt>
      <trkpt lat="47.757220000" lon="0.573550000">
        <ele>120.000000</ele>
        <time>2023-06-13T13:50:23Z</time>
      </trkpt>
      <trkpt lat="47.757200000" lon="0.573580000">
        <ele>120.000000</ele>
        <time>2023-06-13T13:50:25Z</time>
      </trkpt>
      <trkpt lat="47.757190000" lon="0.573620000">
        <ele>120.000000</ele>
        <time>2023-06-13T13:50:27Z</time>
      </trkpt>
      <trkpt lat="47.757170000" lon="0.573650000">
        <ele>120.000000</ele>
        <time>2023-06-13T13:50:29Z</time>
      </trkpt>
      <trkpt lat="47.757100000" lon="0.573830000">
        <ele>120.000000</ele>
        <time>2023-06-13T13:50:40Z</time>
      </trkpt>
      <trkpt lat="47.757090000" lon="0.573880000">
        <ele>120.000000</ele>
        <time>2023-06-13T13:50:42Z</time>
      </trkpt>
      <trkpt lat="47.757020000" lon="0.574050000">
        <ele>117.000000</ele>
        <time>2023-06-13T13:50:51Z</time>
      </trkpt>
      <trkpt lat="47.757000000" lon="0.574130000">
        <ele>117.000000</ele>
        <time>2023-06-13T13:50:55Z</time>
      </trkpt>
      <trkpt lat="47.756980000" lon="0.574160000">
        <ele>117.000000</ele>
        <time>2023-06-13T13:50:57Z</time>
      </trkpt>
      <trkpt lat="47.756960000" lon="0.574240000">
        <ele>116.000000</ele>
        <time>2023-06-13T13:51:01Z</time>
      </trkpt>
      <trkpt lat="47.756940000" lon="0.574280000">
        <ele>116.000000</ele>
        <time>2023-06-13T13:51:03Z</time>
      </trkpt>
      <trkpt lat="47.756890000" lon="0.574450000">
        <ele>116.000000</ele>
        <time>2023-06-13T13:51:12Z</time>
      </trkpt>
      <trkpt lat="47.756870000" lon="0.574480000">
        <ele>116.000000</ele>
        <time>2023-06-13T13:51:14Z</time>
      </trkpt>
      <trkpt lat="47.756840000" lon="0.574560000">
        <ele>116.000000</ele>
        <time>2023-06-13T13:51:19Z</time>
      </trkpt>
      <trkpt lat="47.756830000" lon="0.574610000">
        <ele>115.000000</ele>
        <time>2023-06-13T13:51:22Z</time>
      </trkpt>
      <trkpt lat="47.756790000" lon="0.574710000">
        <ele>115.000000</ele>
        <time>2023-06-13T13:51:28Z</time>
      </trkpt>
      <trkpt lat="47.756770000" lon="0.574800000">
        <ele>114.000000</ele>
        <time>2023-06-13T13:51:34Z</time>
      </trkpt>
      <trkpt lat="47.756720000" lon="0.574930000">
        <ele>113.000000</ele>
        <time>2023-06-13T13:51:40Z</time>
      </trkpt>
      <trkpt lat="47.756680000" lon="0.575100000">
        <ele>110.000000</ele>
        <time>2023-06-13T13:51:52Z</time>
      </trkpt>
      <trkpt lat="47.756640000" lon="0.575180000">
        <ele>108.000000</ele>
        <time>2023-06-13T13:51:56Z</time>
      </trkpt>
      <trkpt lat="47.756590000" lon="0.575310000">
        <ele>108.000000</ele>
        <time>2023-06-13T13:52:04Z</time>
      </trkpt>
      <trkpt lat="47.756580000" lon="0.575360000">
        <ele>108.000000</ele>
        <time>2023-06-13T13:52:07Z</time>
      </trkpt>
      <trkpt lat="47.756520000" lon="0.575480000">
        <ele>107.000000</ele>
        <time>2023-06-13T13:52:14Z</time>
      </trkpt>
      <trkpt lat="47.756480000" lon="0.575540000">
        <ele>105.000000</ele>
        <time>2023-06-13T13:52:19Z</time>
      </trkpt>
      <trkpt lat="47.756450000" lon="0.575560000">
        <ele>104.000000</ele>
        <time>2023-06-13T13:52:22Z</time>
      </trkpt>
      <trkpt lat="47.756410000" lon="0.575550000">
        <ele>104.000000</ele>
        <time>2023-06-13T13:52:25Z</time>
      </trkpt>
      <trkpt lat="47.756370000" lon="0.575490000">
        <ele>104.000000</ele>
        <time>2023-06-13T13:52:30Z</time>
      </trkpt>
      <trkpt lat="47.756290000" lon="0.575330000">
        <ele>104.000000</ele>
        <time>2023-06-13T13:52:42Z</time>
      </trkpt>
      <trkpt lat="47.756240000" lon="0.575250000">
        <ele>103.000000</ele>
        <time>2023-06-13T13:52:48Z</time>
      </trkpt>
      <trkpt lat="47.756210000" lon="0.575220000">
        <ele>102.000000</ele>
        <time>2023-06-13T13:52:50Z</time>
      </trkpt>
      <trkpt lat="47.756150000" lon="0.575130000">
        <ele>100.000000</ele>
        <time>2023-06-13T13:52:56Z</time>
      </trkpt>
      <trkpt lat="47.756140000" lon="0.575090000">
        <ele>100.000000</ele>
        <time>2023-06-13T13:52:59Z</time>
      </trkpt>
      <trkpt lat="47.756080000" lon="0.575020000">
        <ele>99.000000</ele>
        <time>2023-06-13T13:53:04Z</time>
      </trkpt>
      <trkpt lat="47.755960000" lon="0.574930000">
        <ele>100.000000</ele>
        <time>2023-06-13T13:53:12Z</time>
      </trkpt>
      <trkpt lat="47.755900000" lon="0.574910000">
        <ele>102.000000</ele>
        <time>2023-06-13T13:53:16Z</time>
      </trkpt>
      <trkpt lat="47.755790000" lon="0.574840000">
        <ele>104.000000</ele>
        <time>2023-06-13T13:53:24Z</time>
      </trkpt>
      <trkpt lat="47.755750000" lon="0.574830000">
        <ele>105.000000</ele>
        <time>2023-06-13T13:53:26Z</time>
      </trkpt>
      <trkpt lat="47.755700000" lon="0.574790000">
        <ele>106.000000</ele>
        <time>2023-06-13T13:53:30Z</time>
      </trkpt>
      <trkpt lat="47.755670000" lon="0.574780000">
        <ele>106.000000</ele>
        <time>2023-06-13T13:53:33Z</time>
      </trkpt>
      <trkpt lat="47.755600000" lon="0.574690000">
        <ele>102.000000</ele>
        <time>2023-06-13T13:53:42Z</time>
      </trkpt>
      <trkpt lat="47.755300000" lon="0.574390000">
        <ele>88.000000</ele>
        <time>2023-06-13T13:54:10Z</time>
      </trkpt>
      <trkpt lat="47.755280000" lon="0.574350000">
        <ele>87.000000</ele>
        <time>2023-06-13T13:54:13Z</time>
      </trkpt>
      <trkpt lat="47.755080000" lon="0.574170000">
        <ele>87.000000</ele>
        <time>2023-06-13T13:54:28Z</time>
      </trkpt>
      <trkpt lat="47.754850000" lon="0.574090000">
        <ele>87.000000</ele>
        <time>2023-06-13T13:54:46Z</time>
      </trkpt>
      <trkpt lat="47.754810000" lon="0.574090000">
        <ele>88.000000</ele>
        <time>2023-06-13T13:54:48Z</time>
      </trkpt>
      <trkpt lat="47.754720000" lon="0.574050000">
        <ele>87.000000</ele>
        <time>2023-06-13T13:54:54Z</time>
      </trkpt>
      <trkpt lat="47.754690000" lon="0.574050000">
        <ele>87.000000</ele>
        <time>2023-06-13T13:54:56Z</time>
      </trkpt>
      <trkpt lat="47.754660000" lon="0.574030000">
        <ele>87.000000</ele>
        <time>2023-06-13T13:54:58Z</time>
      </trkpt>
      <trkpt lat="47.754630000" lon="0.574030000">
        <ele>87.000000</ele>
        <time>2023-06-13T13:55:00Z</time>
      </trkpt>
      <trkpt lat="47.754440000" lon="0.573960000">
        <ele>86.000000</ele>
        <time>2023-06-13T13:55:16Z</time>
      </trkpt>
      <trkpt lat="47.754310000" lon="0.573940000">
        <ele>84.000000</ele>
        <time>2023-06-13T13:55:25Z</time>
      </trkpt>
      <trkpt lat="47.754250000" lon="0.573960000">
        <ele>84.000000</ele>
        <time>2023-06-13T13:55:29Z</time>
      </trkpt>
      <trkpt lat="47.754220000" lon="0.573990000">
        <ele>84.000000</ele>
        <time>2023-06-13T13:55:32Z</time>
      </trkpt>
      <trkpt lat="47.754180000" lon="0.574060000">
        <ele>83.000000</ele>
        <time>2023-06-13T13:55:36Z</time>
      </trkpt>
      <trkpt lat="47.754120000" lon="0.574250000">
        <ele>83.000000</ele>
        <time>2023-06-13T13:55:46Z</time>
      </trkpt>
      <trkpt lat="47.754090000" lon="0.574280000">
        <ele>82.000000</ele>
        <time>2023-06-13T13:55:49Z</time>
      </trkpt>
      <trkpt lat="47.754030000" lon="0.574290000">
        <ele>82.000000</ele>
        <time>2023-06-13T13:55:54Z</time>
      </trkpt>
      <trkpt lat="47.753970000" lon="0.574270000">
        <ele>82.000000</ele>
        <time>2023-06-13T13:55:59Z</time>
      </trkpt>
      <trkpt lat="47.753770000" lon="0.574160000">
        <ele>81.000000</ele>
        <time>2023-06-13T13:56:13Z</time>
      </trkpt>
      <trkpt lat="47.753710000" lon="0.574110000">
        <ele>83.000000</ele>
        <time>2023-06-13T13:56:18Z</time>
      </trkpt>
      <trkpt lat="47.753650000" lon="0.574090000">
        <ele>84.000000</ele>
        <time>2023-06-13T13:56:22Z</time>
      </trkpt>
      <trkpt lat="47.753530000" lon="0.574020000">
        <ele>84.000000</ele>
        <time>2023-06-13T13:56:32Z</time>
      </trkpt>
      <trkpt lat="47.753290000" lon="0.573950000">
        <ele>81.000000</ele>
        <time>2023-06-13T13:56:51Z</time>
      </trkpt>
      <trkpt lat="47.753260000" lon="0.573950000">
        <ele>80.000000</ele>
        <time>2023-06-13T13:56:53Z</time>
      </trkpt>
      <trkpt lat="47.753230000" lon="0.573930000">
        <ele>80.000000</ele>
        <time>2023-06-13T13:56:55Z</time>
      </trkpt>
      <trkpt lat="47.753100000" lon="0.573890000">
        <ele>79.000000</ele>
        <time>2023-06-13T13:57:05Z</time>
      </trkpt>
      <trkpt lat="47.752980000" lon="0.573880000">
        <ele>80.000000</ele>
        <time>2023-06-13T13:57:13Z</time>
      </trkpt>
      <trkpt lat="47.752800000" lon="0.573830000">
        <ele>80.000000</ele>
        <time>2023-06-13T13:57:26Z</time>
      </trkpt>
      <trkpt lat="47.752690000" lon="0.573830000">
        <ele>80.000000</ele>
        <time>2023-06-13T13:57:35Z</time>
      </trkpt>
      <trkpt lat="47.752660000" lon="0.573820000">
        <ele>80.000000</ele>
        <time>2023-06-13T13:57:37Z</time>
      </trkpt>
      <trkpt lat="47.752370000" lon="0.573820000">
        <ele>76.000000</ele>
        <time>2023-06-13T13:57:59Z</time>
      </trkpt>
      <trkpt lat="47.752340000" lon="0.573810000">
        <ele>76.000000</ele>
        <time>2023-06-13T13:58:02Z</time>
      </trkpt>
      <trkpt lat="47.752260000" lon="0.573810000">
        <ele>76.000000</ele>
        <time>2023-06-13T13:58:07Z</time>
      </trkpt>
      <trkpt lat="47.752190000" lon="0.573830000">
        <ele>75.000000</ele>
        <time>2023-06-13T13:58:13Z</time>
      </trkpt>
      <trkpt lat="47.752120000" lon="0.573830000">
        <ele>75.000000</ele>
        <time>2023-06-13T13:58:18Z</time>
      </trkpt>
      <trkpt lat="47.752050000" lon="0.573810000">
        <ele>75.000000</ele>
        <time>2023-06-13T13:58:23Z</time>
      </trkpt>
      <trkpt lat="47.751730000" lon="0.573800000">
        <ele>73.000000</ele>
        <time>2023-06-13T13:58:47Z</time>
      </trkpt>
      <trkpt lat="47.751650000" lon="0.573780000">
        <ele>73.000000</ele>
        <time>2023-06-13T13:58:53Z</time>
      </trkpt>
      <trkpt lat="47.751380000" lon="0.573790000">
        <ele>71.000000</ele>
        <time>2023-06-13T13:59:14Z</time>
      </trkpt>
      <trkpt lat="47.751340000" lon="0.573800000">
        <ele>71.000000</ele>
        <time>2023-06-13T13:59:17Z</time>
      </trkpt>
      <trkpt lat="47.751260000" lon="0.573790000">
        <ele>71.000000</ele>
        <time>2023-06-13T13:59:22Z</time>
      </trkpt>
      <trkpt lat="47.751230000" lon="0.573800000">
        <ele>71.000000</ele>
        <time>2023-06-13T13:59:25Z</time>
      </trkpt>
      <trkpt lat="47.751090000" lon="0.573800000">
        <ele>70.000000</ele>
        <time>2023-06-13T13:59:35Z</time>
      </trkpt>
      <trkpt lat="47.751050000" lon="0.573810000">
        <ele>69.000000</ele>
        <time>2023-06-13T13:59:38Z</time>
      </trkpt>
      <trkpt lat="47.750880000" lon="0.573810000">
        <ele>70.000000</ele>
        <time>2023-06-13T13:59:51Z</time>
      </trkpt>
      <trkpt lat="47.750840000" lon="0.573820000">
        <ele>69.000000</ele>
        <time>2023-06-13T13:59:54Z</time>
      </trkpt>
      <trkpt lat="47.750730000" lon="0.573810000">
        <ele>69.000000</ele>
        <time>2023-06-13T14:00:02Z</time>
      </trkpt>
      <trkpt lat="47.750630000" lon="0.573830000">
        <ele>68.000000</ele>
        <time>2023-06-13T14:00:09Z</time>
      </trkpt>
      <trkpt lat="47.750530000" lon="0.573830000">
        <ele>68.000000</ele>
        <time>2023-06-13T14:00:17Z</time>
      </trkpt>
      <trkpt lat="47.750490000" lon="0.573820000">
        <ele>68.000000</ele>
        <time>2023-06-13T14:00:20Z</time>
      </trkpt>
      <trkpt lat="47.750290000" lon="0.573840000">
        <ele>70.000000</ele>
        <time>2023-06-13T14:00:35Z</time>
      </trkpt>
      <trkpt lat="47.750220000" lon="0.573860000">
        <ele>70.000000</ele>
        <time>2023-06-13T14:00:40Z</time>
      </trkpt>
      <trkpt lat="47.750160000" lon="0.573900000">
        <ele>69.000000</ele>
        <time>2023-06-13T14:00:45Z</time>
      </trkpt>
      <trkpt lat="47.750120000" lon="0.573910000">
        <ele>69.000000</ele>
        <time>2023-06-13T14:00:48Z</time>
      </trkpt>
      <trkpt lat="47.750020000" lon="0.573970000">
        <ele>66.000000</ele>
        <time>2023-06-13T14:00:56Z</time>
      </trkpt>
      <trkpt lat="47.749930000" lon="0.573980000">
        <ele>65.000000</ele>
        <time>2023-06-13T14:01:02Z</time>
      </trkpt>
      <trkpt lat="47.749790000" lon="0.574030000">
        <ele>65.000000</ele>
        <time>2023-06-13T14:01:13Z</time>
      </trkpt>
      <trkpt lat="47.749760000" lon="0.574030000">
        <ele>65.000000</ele>
        <time>2023-06-13T14:01:15Z</time>
      </trkpt>
      <trkpt lat="47.749480000" lon="0.574120000">
        <ele>64.000000</ele>
        <time>2023-06-13T14:01:35Z</time>
      </trkpt>
      <trkpt lat="47.749390000" lon="0.574130000">
        <ele>65.000000</ele>
        <time>2023-06-13T14:01:42Z</time>
      </trkpt>
      <trkpt lat="47.749080000" lon="0.574210000">
        <ele>63.000000</ele>
        <time>2023-06-13T14:02:06Z</time>
      </trkpt>
      <trkpt lat="47.749040000" lon="0.574210000">
        <ele>63.000000</ele>
        <time>2023-06-13T14:02:08Z</time>
      </trkpt>
      <trkpt lat="47.748850000" lon="0.574280000">
        <ele>63.000000</ele>
        <time>2023-06-13T14:02:23Z</time>
      </trkpt>
      <trkpt lat="47.748750000" lon="0.574330000">
        <ele>63.000000</ele>
        <time>2023-06-13T14:02:30Z</time>
      </trkpt>
      <trkpt lat="47.748720000" lon="0.574360000">
        <ele>64.000000</ele>
        <time>2023-06-13T14:02:33Z</time>
      </trkpt>
      <trkpt lat="47.748590000" lon="0.574430000">
        <ele>63.000000</ele>
        <time>2023-06-13T14:02:43Z</time>
      </trkpt>
      <trkpt lat="47.748540000" lon="0.574480000">
        <ele>62.000000</ele>
        <time>2023-06-13T14:02:47Z</time>
      </trkpt>
      <trkpt lat="47.748250000" lon="0.574680000">
        <ele>61.000000</ele>
        <time>2023-06-13T14:03:11Z</time>
      </trkpt>
      <trkpt lat="47.748220000" lon="0.574710000">
        <ele>61.000000</ele>
        <time>2023-06-13T14:03:14Z</time>
      </trkpt>
      <trkpt lat="47.748180000" lon="0.574730000">
        <ele>61.000000</ele>
        <time>2023-06-13T14:03:17Z</time>
      </trkpt>
      <trkpt lat="47.748150000" lon="0.574760000">
        <ele>61.000000</ele>
        <time>2023-06-13T14:03:19Z</time>
      </trkpt>
      <trkpt lat="47.748060000" lon="0.574810000">
        <ele>62.000000</ele>
        <time>2023-06-13T14:03:26Z</time>
      </trkpt>
      <trkpt lat="47.748010000" lon="0.574860000">
        <ele>62.000000</ele>
        <time>2023-06-13T14:03:30Z</time>
      </trkpt>
      <trkpt lat="47.747860000" lon="0.574960000">
        <ele>62.000000</ele>
        <time>2023-06-13T14:03:43Z</time>
      </trkpt>
      <trkpt lat="47.747830000" lon="0.574970000">
        <ele>61.000000</ele>
        <time>2023-06-13T14:03:45Z</time>
      </trkpt>
      <trkpt lat="47.747620000" lon="0.575110000">
        <ele>61.000000</ele>
        <time>2023-06-13T14:04:02Z</time>
      </trkpt>
      <trkpt lat="47.747590000" lon="0.575120000">
        <ele>62.000000</ele>
        <time>2023-06-13T14:04:04Z</time>
      </trkpt>
      <trkpt lat="47.747420000" lon="0.575250000">
        <ele>61.000000</ele>
        <time>2023-06-13T14:04:19Z</time>
      </trkpt>
      <trkpt lat="47.747390000" lon="0.575260000">
        <ele>61.000000</ele>
        <time>2023-06-13T14:04:21Z</time>
      </trkpt>
      <trkpt lat="47.747360000" lon="0.575290000">
        <ele>61.000000</ele>
        <time>2023-06-13T14:04:24Z</time>
      </trkpt>
      <trkpt lat="47.747240000" lon="0.575350000">
        <ele>61.000000</ele>
        <time>2023-06-13T14:04:33Z</time>
      </trkpt>
      <trkpt lat="47.747070000" lon="0.575480000">
        <ele>60.000000</ele>
        <time>2023-06-13T14:04:46Z</time>
      </trkpt>
      <trkpt lat="47.746990000" lon="0.575560000">
        <ele>60.000000</ele>
        <time>2023-06-13T14:04:53Z</time>
      </trkpt>
      <trkpt lat="47.746900000" lon="0.575630000">
        <ele>59.000000</ele>
        <time>2023-06-13T14:05:01Z</time>
      </trkpt>
      <trkpt lat="47.746720000" lon="0.575800000">
        <ele>60.000000</ele>
        <time>2023-06-13T14:05:17Z</time>
      </trkpt>
      <trkpt lat="47.746580000" lon="0.575950000">
        <ele>60.000000</ele>
        <time>2023-06-13T14:05:30Z</time>
      </trkpt>
      <trkpt lat="47.746520000" lon="0.575990000">
        <ele>60.000000</ele>
        <time>2023-06-13T14:05:34Z</time>
      </trkpt>
      <trkpt lat="47.746230000" lon="0.576260000">
        <ele>59.000000</ele>
        <time>2023-06-13T14:06:00Z</time>
      </trkpt>
      <trkpt lat="47.746180000" lon="0.576320000">
        <ele>59.000000</ele>
        <time>2023-06-13T14:06:05Z</time>
      </trkpt>
      <trkpt lat="47.746120000" lon="0.576360000">
        <ele>59.000000</ele>
        <time>2023-06-13T14:06:09Z</time>
      </trkpt>
      <trkpt lat="47.746100000" lon="0.576390000">
        <ele>59.000000</ele>
        <time>2023-06-13T14:06:11Z</time>
      </trkpt>
      <trkpt lat="47.746040000" lon="0.576440000">
        <ele>59.000000</ele>
        <time>2023-06-13T14:06:16Z</time>
      </trkpt>
      <trkpt lat="47.745960000" lon="0.576540000">
        <ele>59.000000</ele>
        <time>2023-06-13T14:06:24Z</time>
      </trkpt>
      <trkpt lat="47.745810000" lon="0.576810000">
        <ele>58.000000</ele>
        <time>2023-06-13T14:06:41Z</time>
      </trkpt>
      <trkpt lat="47.745800000" lon="0.576850000">
        <ele>58.000000</ele>
        <time>2023-06-13T14:06:44Z</time>
      </trkpt>
      <trkpt lat="47.745760000" lon="0.576930000">
        <ele>58.000000</ele>
        <time>2023-06-13T14:06:49Z</time>
      </trkpt>
      <trkpt lat="47.745720000" lon="0.577070000">
        <ele>57.000000</ele>
        <time>2023-06-13T14:06:57Z</time>
      </trkpt>
      <trkpt lat="47.745680000" lon="0.577140000">
        <ele>58.000000</ele>
        <time>2023-06-13T14:07:01Z</time>
      </trkpt>
      <trkpt lat="47.745650000" lon="0.577230000">
        <ele>58.000000</ele>
        <time>2023-06-13T14:07:07Z</time>
      </trkpt>
      <trkpt lat="47.745610000" lon="0.577310000">
        <ele>58.000000</ele>
        <time>2023-06-13T14:07:11Z</time>
      </trkpt>
      <trkpt lat="47.745520000" lon="0.577550000">
        <ele>59.000000</ele>
        <time>2023-06-13T14:07:26Z</time>
      </trkpt>
      <trkpt lat="47.745490000" lon="0.577580000">
        <ele>59.000000</ele>
        <time>2023-06-13T14:07:29Z</time>
      </trkpt>
      <trkpt lat="47.745420000" lon="0.577610000">
        <ele>59.000000</ele>
        <time>2023-06-13T14:07:34Z</time>
      </trkpt>
      <trkpt lat="47.745170000" lon="0.577580000">
        <ele>62.000000</ele>
        <time>2023-06-13T14:07:52Z</time>
      </trkpt>
      <trkpt lat="47.745070000" lon="0.577580000">
        <ele>61.000000</ele>
        <time>2023-06-13T14:08:00Z</time>
      </trkpt>
      <trkpt lat="47.745040000" lon="0.577570000">
        <ele>61.000000</ele>
        <time>2023-06-13T14:08:02Z</time>
      </trkpt>
      <trkpt lat="47.744900000" lon="0.577570000">
        <ele>61.000000</ele>
        <time>2023-06-13T14:08:12Z</time>
      </trkpt>
      <trkpt lat="47.744830000" lon="0.577550000">
        <ele>60.000000</ele>
        <time>2023-06-13T14:08:18Z</time>
      </trkpt>
      <trkpt lat="47.744670000" lon="0.577530000">
        <ele>61.000000</ele>
        <time>2023-06-13T14:08:30Z</time>
      </trkpt>
      <trkpt lat="47.744570000" lon="0.577530000">
        <ele>61.000000</ele>
        <time>2023-06-13T14:08:37Z</time>
      </trkpt>
      <trkpt lat="47.744540000" lon="0.577520000">
        <ele>61.000000</ele>
        <time>2023-06-13T14:08:39Z</time>
      </trkpt>
      <trkpt lat="47.744520000" lon="0.577500000">
        <ele>61.000000</ele>
        <time>2023-06-13T14:08:41Z</time>
      </trkpt>
      <trkpt lat="47.744390000" lon="0.577500000">
        <ele>60.000000</ele>
        <time>2023-06-13T14:08:51Z</time>
      </trkpt>
      <trkpt lat="47.744270000" lon="0.577470000">
        <ele>60.000000</ele>
        <time>2023-06-13T14:08:59Z</time>
      </trkpt>
      <trkpt lat="47.744060000" lon="0.577470000">
        <ele>62.000000</ele>
        <time>2023-06-13T14:09:14Z</time>
      </trkpt>
      <trkpt lat="47.743820000" lon="0.577430000">
        <ele>61.000000</ele>
        <time>2023-06-13T14:09:32Z</time>
      </trkpt>
      <trkpt lat="47.743600000" lon="0.577430000">
        <ele>60.000000</ele>
        <time>2023-06-13T14:09:48Z</time>
      </trkpt>
      <trkpt lat="47.743480000" lon="0.577410000">
        <ele>61.000000</ele>
        <time>2023-06-13T14:09:56Z</time>
      </trkpt>
      <trkpt lat="47.743450000" lon="0.577420000">
        <ele>61.000000</ele>
        <time>2023-06-13T14:09:58Z</time>
      </trkpt>
      <trkpt lat="47.743300000" lon="0.577390000">
        <ele>61.000000</ele>
        <time>2023-06-13T14:10:09Z</time>
      </trkpt>
      <trkpt lat="47.743210000" lon="0.577390000">
        <ele>61.000000</ele>
        <time>2023-06-13T14:10:16Z</time>
      </trkpt>
      <trkpt lat="47.743110000" lon="0.577370000">
        <ele>62.000000</ele>
        <time>2023-06-13T14:10:23Z</time>
      </trkpt>
      <trkpt lat="47.742960000" lon="0.577370000">
        <ele>61.000000</ele>
        <time>2023-06-13T14:10:34Z</time>
      </trkpt>
      <trkpt lat="47.742820000" lon="0.577350000">
        <ele>60.000000</ele>
        <time>2023-06-13T14:10:44Z</time>
      </trkpt>
      <trkpt lat="47.742630000" lon="0.577340000">
        <ele>59.000000</ele>
        <time>2023-06-13T14:10:58Z</time>
      </trkpt>
      <trkpt lat="47.742560000" lon="0.577310000">
        <ele>59.000000</ele>
        <time>2023-06-13T14:11:04Z</time>
      </trkpt>
      <trkpt lat="47.742530000" lon="0.577280000">
        <ele>59.000000</ele>
        <time>2023-06-13T14:11:07Z</time>
      </trkpt>
      <trkpt lat="47.742510000" lon="0.577240000">
        <ele>59.000000</ele>
        <time>2023-06-13T14:11:09Z</time>
      </trkpt>
      <trkpt lat="47.742510000" lon="0.576940000">
        <ele>59.000000</ele>
        <time>2023-06-13T14:11:25Z</time>
      </trkpt>
      <trkpt lat="47.742530000" lon="0.576830000">
        <ele>59.000000</ele>
        <time>2023-06-13T14:11:31Z</time>
      </trkpt>
      <trkpt lat="47.742530000" lon="0.576740000">
        <ele>59.000000</ele>
        <time>2023-06-13T14:11:35Z</time>
      </trkpt>
      <trkpt lat="47.742540000" lon="0.576700000">
        <ele>60.000000</ele>
        <time>2023-06-13T14:11:37Z</time>
      </trkpt>
      <trkpt lat="47.742540000" lon="0.576560000">
        <ele>59.000000</ele>
        <time>2023-06-13T14:11:44Z</time>
      </trkpt>
      <trkpt lat="47.742550000" lon="0.576510000">
        <ele>58.000000</ele>
        <time>2023-06-13T14:11:47Z</time>
      </trkpt>
      <trkpt lat="47.742550000" lon="0.576250000">
        <ele>58.000000</ele>
        <time>2023-06-13T14:11:59Z</time>
      </trkpt>
      <trkpt lat="47.742520000" lon="0.576130000">
        <ele>58.000000</ele>
        <time>2023-06-13T14:12:05Z</time>
      </trkpt>
      <trkpt lat="47.742400000" lon="0.576000000">
        <ele>57.000000</ele>
        <time>2023-06-13T14:12:15Z</time>
      </trkpt>
      <trkpt lat="47.742300000" lon="0.575950000">
        <ele>56.000000</ele>
        <time>2023-06-13T14:12:23Z</time>
      </trkpt>
      <trkpt lat="47.742270000" lon="0.575920000">
        <ele>55.000000</ele>
        <time>2023-06-13T14:12:26Z</time>
      </trkpt>
      <trkpt lat="47.742170000" lon="0.575860000">
        <ele>52.000000</ele>
        <time>2023-06-13T14:12:35Z</time>
      </trkpt>
      <trkpt lat="47.742130000" lon="0.575850000">
        <ele>52.000000</ele>
        <time>2023-06-13T14:12:37Z</time>
      </trkpt>
      <trkpt lat="47.742030000" lon="0.575770000">
        <ele>55.000000</ele>
        <time>2023-06-13T14:12:45Z</time>
      </trkpt>
      <trkpt lat="47.741930000" lon="0.575710000">
        <ele>57.000000</ele>
        <time>2023-06-13T14:12:53Z</time>
      </trkpt>
      <trkpt lat="47.741790000" lon="0.575600000">
        <ele>55.000000</ele>
        <time>2023-06-13T14:13:09Z</time>
      </trkpt>
      <trkpt lat="47.741760000" lon="0.575590000">
        <ele>55.000000</ele>
        <time>2023-06-13T14:13:12Z</time>
      </trkpt>
      <trkpt lat="47.741700000" lon="0.575540000">
        <ele>55.000000</ele>
        <time>2023-06-13T14:13:19Z</time>
      </trkpt>
      <trkpt lat="47.741690000" lon="0.575510000">
        <ele>57.000000</ele>
        <time>2023-06-13T14:13:31Z</time>
      </trkpt>
      <trkpt lat="47.741690000" lon="0.575460000">
        <ele>57.000000</ele>
        <time>2023-06-13T14:13:39Z</time>
      </trkpt>
      <trkpt lat="47.741680000" lon="0.575430000">
        <ele>58.000000</ele>
        <time>2023-06-13T14:14:10Z</time>
      </trkpt>
      <trkpt lat="47.741590000" lon="0.575390000">
        <ele>60.000000</ele>
        <time>2023-06-13T14:14:19Z</time>
      </trkpt>
      <trkpt lat="47.741480000" lon="0.575210000">
        <ele>62.000000</ele>
        <time>2023-06-13T14:14:32Z</time>
      </trkpt>
      <trkpt lat="47.741450000" lon="0.575180000">
        <ele>62.000000</ele>
        <time>2023-06-13T14:14:34Z</time>
      </trkpt>
      <trkpt lat="47.741390000" lon="0.575070000">
        <ele>64.000000</ele>
        <time>2023-06-13T14:14:40Z</time>
      </trkpt>
      <trkpt lat="47.741320000" lon="0.574970000">
        <ele>64.000000</ele>
        <time>2023-06-13T14:14:48Z</time>
      </trkpt>
      <trkpt lat="47.741240000" lon="0.574830000">
        <ele>63.000000</ele>
        <time>2023-06-13T14:14:58Z</time>
      </trkpt>
      <trkpt lat="47.741110000" lon="0.574640000">
        <ele>62.000000</ele>
        <time>2023-06-13T14:15:12Z</time>
      </trkpt>
      <trkpt lat="47.741070000" lon="0.574560000">
        <ele>61.000000</ele>
        <time>2023-06-13T14:15:17Z</time>
      </trkpt>
      <trkpt lat="47.740980000" lon="0.574430000">
        <ele>60.000000</ele>
        <time>2023-06-13T14:15:26Z</time>
      </trkpt>
      <trkpt lat="47.740950000" lon="0.574400000">
        <ele>60.000000</ele>
        <time>2023-06-13T14:15:29Z</time>
      </trkpt>
      <trkpt lat="47.740930000" lon="0.574360000">
        <ele>60.000000</ele>
        <time>2023-06-13T14:15:32Z</time>
      </trkpt>
      <trkpt lat="47.740840000" lon="0.574260000">
        <ele>58.000000</ele>
        <time>2023-06-13T14:15:40Z</time>
      </trkpt>
      <trkpt lat="47.740770000" lon="0.574160000">
        <ele>59.000000</ele>
        <time>2023-06-13T14:15:48Z</time>
      </trkpt>
      <trkpt lat="47.740610000" lon="0.573980000">
        <ele>57.000000</ele>
        <time>2023-06-13T14:16:02Z</time>
      </trkpt>
      <trkpt lat="47.740580000" lon="0.573960000">
        <ele>58.000000</ele>
        <time>2023-06-13T14:16:05Z</time>
      </trkpt>
      <trkpt lat="47.740560000" lon="0.573930000">
        <ele>58.000000</ele>
        <time>2023-06-13T14:16:07Z</time>
      </trkpt>
      <trkpt lat="47.740500000" lon="0.573880000">
        <ele>57.000000</ele>
        <time>2023-06-13T14:16:12Z</time>
      </trkpt>
      <trkpt lat="47.740480000" lon="0.573840000">
        <ele>56.000000</ele>
        <time>2023-06-13T14:16:15Z</time>
      </trkpt>
      <trkpt lat="47.740420000" lon="0.573780000">
        <ele>55.000000</ele>
        <time>2023-06-13T14:16:21Z</time>
      </trkpt>
      <trkpt lat="47.740260000" lon="0.573580000">
        <ele>56.000000</ele>
        <time>2023-06-13T14:16:37Z</time>
      </trkpt>
      <trkpt lat="47.740110000" lon="0.573370000">
        <ele>57.000000</ele>
        <time>2023-06-13T14:16:52Z</time>
      </trkpt>
      <trkpt lat="47.740090000" lon="0.573330000">
        <ele>57.000000</ele>
        <time>2023-06-13T14:16:54Z</time>
      </trkpt>
      <trkpt lat="47.739960000" lon="0.573150000">
        <ele>57.000000</ele>
        <time>2023-06-13T14:17:06Z</time>
      </trkpt>
      <trkpt lat="47.739940000" lon="0.573110000">
        <ele>58.000000</ele>
        <time>2023-06-13T14:17:09Z</time>
      </trkpt>
      <trkpt lat="47.739910000" lon="0.573090000">
        <ele>58.000000</ele>
        <time>2023-06-13T14:17:11Z</time>
      </trkpt>
      <trkpt lat="47.739810000" lon="0.572950000">
        <ele>59.000000</ele>
        <time>2023-06-13T14:17:23Z</time>
      </trkpt>
      <trkpt lat="47.739750000" lon="0.572900000">
        <ele>59.000000</ele>
        <time>2023-06-13T14:17:29Z</time>
      </trkpt>
      <trkpt lat="47.739730000" lon="0.572810000">
        <ele>58.000000</ele>
        <time>2023-06-13T14:17:34Z</time>
      </trkpt>
      <trkpt lat="47.739730000" lon="0.572710000">
        <ele>58.000000</ele>
        <time>2023-06-13T14:17:40Z</time>
      </trkpt>
      <trkpt lat="47.739740000" lon="0.572660000">
        <ele>59.000000</ele>
        <time>2023-06-13T14:17:43Z</time>
      </trkpt>
      <trkpt lat="47.739740000" lon="0.572610000">
        <ele>59.000000</ele>
        <time>2023-06-13T14:17:46Z</time>
      </trkpt>
      <trkpt lat="47.739650000" lon="0.572470000">
        <ele>60.000000</ele>
        <time>2023-06-13T14:18:03Z</time>
      </trkpt>
      <trkpt lat="47.739660000" lon="0.572380000">
        <ele>59.000000</ele>
        <time>2023-06-13T14:18:09Z</time>
      </trkpt>
      <trkpt lat="47.739700000" lon="0.572290000">
        <ele>59.000000</ele>
        <time>2023-06-13T14:18:15Z</time>
      </trkpt>
      <trkpt lat="47.739740000" lon="0.572070000">
        <ele>58.000000</ele>
        <time>2023-06-13T14:18:26Z</time>
      </trkpt>
      <trkpt lat="47.739740000" lon="0.572030000">
        <ele>58.000000</ele>
        <time>2023-06-13T14:18:28Z</time>
      </trkpt>
      <trkpt lat="47.739780000" lon="0.571840000">
        <ele>59.000000</ele>
        <time>2023-06-13T14:18:38Z</time>
      </trkpt>
      <trkpt lat="47.739780000" lon="0.571800000">
        <ele>59.000000</ele>
        <time>2023-06-13T14:18:40Z</time>
      </trkpt>
      <trkpt lat="47.739800000" lon="0.571700000">
        <ele>59.000000</ele>
        <time>2023-06-13T14:18:45Z</time>
      </trkpt>
      <trkpt lat="47.739800000" lon="0.571650000">
        <ele>58.000000</ele>
        <time>2023-06-13T14:18:48Z</time>
      </trkpt>
      <trkpt lat="47.739840000" lon="0.571500000">
        <ele>58.000000</ele>
        <time>2023-06-13T14:18:56Z</time>
      </trkpt>
      <trkpt lat="47.739840000" lon="0.571450000">
        <ele>57.000000</ele>
        <time>2023-06-13T14:19:06Z</time>
      </trkpt>
      <trkpt lat="47.739850000" lon="0.571410000">
        <ele>56.000000</ele>
        <time>2023-06-13T14:19:08Z</time>
      </trkpt>
      <trkpt lat="47.739850000" lon="0.571350000">
        <ele>56.000000</ele>
        <time>2023-06-13T14:19:11Z</time>
      </trkpt>
      <trkpt lat="47.739950000" lon="0.570920000">
        <ele>58.000000</ele>
        <time>2023-06-13T14:19:32Z</time>
      </trkpt>
      <trkpt lat="47.739950000" lon="0.570880000">
        <ele>58.000000</ele>
        <time>2023-06-13T14:19:34Z</time>
      </trkpt>
      <trkpt lat="47.739990000" lon="0.570700000">
        <ele>57.000000</ele>
        <time>2023-06-13T14:19:43Z</time>
      </trkpt>
      <trkpt lat="47.739990000" lon="0.570610000">
        <ele>57.000000</ele>
        <time>2023-06-13T14:19:47Z</time>
      </trkpt>
      <trkpt lat="47.740040000" lon="0.570410000">
        <ele>56.000000</ele>
        <time>2023-06-13T14:19:58Z</time>
      </trkpt>
      <trkpt lat="47.740040000" lon="0.570360000">
        <ele>55.000000</ele>
        <time>2023-06-13T14:20:01Z</time>
      </trkpt>
      <trkpt lat="47.740090000" lon="0.570110000">
        <ele>57.000000</ele>
        <time>2023-06-13T14:20:12Z</time>
      </trkpt>
      <trkpt lat="47.740090000" lon="0.570060000">
        <ele>57.000000</ele>
        <time>2023-06-13T14:20:14Z</time>
      </trkpt>
      <trkpt lat="47.740110000" lon="0.569980000">
        <ele>58.000000</ele>
        <time>2023-06-13T14:20:18Z</time>
      </trkpt>
      <trkpt lat="47.740130000" lon="0.569940000">
        <ele>58.000000</ele>
        <time>2023-06-13T14:20:20Z</time>
      </trkpt>
      <trkpt lat="47.740130000" lon="0.569900000">
        <ele>58.000000</ele>
        <time>2023-06-13T14:20:22Z</time>
      </trkpt>
      <trkpt lat="47.740160000" lon="0.569750000">
        <ele>58.000000</ele>
        <time>2023-06-13T14:20:30Z</time>
      </trkpt>
      <trkpt lat="47.740150000" lon="0.569710000">
        <ele>58.000000</ele>
        <time>2023-06-13T14:20:32Z</time>
      </trkpt>
      <trkpt lat="47.740160000" lon="0.569670000">
        <ele>58.000000</ele>
        <time>2023-06-13T14:20:35Z</time>
      </trkpt>
      <trkpt lat="47.740150000" lon="0.569630000">
        <ele>58.000000</ele>
        <time>2023-06-13T14:20:49Z</time>
      </trkpt>
      <trkpt lat="47.740150000" lon="0.569580000">
        <ele>58.000000</ele>
        <time>2023-06-13T14:20:51Z</time>
      </trkpt>
      <trkpt lat="47.740280000" lon="0.569020000">
        <ele>58.000000</ele>
        <time>2023-06-13T14:21:19Z</time>
      </trkpt>
      <trkpt lat="47.740290000" lon="0.568850000">
        <ele>58.000000</ele>
        <time>2023-06-13T14:21:28Z</time>
      </trkpt>
      <trkpt lat="47.740340000" lon="0.568620000">
        <ele>59.000000</ele>
        <time>2023-06-13T14:21:39Z</time>
      </trkpt>
      <trkpt lat="47.740340000" lon="0.568580000">
        <ele>59.000000</ele>
        <time>2023-06-13T14:21:41Z</time>
      </trkpt>
      <trkpt lat="47.740380000" lon="0.568390000">
        <ele>59.000000</ele>
        <time>2023-06-13T14:21:52Z</time>
      </trkpt>
      <trkpt lat="47.740400000" lon="0.568350000">
        <ele>58.000000</ele>
        <time>2023-06-13T14:21:54Z</time>
      </trkpt>
      <trkpt lat="47.740400000" lon="0.568310000">
        <ele>58.000000</ele>
        <time>2023-06-13T14:21:56Z</time>
      </trkpt>
      <trkpt lat="47.740440000" lon="0.568140000">
        <ele>56.000000</ele>
        <time>2023-06-13T14:22:04Z</time>
      </trkpt>
      <trkpt lat="47.740440000" lon="0.568090000">
        <ele>56.000000</ele>
        <time>2023-06-13T14:22:06Z</time>
      </trkpt>
      <trkpt lat="47.740510000" lon="0.567740000">
        <ele>55.000000</ele>
        <time>2023-06-13T14:22:25Z</time>
      </trkpt>
      <trkpt lat="47.740510000" lon="0.567690000">
        <ele>55.000000</ele>
        <time>2023-06-13T14:22:27Z</time>
      </trkpt>
      <trkpt lat="47.740530000" lon="0.567590000">
        <ele>56.000000</ele>
        <time>2023-06-13T14:22:32Z</time>
      </trkpt>
      <trkpt lat="47.740530000" lon="0.567540000">
        <ele>56.000000</ele>
        <time>2023-06-13T14:22:34Z</time>
      </trkpt>
      <trkpt lat="47.740560000" lon="0.567380000">
        <ele>56.000000</ele>
        <time>2023-06-13T14:22:42Z</time>
      </trkpt>
      <trkpt lat="47.740620000" lon="0.567130000">
        <ele>57.000000</ele>
        <time>2023-06-13T14:22:54Z</time>
      </trkpt>
      <trkpt lat="47.740620000" lon="0.567080000">
        <ele>57.000000</ele>
        <time>2023-06-13T14:22:57Z</time>
      </trkpt>
      <trkpt lat="47.740650000" lon="0.566940000">
        <ele>57.000000</ele>
        <time>2023-06-13T14:23:03Z</time>
      </trkpt>
      <trkpt lat="47.740650000" lon="0.566900000">
        <ele>57.000000</ele>
        <time>2023-06-13T14:23:05Z</time>
      </trkpt>
      <trkpt lat="47.740660000" lon="0.566860000">
        <ele>57.000000</ele>
        <time>2023-06-13T14:23:07Z</time>
      </trkpt>
      <trkpt lat="47.740670000" lon="0.566690000">
        <ele>58.000000</ele>
        <time>2023-06-13T14:23:15Z</time>
      </trkpt>
      <trkpt lat="47.740730000" lon="0.566410000">
        <ele>58.000000</ele>
        <time>2023-06-13T14:23:30Z</time>
      </trkpt>
      <trkpt lat="47.740730000" lon="0.566370000">
        <ele>58.000000</ele>
        <time>2023-06-13T14:23:32Z</time>
      </trkpt>
      <trkpt lat="47.740770000" lon="0.566190000">
        <ele>55.000000</ele>
        <time>2023-06-13T14:23:41Z</time>
      </trkpt>
      <trkpt lat="47.740770000" lon="0.566150000">
        <ele>54.000000</ele>
        <time>2023-06-13T14:23:43Z</time>
      </trkpt>
      <trkpt lat="47.740790000" lon="0.566070000">
        <ele>54.000000</ele>
        <time>2023-06-13T14:23:47Z</time>
      </trkpt>
      <trkpt lat="47.740790000" lon="0.566030000">
        <ele>54.000000</ele>
        <time>2023-06-13T14:23:49Z</time>
      </trkpt>
      <trkpt lat="47.740800000" lon="0.565990000">
        <ele>54.000000</ele>
        <time>2023-06-13T14:23:51Z</time>
      </trkpt>
      <trkpt lat="47.740800000" lon="0.565900000">
        <ele>54.000000</ele>
        <time>2023-06-13T14:23:55Z</time>
      </trkpt>
      <trkpt lat="47.740810000" lon="0.565860000">
        <ele>55.000000</ele>
        <time>2023-06-13T14:23:57Z</time>
      </trkpt>
      <trkpt lat="47.740810000" lon="0.565810000">
        <ele>55.000000</ele>
        <time>2023-06-13T14:23:59Z</time>
      </trkpt>
      <trkpt lat="47.740820000" lon="0.565770000">
        <ele>55.000000</ele>
        <time>2023-06-13T14:24:01Z</time>
      </trkpt>
      <trkpt lat="47.740820000" lon="0.565670000">
        <ele>56.000000</ele>
        <time>2023-06-13T14:24:06Z</time>
      </trkpt>
      <trkpt lat="47.740830000" lon="0.565570000">
        <ele>57.000000</ele>
        <time>2023-06-13T14:24:11Z</time>
      </trkpt>
      <trkpt lat="47.740870000" lon="0.565400000">
        <ele>57.000000</ele>
        <time>2023-06-13T14:24:19Z</time>
      </trkpt>
      <trkpt lat="47.740870000" lon="0.565360000">
        <ele>57.000000</ele>
        <time>2023-06-13T14:24:22Z</time>
      </trkpt>
      <trkpt lat="47.740900000" lon="0.565190000">
        <ele>56.000000</ele>
        <time>2023-06-13T14:24:31Z</time>
      </trkpt>
      <trkpt lat="47.740900000" lon="0.565140000">
        <ele>56.000000</ele>
        <time>2023-06-13T14:24:33Z</time>
      </trkpt>
      <trkpt lat="47.740910000" lon="0.565100000">
        <ele>57.000000</ele>
        <time>2023-06-13T14:24:35Z</time>
      </trkpt>
      <trkpt lat="47.740910000" lon="0.565050000">
        <ele>57.000000</ele>
        <time>2023-06-13T14:24:37Z</time>
      </trkpt>
      <trkpt lat="47.740920000" lon="0.565000000">
        <ele>57.000000</ele>
        <time>2023-06-13T14:24:40Z</time>
      </trkpt>
      <trkpt lat="47.740920000" lon="0.564940000">
        <ele>57.000000</ele>
        <time>2023-06-13T14:24:43Z</time>
      </trkpt>
      <trkpt lat="47.740930000" lon="0.564890000">
        <ele>56.000000</ele>
        <time>2023-06-13T14:24:46Z</time>
      </trkpt>
      <trkpt lat="47.740930000" lon="0.564840000">
        <ele>56.000000</ele>
        <time>2023-06-13T14:24:48Z</time>
      </trkpt>
      <trkpt lat="47.740960000" lon="0.564710000">
        <ele>56.000000</ele>
        <time>2023-06-13T14:24:54Z</time>
      </trkpt>
      <trkpt lat="47.740960000" lon="0.564660000">
        <ele>56.000000</ele>
        <time>2023-06-13T14:24:56Z</time>
      </trkpt>
      <trkpt lat="47.740970000" lon="0.564620000">
        <ele>56.000000</ele>
        <time>2023-06-13T14:24:58Z</time>
      </trkpt>
      <trkpt lat="47.740970000" lon="0.564570000">
        <ele>56.000000</ele>
        <time>2023-06-13T14:25:01Z</time>
      </trkpt>
      <trkpt lat="47.741030000" lon="0.564290000">
        <ele>55.000000</ele>
        <time>2023-06-13T14:25:15Z</time>
      </trkpt>
      <trkpt lat="47.741030000" lon="0.564200000">
        <ele>54.000000</ele>
        <time>2023-06-13T14:25:20Z</time>
      </trkpt>
      <trkpt lat="47.741050000" lon="0.564110000">
        <ele>53.000000</ele>
        <time>2023-06-13T14:25:25Z</time>
      </trkpt>
      <trkpt lat="47.741050000" lon="0.564070000">
        <ele>53.000000</ele>
        <time>2023-06-13T14:25:27Z</time>
      </trkpt>
      <trkpt lat="47.741070000" lon="0.563980000">
        <ele>52.000000</ele>
        <time>2023-06-13T14:25:31Z</time>
      </trkpt>
      <trkpt lat="47.741070000" lon="0.563900000">
        <ele>52.000000</ele>
        <time>2023-06-13T14:25:35Z</time>
      </trkpt>
      <trkpt lat="47.741050000" lon="0.563810000">
        <ele>52.000000</ele>
        <time>2023-06-13T14:25:39Z</time>
      </trkpt>
      <trkpt lat="47.741060000" lon="0.563770000">
        <ele>53.000000</ele>
        <time>2023-06-13T14:25:41Z</time>
      </trkpt>
      <trkpt lat="47.741060000" lon="0.563730000">
        <ele>53.000000</ele>
        <time>2023-06-13T14:25:43Z</time>
      </trkpt>
      <trkpt lat="47.741080000" lon="0.563640000">
        <ele>54.000000</ele>
        <time>2023-06-13T14:25:47Z</time>
      </trkpt>
      <trkpt lat="47.741080000" lon="0.563550000">
        <ele>55.000000</ele>
        <time>2023-06-13T14:25:51Z</time>
      </trkpt>
      <trkpt lat="47.741090000" lon="0.563500000">
        <ele>55.000000</ele>
        <time>2023-06-13T14:25:53Z</time>
      </trkpt>
      <trkpt lat="47.741090000" lon="0.563450000">
        <ele>55.000000</ele>
        <time>2023-06-13T14:25:56Z</time>
      </trkpt>
      <trkpt lat="47.741140000" lon="0.563240000">
        <ele>57.000000</ele>
        <time>2023-06-13T14:26:06Z</time>
      </trkpt>
      <trkpt lat="47.741140000" lon="0.563190000">
        <ele>57.000000</ele>
        <time>2023-06-13T14:26:09Z</time>
      </trkpt>
      <trkpt lat="47.741160000" lon="0.563050000">
        <ele>57.000000</ele>
        <time>2023-06-13T14:26:16Z</time>
      </trkpt>
      <trkpt lat="47.741160000" lon="0.562990000">
        <ele>57.000000</ele>
        <time>2023-06-13T14:26:19Z</time>
      </trkpt>
      <trkpt lat="47.741180000" lon="0.562820000">
        <ele>58.000000</ele>
        <time>2023-06-13T14:26:27Z</time>
      </trkpt>
      <trkpt lat="47.741210000" lon="0.562690000">
        <ele>58.000000</ele>
        <time>2023-06-13T14:26:33Z</time>
      </trkpt>
      <trkpt lat="47.741210000" lon="0.562600000">
        <ele>58.000000</ele>
        <time>2023-06-13T14:26:37Z</time>
      </trkpt>
      <trkpt lat="47.741280000" lon="0.562290000">
        <ele>59.000000</ele>
        <time>2023-06-13T14:26:53Z</time>
      </trkpt>
      <trkpt lat="47.741300000" lon="0.562240000">
        <ele>59.000000</ele>
        <time>2023-06-13T14:26:56Z</time>
      </trkpt>
      <trkpt lat="47.741300000" lon="0.562190000">
        <ele>59.000000</ele>
        <time>2023-06-13T14:26:59Z</time>
      </trkpt>
      <trkpt lat="47.741320000" lon="0.562090000">
        <ele>59.000000</ele>
        <time>2023-06-13T14:27:09Z</time>
      </trkpt>
      <trkpt lat="47.741320000" lon="0.561960000">
        <ele>59.000000</ele>
        <time>2023-06-13T14:27:15Z</time>
      </trkpt>
      <trkpt lat="47.741350000" lon="0.561770000">
        <ele>57.000000</ele>
        <time>2023-06-13T14:27:25Z</time>
      </trkpt>
      <trkpt lat="47.741350000" lon="0.561540000">
        <ele>57.000000</ele>
        <time>2023-06-13T14:27:36Z</time>
      </trkpt>
      <trkpt lat="47.741370000" lon="0.561450000">
        <ele>57.000000</ele>
        <time>2023-06-13T14:27:41Z</time>
      </trkpt>
      <trkpt lat="47.741370000" lon="0.561300000">
        <ele>57.000000</ele>
        <time>2023-06-13T14:27:48Z</time>
      </trkpt>
      <trkpt lat="47.741380000" lon="0.561260000">
        <ele>58.000000</ele>
        <time>2023-06-13T14:27:50Z</time>
      </trkpt>
      <trkpt lat="47.741380000" lon="0.561220000">
        <ele>58.000000</ele>
        <time>2023-06-13T14:27:52Z</time>
      </trkpt>
      <trkpt lat="47.741420000" lon="0.561050000">
        <ele>58.000000</ele>
        <time>2023-06-13T14:28:00Z</time>
      </trkpt>
      <trkpt lat="47.741420000" lon="0.560950000">
        <ele>59.000000</ele>
        <time>2023-06-13T14:28:05Z</time>
      </trkpt>
      <trkpt lat="47.741460000" lon="0.560770000">
        <ele>59.000000</ele>
        <time>2023-06-13T14:28:14Z</time>
      </trkpt>
      <trkpt lat="47.741460000" lon="0.560730000">
        <ele>59.000000</ele>
        <time>2023-06-13T14:28:16Z</time>
      </trkpt>
      <trkpt lat="47.741470000" lon="0.560690000">
        <ele>59.000000</ele>
        <time>2023-06-13T14:28:18Z</time>
      </trkpt>
      <trkpt lat="47.741480000" lon="0.560550000">
        <ele>57.000000</ele>
        <time>2023-06-13T14:28:26Z</time>
      </trkpt>
      <trkpt lat="47.741510000" lon="0.560400000">
        <ele>55.000000</ele>
        <time>2023-06-13T14:28:35Z</time>
      </trkpt>
      <trkpt lat="47.741510000" lon="0.560300000">
        <ele>54.000000</ele>
        <time>2023-06-13T14:28:39Z</time>
      </trkpt>
      <trkpt lat="47.741540000" lon="0.560160000">
        <ele>53.000000</ele>
        <time>2023-06-13T14:28:46Z</time>
      </trkpt>
      <trkpt lat="47.741540000" lon="0.560020000">
        <ele>55.000000</ele>
        <time>2023-06-13T14:28:53Z</time>
      </trkpt>
      <trkpt lat="47.741560000" lon="0.559910000">
        <ele>55.000000</ele>
        <time>2023-06-13T14:28:58Z</time>
      </trkpt>
      <trkpt lat="47.741560000" lon="0.559860000">
        <ele>55.000000</ele>
        <time>2023-06-13T14:29:00Z</time>
      </trkpt>
      <trkpt lat="47.741580000" lon="0.559810000">
        <ele>55.000000</ele>
        <time>2023-06-13T14:29:03Z</time>
      </trkpt>
      <trkpt lat="47.741600000" lon="0.559700000">
        <ele>55.000000</ele>
        <time>2023-06-13T14:29:09Z</time>
      </trkpt>
      <trkpt lat="47.741600000" lon="0.559650000">
        <ele>55.000000</ele>
        <time>2023-06-13T14:29:12Z</time>
      </trkpt>
      <trkpt lat="47.741610000" lon="0.559600000">
        <ele>55.000000</ele>
        <time>2023-06-13T14:29:14Z</time>
      </trkpt>
      <trkpt lat="47.741610000" lon="0.559520000">
        <ele>55.000000</ele>
        <time>2023-06-13T14:29:18Z</time>
      </trkpt>
      <trkpt lat="47.741660000" lon="0.559280000">
        <ele>54.000000</ele>
        <time>2023-06-13T14:29:30Z</time>
      </trkpt>
      <trkpt lat="47.741670000" lon="0.559170000">
        <ele>54.000000</ele>
        <time>2023-06-13T14:29:36Z</time>
      </trkpt>
      <trkpt lat="47.741670000" lon="0.559030000">
        <ele>54.000000</ele>
        <time>2023-06-13T14:29:42Z</time>
      </trkpt>
      <trkpt lat="47.741720000" lon="0.558770000">
        <ele>55.000000</ele>
        <time>2023-06-13T14:29:56Z</time>
      </trkpt>
      <trkpt lat="47.741720000" lon="0.558680000">
        <ele>55.000000</ele>
        <time>2023-06-13T14:30:00Z</time>
      </trkpt>
      <trkpt lat="47.741730000" lon="0.558590000">
        <ele>54.000000</ele>
        <time>2023-06-13T14:30:04Z</time>
      </trkpt>
      <trkpt lat="47.741750000" lon="0.558510000">
        <ele>55.000000</ele>
        <time>2023-06-13T14:30:08Z</time>
      </trkpt>
      <trkpt lat="47.741750000" lon="0.558460000">
        <ele>55.000000</ele>
        <time>2023-06-13T14:30:11Z</time>
      </trkpt>
      <trkpt lat="47.741760000" lon="0.558410000">
        <ele>55.000000</ele>
        <time>2023-06-13T14:30:14Z</time>
      </trkpt>
      <trkpt lat="47.741760000" lon="0.558320000">
        <ele>55.000000</ele>
        <time>2023-06-13T14:30:18Z</time>
      </trkpt>
      <trkpt lat="47.741780000" lon="0.558140000">
        <ele>56.000000</ele>
        <time>2023-06-13T14:30:26Z</time>
      </trkpt>
      <trkpt lat="47.741800000" lon="0.558040000">
        <ele>56.000000</ele>
        <time>2023-06-13T14:30:32Z</time>
      </trkpt>
      <trkpt lat="47.741800000" lon="0.557950000">
        <ele>56.000000</ele>
        <time>2023-06-13T14:30:36Z</time>
      </trkpt>
      <trkpt lat="47.741830000" lon="0.557720000">
        <ele>57.000000</ele>
        <time>2023-06-13T14:30:47Z</time>
      </trkpt>
      <trkpt lat="47.741830000" lon="0.557620000">
        <ele>57.000000</ele>
        <time>2023-06-13T14:30:53Z</time>
      </trkpt>
      <trkpt lat="47.741840000" lon="0.557570000">
        <ele>57.000000</ele>
        <time>2023-06-13T14:30:56Z</time>
      </trkpt>
      <trkpt lat="47.741840000" lon="0.557470000">
        <ele>57.000000</ele>
        <time>2023-06-13T14:31:02Z</time>
      </trkpt>
      <trkpt lat="47.741820000" lon="0.557420000">
        <ele>57.000000</ele>
        <time>2023-06-13T14:31:05Z</time>
      </trkpt>
      <trkpt lat="47.741830000" lon="0.557380000">
        <ele>57.000000</ele>
        <time>2023-06-13T14:31:13Z</time>
      </trkpt>
      <trkpt lat="47.741790000" lon="0.557330000">
        <ele>57.000000</ele>
        <time>2023-06-13T14:31:29Z</time>
      </trkpt>
      <trkpt lat="47.741720000" lon="0.557340000">
        <ele>54.000000</ele>
        <time>2023-06-13T14:34:24Z</time>
      </trkpt>
      <trkpt lat="47.741580000" lon="0.557320000">
        <ele>56.000000</ele>
        <time>2023-06-13T14:34:32Z</time>
      </trkpt>
      <trkpt lat="47.741460000" lon="0.557280000">
        <ele>57.000000</ele>
        <time>2023-06-13T14:34:41Z</time>
      </trkpt>
      <trkpt lat="47.741260000" lon="0.557330000">
        <ele>56.000000</ele>
        <time>2023-06-13T14:34:58Z</time>
      </trkpt>
      <trkpt lat="47.741170000" lon="0.557370000">
        <ele>55.000000</ele>
        <time>2023-06-13T14:35:05Z</time>
      </trkpt>
      <trkpt lat="47.741040000" lon="0.557370000">
        <ele>56.000000</ele>
        <time>2023-06-13T14:35:14Z</time>
      </trkpt>
      <trkpt lat="47.740980000" lon="0.557350000">
        <ele>57.000000</ele>
        <time>2023-06-13T14:35:19Z</time>
      </trkpt>
      <trkpt lat="47.740810000" lon="0.557350000">
        <ele>56.000000</ele>
        <time>2023-06-13T14:35:31Z</time>
      </trkpt>
      <trkpt lat="47.740740000" lon="0.557330000">
        <ele>55.000000</ele>
        <time>2023-06-13T14:35:36Z</time>
      </trkpt>
      <trkpt lat="47.740580000" lon="0.557240000">
        <ele>56.000000</ele>
        <time>2023-06-13T14:35:48Z</time>
      </trkpt>
      <trkpt lat="47.740520000" lon="0.557180000">
        <ele>57.000000</ele>
        <time>2023-06-13T14:35:52Z</time>
      </trkpt>
      <trkpt lat="47.740440000" lon="0.557040000">
        <ele>57.000000</ele>
        <time>2023-06-13T14:36:01Z</time>
      </trkpt>
      <trkpt lat="47.740430000" lon="0.556990000">
        <ele>58.000000</ele>
        <time>2023-06-13T14:36:04Z</time>
      </trkpt>
      <trkpt lat="47.740380000" lon="0.556870000">
        <ele>57.000000</ele>
        <time>2023-06-13T14:36:11Z</time>
      </trkpt>
      <trkpt lat="47.740370000" lon="0.556820000">
        <ele>57.000000</ele>
        <time>2023-06-13T14:36:13Z</time>
      </trkpt>
      <trkpt lat="47.740350000" lon="0.556790000">
        <ele>57.000000</ele>
        <time>2023-06-13T14:36:15Z</time>
      </trkpt>
      <trkpt lat="47.740340000" lon="0.556750000">
        <ele>57.000000</ele>
        <time>2023-06-13T14:36:17Z</time>
      </trkpt>
      <trkpt lat="47.740300000" lon="0.556680000">
        <ele>56.000000</ele>
        <time>2023-06-13T14:36:21Z</time>
      </trkpt>
      <trkpt lat="47.740250000" lon="0.556520000">
        <ele>56.000000</ele>
        <time>2023-06-13T14:36:31Z</time>
      </trkpt>
      <trkpt lat="47.740190000" lon="0.556410000">
        <ele>56.000000</ele>
        <time>2023-06-13T14:36:37Z</time>
      </trkpt>
      <trkpt lat="47.740180000" lon="0.556370000">
        <ele>56.000000</ele>
        <time>2023-06-13T14:36:39Z</time>
      </trkpt>
      <trkpt lat="47.740150000" lon="0.556330000">
        <ele>56.000000</ele>
        <time>2023-06-13T14:36:42Z</time>
      </trkpt>
      <trkpt lat="47.740140000" lon="0.556290000">
        <ele>56.000000</ele>
        <time>2023-06-13T14:36:44Z</time>
      </trkpt>
      <trkpt lat="47.740100000" lon="0.556220000">
        <ele>55.000000</ele>
        <time>2023-06-13T14:36:48Z</time>
      </trkpt>
      <trkpt lat="47.740090000" lon="0.556170000">
        <ele>55.000000</ele>
        <time>2023-06-13T14:36:51Z</time>
      </trkpt>
      <trkpt lat="47.740030000" lon="0.556010000">
        <ele>55.000000</ele>
        <time>2023-06-13T14:36:59Z</time>
      </trkpt>
      <trkpt lat="47.739990000" lon="0.555940000">
        <ele>55.000000</ele>
        <time>2023-06-13T14:37:04Z</time>
      </trkpt>
      <trkpt lat="47.739950000" lon="0.555810000">
        <ele>55.000000</ele>
        <time>2023-06-13T14:37:11Z</time>
      </trkpt>
      <trkpt lat="47.739880000" lon="0.555660000">
        <ele>54.000000</ele>
        <time>2023-06-13T14:37:20Z</time>
      </trkpt>
      <trkpt lat="47.739780000" lon="0.555380000">
        <ele>55.000000</ele>
        <time>2023-06-13T14:37:35Z</time>
      </trkpt>
      <trkpt lat="47.739690000" lon="0.555170000">
        <ele>55.000000</ele>
        <time>2023-06-13T14:37:48Z</time>
      </trkpt>
      <trkpt lat="47.739680000" lon="0.555130000">
        <ele>55.000000</ele>
        <time>2023-06-13T14:37:50Z</time>
      </trkpt>
      <trkpt lat="47.739590000" lon="0.554920000">
        <ele>55.000000</ele>
        <time>2023-06-13T14:38:02Z</time>
      </trkpt>
      <trkpt lat="47.739580000" lon="0.554870000">
        <ele>55.000000</ele>
        <time>2023-06-13T14:38:05Z</time>
      </trkpt>
      <trkpt lat="47.739540000" lon="0.554790000">
        <ele>56.000000</ele>
        <time>2023-06-13T14:38:09Z</time>
      </trkpt>
      <trkpt lat="47.739500000" lon="0.554650000">
        <ele>55.000000</ele>
        <time>2023-06-13T14:38:17Z</time>
      </trkpt>
      <trkpt lat="47.739370000" lon="0.554340000">
        <ele>54.000000</ele>
        <time>2023-06-13T14:38:34Z</time>
      </trkpt>
      <trkpt lat="47.739310000" lon="0.554090000">
        <ele>56.000000</ele>
        <time>2023-06-13T14:38:47Z</time>
      </trkpt>
      <trkpt lat="47.739290000" lon="0.554050000">
        <ele>55.000000</ele>
        <time>2023-06-13T14:38:49Z</time>
      </trkpt>
      <trkpt lat="47.739210000" lon="0.553780000">
        <ele>55.000000</ele>
        <time>2023-06-13T14:39:04Z</time>
      </trkpt>
      <trkpt lat="47.739210000" lon="0.553740000">
        <ele>55.000000</ele>
        <time>2023-06-13T14:39:06Z</time>
      </trkpt>
      <trkpt lat="47.739190000" lon="0.553700000">
        <ele>55.000000</ele>
        <time>2023-06-13T14:39:09Z</time>
      </trkpt>
      <trkpt lat="47.739150000" lon="0.553560000">
        <ele>54.000000</ele>
        <time>2023-06-13T14:39:16Z</time>
      </trkpt>
      <trkpt lat="47.739150000" lon="0.553510000">
        <ele>54.000000</ele>
        <time>2023-06-13T14:39:18Z</time>
      </trkpt>
      <trkpt lat="47.739130000" lon="0.553470000">
        <ele>54.000000</ele>
        <time>2023-06-13T14:39:21Z</time>
      </trkpt>
      <trkpt lat="47.739070000" lon="0.553230000">
        <ele>52.000000</ele>
        <time>2023-06-13T14:39:34Z</time>
      </trkpt>
      <trkpt lat="47.739070000" lon="0.553180000">
        <ele>52.000000</ele>
        <time>2023-06-13T14:39:36Z</time>
      </trkpt>
      <trkpt lat="47.739040000" lon="0.553100000">
        <ele>51.000000</ele>
        <time>2023-06-13T14:39:40Z</time>
      </trkpt>
      <trkpt lat="47.739020000" lon="0.553010000">
        <ele>51.000000</ele>
        <time>2023-06-13T14:39:44Z</time>
      </trkpt>
      <trkpt lat="47.739020000" lon="0.552960000">
        <ele>51.000000</ele>
        <time>2023-06-13T14:39:47Z</time>
      </trkpt>
      <trkpt lat="47.738990000" lon="0.552830000">
        <ele>51.000000</ele>
        <time>2023-06-13T14:39:54Z</time>
      </trkpt>
      <trkpt lat="47.738990000" lon="0.552780000">
        <ele>51.000000</ele>
        <time>2023-06-13T14:39:56Z</time>
      </trkpt>
      <trkpt lat="47.738980000" lon="0.552740000">
        <ele>51.000000</ele>
        <time>2023-06-13T14:39:58Z</time>
      </trkpt>
      <trkpt lat="47.738980000" lon="0.552690000">
        <ele>51.000000</ele>
        <time>2023-06-13T14:40:00Z</time>
      </trkpt>
      <trkpt lat="47.738970000" lon="0.552650000">
        <ele>52.000000</ele>
        <time>2023-06-13T14:40:02Z</time>
      </trkpt>
      <trkpt lat="47.738970000" lon="0.552570000">
        <ele>52.000000</ele>
        <time>2023-06-13T14:40:06Z</time>
      </trkpt>
      <trkpt lat="47.738940000" lon="0.552470000">
        <ele>50.000000</ele>
        <time>2023-06-13T14:40:12Z</time>
      </trkpt>
      <trkpt lat="47.738940000" lon="0.552420000">
        <ele>50.000000</ele>
        <time>2023-06-13T14:40:14Z</time>
      </trkpt>
      <trkpt lat="47.738930000" lon="0.552370000">
        <ele>50.000000</ele>
        <time>2023-06-13T14:40:17Z</time>
      </trkpt>
      <trkpt lat="47.738930000" lon="0.552320000">
        <ele>50.000000</ele>
        <time>2023-06-13T14:40:19Z</time>
      </trkpt>
      <trkpt lat="47.738920000" lon="0.552280000">
        <ele>51.000000</ele>
        <time>2023-06-13T14:40:21Z</time>
      </trkpt>
      <trkpt lat="47.738920000" lon="0.552190000">
        <ele>52.000000</ele>
        <time>2023-06-13T14:40:25Z</time>
      </trkpt>
      <trkpt lat="47.738890000" lon="0.552040000">
        <ele>51.000000</ele>
        <time>2023-06-13T14:40:33Z</time>
      </trkpt>
      <trkpt lat="47.738890000" lon="0.551980000">
        <ele>51.000000</ele>
        <time>2023-06-13T14:40:36Z</time>
      </trkpt>
      <trkpt lat="47.738880000" lon="0.551920000">
        <ele>51.000000</ele>
        <time>2023-06-13T14:40:39Z</time>
      </trkpt>
      <trkpt lat="47.738880000" lon="0.551810000">
        <ele>52.000000</ele>
        <time>2023-06-13T14:40:45Z</time>
      </trkpt>
      <trkpt lat="47.738870000" lon="0.551760000">
        <ele>52.000000</ele>
        <time>2023-06-13T14:40:47Z</time>
      </trkpt>
      <trkpt lat="47.738870000" lon="0.551670000">
        <ele>53.000000</ele>
        <time>2023-06-13T14:40:51Z</time>
      </trkpt>
      <trkpt lat="47.738850000" lon="0.551580000">
        <ele>52.000000</ele>
        <time>2023-06-13T14:40:56Z</time>
      </trkpt>
      <trkpt lat="47.738840000" lon="0.551420000">
        <ele>53.000000</ele>
        <time>2023-06-13T14:41:04Z</time>
      </trkpt>
      <trkpt lat="47.738830000" lon="0.551370000">
        <ele>53.000000</ele>
        <time>2023-06-13T14:41:06Z</time>
      </trkpt>
      <trkpt lat="47.738830000" lon="0.551290000">
        <ele>54.000000</ele>
        <time>2023-06-13T14:41:10Z</time>
      </trkpt>
      <trkpt lat="47.738800000" lon="0.551140000">
        <ele>54.000000</ele>
        <time>2023-06-13T14:41:18Z</time>
      </trkpt>
      <trkpt lat="47.738800000" lon="0.551090000">
        <ele>53.000000</ele>
        <time>2023-06-13T14:41:21Z</time>
      </trkpt>
      <trkpt lat="47.738780000" lon="0.550990000">
        <ele>53.000000</ele>
        <time>2023-06-13T14:41:25Z</time>
      </trkpt>
      <trkpt lat="47.738780000" lon="0.550950000">
        <ele>53.000000</ele>
        <time>2023-06-13T14:41:27Z</time>
      </trkpt>
      <trkpt lat="47.738770000" lon="0.550910000">
        <ele>52.000000</ele>
        <time>2023-06-13T14:41:29Z</time>
      </trkpt>
      <trkpt lat="47.738770000" lon="0.550860000">
        <ele>52.000000</ele>
        <time>2023-06-13T14:41:32Z</time>
      </trkpt>
      <trkpt lat="47.738750000" lon="0.550760000">
        <ele>52.000000</ele>
        <time>2023-06-13T14:41:37Z</time>
      </trkpt>
      <trkpt lat="47.738750000" lon="0.550720000">
        <ele>53.000000</ele>
        <time>2023-06-13T14:41:39Z</time>
      </trkpt>
      <trkpt lat="47.738730000" lon="0.550620000">
        <ele>53.000000</ele>
        <time>2023-06-13T14:41:43Z</time>
      </trkpt>
      <trkpt lat="47.738730000" lon="0.550530000">
        <ele>53.000000</ele>
        <time>2023-06-13T14:41:48Z</time>
      </trkpt>
      <trkpt lat="47.738700000" lon="0.550380000">
        <ele>53.000000</ele>
        <time>2023-06-13T14:41:56Z</time>
      </trkpt>
      <trkpt lat="47.738680000" lon="0.550200000">
        <ele>54.000000</ele>
        <time>2023-06-13T14:42:04Z</time>
      </trkpt>
      <trkpt lat="47.738660000" lon="0.550150000">
        <ele>53.000000</ele>
        <time>2023-06-13T14:42:07Z</time>
      </trkpt>
      <trkpt lat="47.738660000" lon="0.550100000">
        <ele>52.000000</ele>
        <time>2023-06-13T14:42:10Z</time>
      </trkpt>
      <trkpt lat="47.738640000" lon="0.550000000">
        <ele>52.000000</ele>
        <time>2023-06-13T14:42:15Z</time>
      </trkpt>
      <trkpt lat="47.738640000" lon="0.549960000">
        <ele>52.000000</ele>
        <time>2023-06-13T14:42:17Z</time>
      </trkpt>
      <trkpt lat="47.738620000" lon="0.549870000">
        <ele>52.000000</ele>
        <time>2023-06-13T14:42:21Z</time>
      </trkpt>
      <trkpt lat="47.738620000" lon="0.549700000">
        <ele>53.000000</ele>
        <time>2023-06-13T14:42:29Z</time>
      </trkpt>
      <trkpt lat="47.738610000" lon="0.549660000">
        <ele>53.000000</ele>
        <time>2023-06-13T14:42:31Z</time>
      </trkpt>
      <trkpt lat="47.738610000" lon="0.549610000">
        <ele>53.000000</ele>
        <time>2023-06-13T14:42:33Z</time>
      </trkpt>
      <trkpt lat="47.738590000" lon="0.549530000">
        <ele>53.000000</ele>
        <time>2023-06-13T14:42:38Z</time>
      </trkpt>
      <trkpt lat="47.738590000" lon="0.549490000">
        <ele>52.000000</ele>
        <time>2023-06-13T14:42:40Z</time>
      </trkpt>
      <trkpt lat="47.738560000" lon="0.549340000">
        <ele>53.000000</ele>
        <time>2023-06-13T14:42:47Z</time>
      </trkpt>
      <trkpt lat="47.738550000" lon="0.549200000">
        <ele>53.000000</ele>
        <time>2023-06-13T14:42:54Z</time>
      </trkpt>
      <trkpt lat="47.738540000" lon="0.549160000">
        <ele>53.000000</ele>
        <time>2023-06-13T14:42:56Z</time>
      </trkpt>
      <trkpt lat="47.738540000" lon="0.549110000">
        <ele>53.000000</ele>
        <time>2023-06-13T14:42:58Z</time>
      </trkpt>
      <trkpt lat="47.738530000" lon="0.549070000">
        <ele>53.000000</ele>
        <time>2023-06-13T14:43:00Z</time>
      </trkpt>
      <trkpt lat="47.738530000" lon="0.548980000">
        <ele>54.000000</ele>
        <time>2023-06-13T14:43:04Z</time>
      </trkpt>
      <trkpt lat="47.738520000" lon="0.548940000">
        <ele>54.000000</ele>
        <time>2023-06-13T14:43:06Z</time>
      </trkpt>
      <trkpt lat="47.738520000" lon="0.548900000">
        <ele>55.000000</ele>
        <time>2023-06-13T14:43:08Z</time>
      </trkpt>
      <trkpt lat="47.738500000" lon="0.548790000">
        <ele>55.000000</ele>
        <time>2023-06-13T14:43:14Z</time>
      </trkpt>
      <trkpt lat="47.738490000" lon="0.548620000">
        <ele>57.000000</ele>
        <time>2023-06-13T14:43:22Z</time>
      </trkpt>
      <trkpt lat="47.738430000" lon="0.548350000">
        <ele>55.000000</ele>
        <time>2023-06-13T14:43:36Z</time>
      </trkpt>
      <trkpt lat="47.738430000" lon="0.548260000">
        <ele>56.000000</ele>
        <time>2023-06-13T14:43:41Z</time>
      </trkpt>
      <trkpt lat="47.738420000" lon="0.548210000">
        <ele>55.000000</ele>
        <time>2023-06-13T14:43:44Z</time>
      </trkpt>
      <trkpt lat="47.738420000" lon="0.548160000">
        <ele>55.000000</ele>
        <time>2023-06-13T14:43:47Z</time>
      </trkpt>
      <trkpt lat="47.738390000" lon="0.548060000">
        <ele>54.000000</ele>
        <time>2023-06-13T14:43:52Z</time>
      </trkpt>
      <trkpt lat="47.738290000" lon="0.547850000">
        <ele>53.000000</ele>
        <time>2023-06-13T14:44:04Z</time>
      </trkpt>
      <trkpt lat="47.738280000" lon="0.547810000">
        <ele>52.000000</ele>
        <time>2023-06-13T14:44:06Z</time>
      </trkpt>
      <trkpt lat="47.738240000" lon="0.547730000">
        <ele>53.000000</ele>
        <time>2023-06-13T14:44:10Z</time>
      </trkpt>
      <trkpt lat="47.738220000" lon="0.547650000">
        <ele>53.000000</ele>
        <time>2023-06-13T14:44:14Z</time>
      </trkpt>
      <trkpt lat="47.738200000" lon="0.547610000">
        <ele>53.000000</ele>
        <time>2023-06-13T14:44:16Z</time>
      </trkpt>
      <trkpt lat="47.738170000" lon="0.547480000">
        <ele>54.000000</ele>
        <time>2023-06-13T14:44:23Z</time>
      </trkpt>
      <trkpt lat="47.738150000" lon="0.547440000">
        <ele>54.000000</ele>
        <time>2023-06-13T14:44:25Z</time>
      </trkpt>
      <trkpt lat="47.738110000" lon="0.547280000">
        <ele>57.000000</ele>
        <time>2023-06-13T14:44:33Z</time>
      </trkpt>
      <trkpt lat="47.738070000" lon="0.547190000">
        <ele>57.000000</ele>
        <time>2023-06-13T14:44:39Z</time>
      </trkpt>
      <trkpt lat="47.738060000" lon="0.547140000">
        <ele>56.000000</ele>
        <time>2023-06-13T14:44:41Z</time>
      </trkpt>
      <trkpt lat="47.737990000" lon="0.547000000">
        <ele>55.000000</ele>
        <time>2023-06-13T14:44:49Z</time>
      </trkpt>
      <trkpt lat="47.737890000" lon="0.546830000">
        <ele>53.000000</ele>
        <time>2023-06-13T14:45:00Z</time>
      </trkpt>
      <trkpt lat="47.737870000" lon="0.546740000">
        <ele>53.000000</ele>
        <time>2023-06-13T14:45:05Z</time>
      </trkpt>
      <trkpt lat="47.737720000" lon="0.546450000">
        <ele>51.000000</ele>
        <time>2023-06-13T14:45:22Z</time>
      </trkpt>
      <trkpt lat="47.737710000" lon="0.546410000">
        <ele>51.000000</ele>
        <time>2023-06-13T14:45:24Z</time>
      </trkpt>
      <trkpt lat="47.737610000" lon="0.546240000">
        <ele>51.000000</ele>
        <time>2023-06-13T14:45:34Z</time>
      </trkpt>
      <trkpt lat="47.737600000" lon="0.546200000">
        <ele>51.000000</ele>
        <time>2023-06-13T14:45:36Z</time>
      </trkpt>
      <trkpt lat="47.737580000" lon="0.546170000">
        <ele>51.000000</ele>
        <time>2023-06-13T14:45:38Z</time>
      </trkpt>
      <trkpt lat="47.737570000" lon="0.546120000">
        <ele>51.000000</ele>
        <time>2023-06-13T14:45:40Z</time>
      </trkpt>
      <trkpt lat="47.737550000" lon="0.546090000">
        <ele>51.000000</ele>
        <time>2023-06-13T14:45:42Z</time>
      </trkpt>
      <trkpt lat="47.737500000" lon="0.545960000">
        <ele>50.000000</ele>
        <time>2023-06-13T14:45:50Z</time>
      </trkpt>
      <trkpt lat="47.737490000" lon="0.545910000">
        <ele>50.000000</ele>
        <time>2023-06-13T14:45:52Z</time>
      </trkpt>
      <trkpt lat="47.737410000" lon="0.545720000">
        <ele>51.000000</ele>
        <time>2023-06-13T14:46:00Z</time>
      </trkpt>
      <trkpt lat="47.737400000" lon="0.545670000">
        <ele>51.000000</ele>
        <time>2023-06-13T14:46:02Z</time>
      </trkpt>
      <trkpt lat="47.737330000" lon="0.545510000">
        <ele>53.000000</ele>
        <time>2023-06-13T14:46:10Z</time>
      </trkpt>
      <trkpt lat="47.737300000" lon="0.545390000">
        <ele>53.000000</ele>
        <time>2023-06-13T14:46:16Z</time>
      </trkpt>
      <trkpt lat="47.737210000" lon="0.545190000">
        <ele>53.000000</ele>
        <time>2023-06-13T14:46:27Z</time>
      </trkpt>
      <trkpt lat="47.737200000" lon="0.545150000">
        <ele>53.000000</ele>
        <time>2023-06-13T14:46:29Z</time>
      </trkpt>
      <trkpt lat="47.737130000" lon="0.544990000">
        <ele>52.000000</ele>
        <time>2023-06-13T14:46:38Z</time>
      </trkpt>
      <trkpt lat="47.737120000" lon="0.544940000">
        <ele>52.000000</ele>
        <time>2023-06-13T14:46:41Z</time>
      </trkpt>
      <trkpt lat="47.737060000" lon="0.544790000">
        <ele>51.000000</ele>
        <time>2023-06-13T14:46:49Z</time>
      </trkpt>
      <trkpt lat="47.737040000" lon="0.544760000">
        <ele>51.000000</ele>
        <time>2023-06-13T14:46:51Z</time>
      </trkpt>
      <trkpt lat="47.737030000" lon="0.544720000">
        <ele>50.000000</ele>
        <time>2023-06-13T14:46:53Z</time>
      </trkpt>
      <trkpt lat="47.737010000" lon="0.544690000">
        <ele>50.000000</ele>
        <time>2023-06-13T14:46:55Z</time>
      </trkpt>
      <trkpt lat="47.736980000" lon="0.544610000">
        <ele>51.000000</ele>
        <time>2023-06-13T14:47:00Z</time>
      </trkpt>
      <trkpt lat="47.736950000" lon="0.544490000">
        <ele>51.000000</ele>
        <time>2023-06-13T14:47:06Z</time>
      </trkpt>
      <trkpt lat="47.736940000" lon="0.544400000">
        <ele>52.000000</ele>
        <time>2023-06-13T14:47:10Z</time>
      </trkpt>
      <trkpt lat="47.736830000" lon="0.544110000">
        <ele>50.000000</ele>
        <time>2023-06-13T14:47:26Z</time>
      </trkpt>
      <trkpt lat="47.736830000" lon="0.544060000">
        <ele>50.000000</ele>
        <time>2023-06-13T14:47:28Z</time>
      </trkpt>
      <trkpt lat="47.736780000" lon="0.543870000">
        <ele>50.000000</ele>
        <time>2023-06-13T14:47:38Z</time>
      </trkpt>
      <trkpt lat="47.736750000" lon="0.543790000">
        <ele>49.000000</ele>
        <time>2023-06-13T14:47:42Z</time>
      </trkpt>
      <trkpt lat="47.736750000" lon="0.543750000">
        <ele>49.000000</ele>
        <time>2023-06-13T14:47:44Z</time>
      </trkpt>
      <trkpt lat="47.736700000" lon="0.543550000">
        <ele>48.000000</ele>
        <time>2023-06-13T14:47:54Z</time>
      </trkpt>
      <trkpt lat="47.736700000" lon="0.543510000">
        <ele>48.000000</ele>
        <time>2023-06-13T14:47:56Z</time>
      </trkpt>
      <trkpt lat="47.736680000" lon="0.543420000">
        <ele>48.000000</ele>
        <time>2023-06-13T14:48:00Z</time>
      </trkpt>
      <trkpt lat="47.736680000" lon="0.543370000">
        <ele>49.000000</ele>
        <time>2023-06-13T14:48:03Z</time>
      </trkpt>
      <trkpt lat="47.736660000" lon="0.543270000">
        <ele>49.000000</ele>
        <time>2023-06-13T14:48:08Z</time>
      </trkpt>
      <trkpt lat="47.736660000" lon="0.543120000">
        <ele>51.000000</ele>
        <time>2023-06-13T14:48:15Z</time>
      </trkpt>
      <trkpt lat="47.736630000" lon="0.542960000">
        <ele>50.000000</ele>
        <time>2023-06-13T14:48:23Z</time>
      </trkpt>
      <trkpt lat="47.736590000" lon="0.542800000">
        <ele>49.000000</ele>
        <time>2023-06-13T14:48:31Z</time>
      </trkpt>
      <trkpt lat="47.736590000" lon="0.542760000">
        <ele>49.000000</ele>
        <time>2023-06-13T14:48:33Z</time>
      </trkpt>
      <trkpt lat="47.736580000" lon="0.542720000">
        <ele>49.000000</ele>
        <time>2023-06-13T14:48:35Z</time>
      </trkpt>
      <trkpt lat="47.736580000" lon="0.542670000">
        <ele>49.000000</ele>
        <time>2023-06-13T14:48:37Z</time>
      </trkpt>
      <trkpt lat="47.736570000" lon="0.542620000">
        <ele>49.000000</ele>
        <time>2023-06-13T14:48:40Z</time>
      </trkpt>
      <trkpt lat="47.736570000" lon="0.542470000">
        <ele>50.000000</ele>
        <time>2023-06-13T14:48:47Z</time>
      </trkpt>
      <trkpt lat="47.736550000" lon="0.542380000">
        <ele>50.000000</ele>
        <time>2023-06-13T14:48:51Z</time>
      </trkpt>
      <trkpt lat="47.736550000" lon="0.541920000">
        <ele>51.000000</ele>
        <time>2023-06-13T14:49:12Z</time>
      </trkpt>
      <trkpt lat="47.736540000" lon="0.541870000">
        <ele>51.000000</ele>
        <time>2023-06-13T14:49:14Z</time>
      </trkpt>
      <trkpt lat="47.736550000" lon="0.541830000">
        <ele>51.000000</ele>
        <time>2023-06-13T14:49:16Z</time>
      </trkpt>
      <trkpt lat="47.736550000" lon="0.541750000">
        <ele>51.000000</ele>
        <time>2023-06-13T14:49:20Z</time>
      </trkpt>
      <trkpt lat="47.736570000" lon="0.541540000">
        <ele>48.000000</ele>
        <time>2023-06-13T14:49:31Z</time>
      </trkpt>
      <trkpt lat="47.736580000" lon="0.541500000">
        <ele>48.000000</ele>
        <time>2023-06-13T14:49:33Z</time>
      </trkpt>
      <trkpt lat="47.736580000" lon="0.541450000">
        <ele>48.000000</ele>
        <time>2023-06-13T14:49:35Z</time>
      </trkpt>
      <trkpt lat="47.736590000" lon="0.541410000">
        <ele>48.000000</ele>
        <time>2023-06-13T14:49:37Z</time>
      </trkpt>
      <trkpt lat="47.736610000" lon="0.541180000">
        <ele>49.000000</ele>
        <time>2023-06-13T14:49:48Z</time>
      </trkpt>
      <trkpt lat="47.736620000" lon="0.541140000">
        <ele>50.000000</ele>
        <time>2023-06-13T14:49:50Z</time>
      </trkpt>
      <trkpt lat="47.736620000" lon="0.541050000">
        <ele>50.000000</ele>
        <time>2023-06-13T14:49:54Z</time>
      </trkpt>
      <trkpt lat="47.736630000" lon="0.540960000">
        <ele>50.000000</ele>
        <time>2023-06-13T14:49:58Z</time>
      </trkpt>
      <trkpt lat="47.736650000" lon="0.540880000">
        <ele>49.000000</ele>
        <time>2023-06-13T14:50:02Z</time>
      </trkpt>
      <trkpt lat="47.736650000" lon="0.540640000">
        <ele>50.000000</ele>
        <time>2023-06-13T14:50:13Z</time>
      </trkpt>
      <trkpt lat="47.736640000" lon="0.540600000">
        <ele>49.000000</ele>
        <time>2023-06-13T14:50:15Z</time>
      </trkpt>
      <trkpt lat="47.736640000" lon="0.540480000">
        <ele>47.000000</ele>
        <time>2023-06-13T14:50:21Z</time>
      </trkpt>
      <trkpt lat="47.736620000" lon="0.540340000">
        <ele>48.000000</ele>
        <time>2023-06-13T14:50:28Z</time>
      </trkpt>
      <trkpt lat="47.736620000" lon="0.540290000">
        <ele>47.000000</ele>
        <time>2023-06-13T14:50:30Z</time>
      </trkpt>
      <trkpt lat="47.736610000" lon="0.540250000">
        <ele>47.000000</ele>
        <time>2023-06-13T14:50:32Z</time>
      </trkpt>
      <trkpt lat="47.736610000" lon="0.540170000">
        <ele>47.000000</ele>
        <time>2023-06-13T14:50:36Z</time>
      </trkpt>
      <trkpt lat="47.736600000" lon="0.540120000">
        <ele>47.000000</ele>
        <time>2023-06-13T14:50:38Z</time>
      </trkpt>
      <trkpt lat="47.736600000" lon="0.539980000">
        <ele>47.000000</ele>
        <time>2023-06-13T14:50:45Z</time>
      </trkpt>
      <trkpt lat="47.736590000" lon="0.539940000">
        <ele>48.000000</ele>
        <time>2023-06-13T14:50:47Z</time>
      </trkpt>
      <trkpt lat="47.736590000" lon="0.539890000">
        <ele>48.000000</ele>
        <time>2023-06-13T14:50:49Z</time>
      </trkpt>
      <trkpt lat="47.736580000" lon="0.539850000">
        <ele>49.000000</ele>
        <time>2023-06-13T14:50:51Z</time>
      </trkpt>
      <trkpt lat="47.736580000" lon="0.539570000">
        <ele>49.000000</ele>
        <time>2023-06-13T14:51:05Z</time>
      </trkpt>
      <trkpt lat="47.736560000" lon="0.539440000">
        <ele>50.000000</ele>
        <time>2023-06-13T14:51:11Z</time>
      </trkpt>
      <trkpt lat="47.736560000" lon="0.539390000">
        <ele>51.000000</ele>
        <time>2023-06-13T14:51:13Z</time>
      </trkpt>
      <trkpt lat="47.736550000" lon="0.539350000">
        <ele>51.000000</ele>
        <time>2023-06-13T14:51:15Z</time>
      </trkpt>
      <trkpt lat="47.736550000" lon="0.539300000">
        <ele>51.000000</ele>
        <time>2023-06-13T14:51:17Z</time>
      </trkpt>
      <trkpt lat="47.736540000" lon="0.539260000">
        <ele>51.000000</ele>
        <time>2023-06-13T14:51:19Z</time>
      </trkpt>
      <trkpt lat="47.736540000" lon="0.539210000">
        <ele>51.000000</ele>
        <time>2023-06-13T14:51:22Z</time>
      </trkpt>
      <trkpt lat="47.736600000" lon="0.539040000">
        <ele>49.000000</ele>
        <time>2023-06-13T14:51:34Z</time>
      </trkpt>
      <trkpt lat="47.736630000" lon="0.539000000">
        <ele>48.000000</ele>
        <time>2023-06-13T14:51:36Z</time>
      </trkpt>
      <trkpt lat="47.736660000" lon="0.538930000">
        <ele>48.000000</ele>
        <time>2023-06-13T14:51:42Z</time>
      </trkpt>
      <trkpt lat="47.736740000" lon="0.538790000">
        <ele>45.000000</ele>
        <time>2023-06-13T14:51:59Z</time>
      </trkpt>
      <trkpt lat="47.736740000" lon="0.538750000">
        <ele>45.000000</ele>
        <time>2023-06-13T14:52:04Z</time>
      </trkpt>
      <trkpt lat="47.736730000" lon="0.538710000">
        <ele>46.000000</ele>
        <time>2023-06-13T14:52:13Z</time>
      </trkpt>
      <trkpt lat="47.736790000" lon="0.538590000">
        <ele>50.000000</ele>
        <time>2023-06-13T14:52:21Z</time>
      </trkpt>
      <trkpt lat="47.736800000" lon="0.538550000">
        <ele>51.000000</ele>
        <time>2023-06-13T14:52:23Z</time>
      </trkpt>
      <trkpt lat="47.736800000" lon="0.538470000">
        <ele>52.000000</ele>
        <time>2023-06-13T14:52:27Z</time>
      </trkpt>
      <trkpt lat="47.736790000" lon="0.538430000">
        <ele>52.000000</ele>
        <time>2023-06-13T14:52:29Z</time>
      </trkpt>
      <trkpt lat="47.736770000" lon="0.538400000">
        <ele>52.000000</ele>
        <time>2023-06-13T14:52:31Z</time>
      </trkpt>
      <trkpt lat="47.736670000" lon="0.538310000">
        <ele>50.000000</ele>
        <time>2023-06-13T14:52:39Z</time>
      </trkpt>
      <trkpt lat="47.736610000" lon="0.538290000">
        <ele>50.000000</ele>
        <time>2023-06-13T14:52:43Z</time>
      </trkpt>
      <trkpt lat="47.736430000" lon="0.538180000">
        <ele>49.000000</ele>
        <time>2023-06-13T14:52:57Z</time>
      </trkpt>
      <trkpt lat="47.736210000" lon="0.538100000">
        <ele>51.000000</ele>
        <time>2023-06-13T14:53:14Z</time>
      </trkpt>
      <trkpt lat="47.736150000" lon="0.538060000">
        <ele>51.000000</ele>
        <time>2023-06-13T14:53:18Z</time>
      </trkpt>
      <trkpt lat="47.736090000" lon="0.538050000">
        <ele>51.000000</ele>
        <time>2023-06-13T14:53:23Z</time>
      </trkpt>
      <trkpt lat="47.735930000" lon="0.537980000">
        <ele>49.000000</ele>
        <time>2023-06-13T14:53:37Z</time>
      </trkpt>
      <trkpt lat="47.735910000" lon="0.537950000">
        <ele>48.000000</ele>
        <time>2023-06-13T14:53:43Z</time>
      </trkpt>
      <trkpt lat="47.735780000" lon="0.537900000">
        <ele>50.000000</ele>
        <time>2023-06-13T14:53:55Z</time>
      </trkpt>
      <trkpt lat="47.735720000" lon="0.537860000">
        <ele>51.000000</ele>
        <time>2023-06-13T14:54:00Z</time>
      </trkpt>
      <trkpt lat="47.735540000" lon="0.537770000">
        <ele>53.000000</ele>
        <time>2023-06-13T14:54:14Z</time>
      </trkpt>
      <trkpt lat="47.735510000" lon="0.537770000">
        <ele>53.000000</ele>
        <time>2023-06-13T14:54:17Z</time>
      </trkpt>
      <trkpt lat="47.735450000" lon="0.537740000">
        <ele>53.000000</ele>
        <time>2023-06-13T14:54:21Z</time>
      </trkpt>
      <trkpt lat="47.735420000" lon="0.537740000">
        <ele>53.000000</ele>
        <time>2023-06-13T14:54:23Z</time>
      </trkpt>
      <trkpt lat="47.735330000" lon="0.537700000">
        <ele>52.000000</ele>
        <time>2023-06-13T14:54:32Z</time>
      </trkpt>
      <trkpt lat="47.735250000" lon="0.537640000">
        <ele>51.000000</ele>
        <time>2023-06-13T14:54:43Z</time>
      </trkpt>
      <trkpt lat="47.735230000" lon="0.537580000">
        <ele>55.000000</ele>
        <time>2023-06-13T14:56:14Z</time>
      </trkpt>
      <trkpt lat="47.735240000" lon="0.537550000">
        <ele>56.000000</ele>
        <time>2023-06-13T14:56:18Z</time>
      </trkpt>
      <trkpt lat="47.735370000" lon="0.537480000">
        <ele>52.000000</ele>
        <time>2023-06-13T14:56:29Z</time>
      </trkpt>
      <trkpt lat="47.735390000" lon="0.537450000">
        <ele>51.000000</ele>
        <time>2023-06-13T14:56:31Z</time>
      </trkpt>
      <trkpt lat="47.735570000" lon="0.537290000">
        <ele>51.000000</ele>
        <time>2023-06-13T14:56:46Z</time>
      </trkpt>
      <trkpt lat="47.735590000" lon="0.537260000">
        <ele>51.000000</ele>
        <time>2023-06-13T14:56:48Z</time>
      </trkpt>
      <trkpt lat="47.735740000" lon="0.537110000">
        <ele>51.000000</ele>
        <time>2023-06-13T14:56:59Z</time>
      </trkpt>
      <trkpt lat="47.735840000" lon="0.536990000">
        <ele>50.000000</ele>
        <time>2023-06-13T14:57:07Z</time>
      </trkpt>
      <trkpt lat="47.735980000" lon="0.536860000">
        <ele>52.000000</ele>
        <time>2023-06-13T14:57:18Z</time>
      </trkpt>
      <trkpt lat="47.736020000" lon="0.536800000">
        <ele>52.000000</ele>
        <time>2023-06-13T14:57:23Z</time>
      </trkpt>
      <trkpt lat="47.736170000" lon="0.536650000">
        <ele>53.000000</ele>
        <time>2023-06-13T14:57:37Z</time>
      </trkpt>
      <trkpt lat="47.736200000" lon="0.536630000">
        <ele>53.000000</ele>
        <time>2023-06-13T14:57:41Z</time>
      </trkpt>
      <trkpt lat="47.736270000" lon="0.536630000">
        <ele>53.000000</ele>
        <time>2023-06-13T14:57:45Z</time>
      </trkpt>
      <trkpt lat="47.736350000" lon="0.536690000">
        <ele>52.000000</ele>
        <time>2023-06-13T14:57:53Z</time>
      </trkpt>
      <trkpt lat="47.736510000" lon="0.536730000">
        <ele>50.000000</ele>
        <time>2023-06-13T14:58:05Z</time>
      </trkpt>
      <trkpt lat="47.736640000" lon="0.536730000">
        <ele>49.000000</ele>
        <time>2023-06-13T14:58:14Z</time>
      </trkpt>
      <trkpt lat="47.736780000" lon="0.536610000">
        <ele>48.000000</ele>
        <time>2023-06-13T14:58:27Z</time>
      </trkpt>
      <trkpt lat="47.736850000" lon="0.536520000">
        <ele>47.000000</ele>
        <time>2023-06-13T14:58:33Z</time>
      </trkpt>
      <trkpt lat="47.736930000" lon="0.536440000">
        <ele>48.000000</ele>
        <time>2023-06-13T14:58:40Z</time>
      </trkpt>
      <trkpt lat="47.737020000" lon="0.536370000">
        <ele>49.000000</ele>
        <time>2023-06-13T14:58:46Z</time>
      </trkpt>
      <trkpt lat="47.737160000" lon="0.536220000">
        <ele>51.000000</ele>
        <time>2023-06-13T14:58:58Z</time>
      </trkpt>
      <trkpt lat="47.737180000" lon="0.536180000">
        <ele>50.000000</ele>
        <time>2023-06-13T14:59:01Z</time>
      </trkpt>
      <trkpt lat="47.737280000" lon="0.536050000">
        <ele>49.000000</ele>
        <time>2023-06-13T14:59:10Z</time>
      </trkpt>
      <trkpt lat="47.737310000" lon="0.536030000">
        <ele>50.000000</ele>
        <time>2023-06-13T14:59:12Z</time>
      </trkpt>
      <trkpt lat="47.737510000" lon="0.535800000">
        <ele>52.000000</ele>
        <time>2023-06-13T14:59:30Z</time>
      </trkpt>
      <trkpt lat="47.737540000" lon="0.535780000">
        <ele>52.000000</ele>
        <time>2023-06-13T14:59:32Z</time>
      </trkpt>
      <trkpt lat="47.737620000" lon="0.535690000">
        <ele>52.000000</ele>
        <time>2023-06-13T14:59:39Z</time>
      </trkpt>
      <trkpt lat="47.737650000" lon="0.535670000">
        <ele>53.000000</ele>
        <time>2023-06-13T14:59:41Z</time>
      </trkpt>
      <trkpt lat="47.737700000" lon="0.535590000">
        <ele>53.000000</ele>
        <time>2023-06-13T14:59:47Z</time>
      </trkpt>
      <trkpt lat="47.737900000" lon="0.535370000">
        <ele>54.000000</ele>
        <time>2023-06-13T15:00:05Z</time>
      </trkpt>
      <trkpt lat="47.737930000" lon="0.535350000">
        <ele>54.000000</ele>
        <time>2023-06-13T15:00:07Z</time>
      </trkpt>
      <trkpt lat="47.737980000" lon="0.535280000">
        <ele>55.000000</ele>
        <time>2023-06-13T15:00:12Z</time>
      </trkpt>
      <trkpt lat="47.738000000" lon="0.535200000">
        <ele>56.000000</ele>
        <time>2023-06-13T15:00:16Z</time>
      </trkpt>
      <trkpt lat="47.738000000" lon="0.535070000">
        <ele>56.000000</ele>
        <time>2023-06-13T15:00:22Z</time>
      </trkpt>
      <trkpt lat="47.737980000" lon="0.534980000">
        <ele>55.000000</ele>
        <time>2023-06-13T15:00:28Z</time>
      </trkpt>
      <trkpt lat="47.737940000" lon="0.534880000">
        <ele>54.000000</ele>
        <time>2023-06-13T15:00:34Z</time>
      </trkpt>
      <trkpt lat="47.737870000" lon="0.534580000">
        <ele>54.000000</ele>
        <time>2023-06-13T15:00:49Z</time>
      </trkpt>
      <trkpt lat="47.737890000" lon="0.534540000">
        <ele>55.000000</ele>
        <time>2023-06-13T15:01:03Z</time>
      </trkpt>
      <trkpt lat="47.737830000" lon="0.534280000">
        <ele>56.000000</ele>
        <time>2023-06-13T15:03:04Z</time>
      </trkpt>
      <trkpt lat="47.737810000" lon="0.534230000">
        <ele>56.000000</ele>
        <time>2023-06-13T15:03:07Z</time>
      </trkpt>
      <trkpt lat="47.737670000" lon="0.533560000">
        <ele>55.000000</ele>
        <time>2023-06-13T15:03:42Z</time>
      </trkpt>
      <trkpt lat="47.737670000" lon="0.533520000">
        <ele>55.000000</ele>
        <time>2023-06-13T15:03:44Z</time>
      </trkpt>
      <trkpt lat="47.737640000" lon="0.533390000">
        <ele>54.000000</ele>
        <time>2023-06-13T15:03:50Z</time>
      </trkpt>
      <trkpt lat="47.737610000" lon="0.533300000">
        <ele>53.000000</ele>
        <time>2023-06-13T15:03:54Z</time>
      </trkpt>
      <trkpt lat="47.737610000" lon="0.533250000">
        <ele>53.000000</ele>
        <time>2023-06-13T15:03:57Z</time>
      </trkpt>
      <trkpt lat="47.737590000" lon="0.533160000">
        <ele>53.000000</ele>
        <time>2023-06-13T15:04:02Z</time>
      </trkpt>
      <trkpt lat="47.737570000" lon="0.533120000">
        <ele>53.000000</ele>
        <time>2023-06-13T15:04:04Z</time>
      </trkpt>
      <trkpt lat="47.737550000" lon="0.533020000">
        <ele>53.000000</ele>
        <time>2023-06-13T15:04:09Z</time>
      </trkpt>
      <trkpt lat="47.737530000" lon="0.532970000">
        <ele>53.000000</ele>
        <time>2023-06-13T15:04:12Z</time>
      </trkpt>
      <trkpt lat="47.737460000" lon="0.532620000">
        <ele>54.000000</ele>
        <time>2023-06-13T15:04:29Z</time>
      </trkpt>
      <trkpt lat="47.737410000" lon="0.532410000">
        <ele>53.000000</ele>
        <time>2023-06-13T15:04:40Z</time>
      </trkpt>
      <trkpt lat="47.737410000" lon="0.532360000">
        <ele>53.000000</ele>
        <time>2023-06-13T15:04:43Z</time>
      </trkpt>
      <trkpt lat="47.737300000" lon="0.531840000">
        <ele>50.000000</ele>
        <time>2023-06-13T15:05:10Z</time>
      </trkpt>
      <trkpt lat="47.737300000" lon="0.531800000">
        <ele>50.000000</ele>
        <time>2023-06-13T15:05:12Z</time>
      </trkpt>
      <trkpt lat="47.737260000" lon="0.531620000">
        <ele>49.000000</ele>
        <time>2023-06-13T15:05:21Z</time>
      </trkpt>
      <trkpt lat="47.737240000" lon="0.531580000">
        <ele>50.000000</ele>
        <time>2023-06-13T15:05:23Z</time>
      </trkpt>
      <trkpt lat="47.737210000" lon="0.531450000">
        <ele>50.000000</ele>
        <time>2023-06-13T15:05:29Z</time>
      </trkpt>
      <trkpt lat="47.737210000" lon="0.531410000">
        <ele>50.000000</ele>
        <time>2023-06-13T15:05:31Z</time>
      </trkpt>
      <trkpt lat="47.737190000" lon="0.531370000">
        <ele>50.000000</ele>
        <time>2023-06-13T15:05:33Z</time>
      </trkpt>
      <trkpt lat="47.737130000" lon="0.531070000">
        <ele>50.000000</ele>
        <time>2023-06-13T15:05:49Z</time>
      </trkpt>
      <trkpt lat="47.737130000" lon="0.531020000">
        <ele>50.000000</ele>
        <time>2023-06-13T15:05:51Z</time>
      </trkpt>
      <trkpt lat="47.737050000" lon="0.530750000">
        <ele>52.000000</ele>
        <time>2023-06-13T15:06:03Z</time>
      </trkpt>
      <trkpt lat="47.737050000" lon="0.530700000">
        <ele>52.000000</ele>
        <time>2023-06-13T15:06:06Z</time>
      </trkpt>
      <trkpt lat="47.737010000" lon="0.530520000">
        <ele>52.000000</ele>
        <time>2023-06-13T15:06:16Z</time>
      </trkpt>
      <trkpt lat="47.736990000" lon="0.530470000">
        <ele>53.000000</ele>
        <time>2023-06-13T15:06:19Z</time>
      </trkpt>
      <trkpt lat="47.736990000" lon="0.530420000">
        <ele>52.000000</ele>
        <time>2023-06-13T15:06:21Z</time>
      </trkpt>
      <trkpt lat="47.736970000" lon="0.530330000">
        <ele>53.000000</ele>
        <time>2023-06-13T15:06:26Z</time>
      </trkpt>
      <trkpt lat="47.736970000" lon="0.530280000">
        <ele>53.000000</ele>
        <time>2023-06-13T15:06:30Z</time>
      </trkpt>
      <trkpt lat="47.736950000" lon="0.530190000">
        <ele>54.000000</ele>
        <time>2023-06-13T15:06:34Z</time>
      </trkpt>
      <trkpt lat="47.736940000" lon="0.530050000">
        <ele>53.000000</ele>
        <time>2023-06-13T15:06:41Z</time>
      </trkpt>
      <trkpt lat="47.736920000" lon="0.529950000">
        <ele>53.000000</ele>
        <time>2023-06-13T15:06:46Z</time>
      </trkpt>
      <trkpt lat="47.736920000" lon="0.529900000">
        <ele>53.000000</ele>
        <time>2023-06-13T15:06:49Z</time>
      </trkpt>
      <trkpt lat="47.736880000" lon="0.529730000">
        <ele>53.000000</ele>
        <time>2023-06-13T15:06:58Z</time>
      </trkpt>
      <trkpt lat="47.736860000" lon="0.529680000">
        <ele>53.000000</ele>
        <time>2023-06-13T15:07:01Z</time>
      </trkpt>
      <trkpt lat="47.736840000" lon="0.529590000">
        <ele>53.000000</ele>
        <time>2023-06-13T15:07:05Z</time>
      </trkpt>
      <trkpt lat="47.736790000" lon="0.529430000">
        <ele>54.000000</ele>
        <time>2023-06-13T15:07:12Z</time>
      </trkpt>
      <trkpt lat="47.736750000" lon="0.529230000">
        <ele>57.000000</ele>
        <time>2023-06-13T15:07:21Z</time>
      </trkpt>
      <trkpt lat="47.736750000" lon="0.529180000">
        <ele>58.000000</ele>
        <time>2023-06-13T15:07:23Z</time>
      </trkpt>
      <trkpt lat="47.736720000" lon="0.529100000">
        <ele>58.000000</ele>
        <time>2023-06-13T15:07:28Z</time>
      </trkpt>
      <trkpt lat="47.736700000" lon="0.529000000">
        <ele>56.000000</ele>
        <time>2023-06-13T15:07:33Z</time>
      </trkpt>
      <trkpt lat="47.736650000" lon="0.528850000">
        <ele>53.000000</ele>
        <time>2023-06-13T15:07:42Z</time>
      </trkpt>
      <trkpt lat="47.736640000" lon="0.528720000">
        <ele>52.000000</ele>
        <time>2023-06-13T15:07:49Z</time>
      </trkpt>
      <trkpt lat="47.736620000" lon="0.528670000">
        <ele>52.000000</ele>
        <time>2023-06-13T15:07:52Z</time>
      </trkpt>
      <trkpt lat="47.736560000" lon="0.528410000">
        <ele>51.000000</ele>
        <time>2023-06-13T15:08:06Z</time>
      </trkpt>
      <trkpt lat="47.736560000" lon="0.528350000">
        <ele>51.000000</ele>
        <time>2023-06-13T15:08:09Z</time>
      </trkpt>
      <trkpt lat="47.736530000" lon="0.528220000">
        <ele>52.000000</ele>
        <time>2023-06-13T15:08:15Z</time>
      </trkpt>
      <trkpt lat="47.736510000" lon="0.528170000">
        <ele>52.000000</ele>
        <time>2023-06-13T15:08:17Z</time>
      </trkpt>
      <trkpt lat="47.736430000" lon="0.527790000">
        <ele>55.000000</ele>
        <time>2023-06-13T15:08:36Z</time>
      </trkpt>
      <trkpt lat="47.736430000" lon="0.527740000">
        <ele>55.000000</ele>
        <time>2023-06-13T15:08:39Z</time>
      </trkpt>
      <trkpt lat="47.736380000" lon="0.527510000">
        <ele>51.000000</ele>
        <time>2023-06-13T15:08:52Z</time>
      </trkpt>
      <trkpt lat="47.736360000" lon="0.527460000">
        <ele>51.000000</ele>
        <time>2023-06-13T15:08:54Z</time>
      </trkpt>
      <trkpt lat="47.736360000" lon="0.527420000">
        <ele>51.000000</ele>
        <time>2023-06-13T15:08:56Z</time>
      </trkpt>
      <trkpt lat="47.736330000" lon="0.527340000">
        <ele>52.000000</ele>
        <time>2023-06-13T15:09:01Z</time>
      </trkpt>
      <trkpt lat="47.736330000" lon="0.527290000">
        <ele>52.000000</ele>
        <time>2023-06-13T15:09:03Z</time>
      </trkpt>
      <trkpt lat="47.736290000" lon="0.527110000">
        <ele>52.000000</ele>
        <time>2023-06-13T15:09:12Z</time>
      </trkpt>
      <trkpt lat="47.736260000" lon="0.527030000">
        <ele>51.000000</ele>
        <time>2023-06-13T15:09:16Z</time>
      </trkpt>
      <trkpt lat="47.736260000" lon="0.526990000">
        <ele>51.000000</ele>
        <time>2023-06-13T15:09:18Z</time>
      </trkpt>
      <trkpt lat="47.736240000" lon="0.526900000">
        <ele>51.000000</ele>
        <time>2023-06-13T15:09:23Z</time>
      </trkpt>
      <trkpt lat="47.736240000" lon="0.526850000">
        <ele>51.000000</ele>
        <time>2023-06-13T15:09:26Z</time>
      </trkpt>
      <trkpt lat="47.736210000" lon="0.526700000">
        <ele>51.000000</ele>
        <time>2023-06-13T15:09:33Z</time>
      </trkpt>
      <trkpt lat="47.736210000" lon="0.526650000">
        <ele>52.000000</ele>
        <time>2023-06-13T15:09:35Z</time>
      </trkpt>
      <trkpt lat="47.736160000" lon="0.526450000">
        <ele>53.000000</ele>
        <time>2023-06-13T15:09:45Z</time>
      </trkpt>
      <trkpt lat="47.736140000" lon="0.526400000">
        <ele>53.000000</ele>
        <time>2023-06-13T15:09:48Z</time>
      </trkpt>
      <trkpt lat="47.736100000" lon="0.526210000">
        <ele>51.000000</ele>
        <time>2023-06-13T15:09:58Z</time>
      </trkpt>
      <trkpt lat="47.736100000" lon="0.526170000">
        <ele>51.000000</ele>
        <time>2023-06-13T15:10:01Z</time>
      </trkpt>
      <trkpt lat="47.736070000" lon="0.526020000">
        <ele>52.000000</ele>
        <time>2023-06-13T15:10:08Z</time>
      </trkpt>
      <trkpt lat="47.736070000" lon="0.525980000">
        <ele>53.000000</ele>
        <time>2023-06-13T15:10:10Z</time>
      </trkpt>
      <trkpt lat="47.736010000" lon="0.525730000">
        <ele>54.000000</ele>
        <time>2023-06-13T15:10:22Z</time>
      </trkpt>
      <trkpt lat="47.735990000" lon="0.525690000">
        <ele>54.000000</ele>
        <time>2023-06-13T15:10:25Z</time>
      </trkpt>
      <trkpt lat="47.735980000" lon="0.525640000">
        <ele>54.000000</ele>
        <time>2023-06-13T15:10:28Z</time>
      </trkpt>
      <trkpt lat="47.735980000" lon="0.525590000">
        <ele>54.000000</ele>
        <time>2023-06-13T15:10:30Z</time>
      </trkpt>
      <trkpt lat="47.735910000" lon="0.525290000">
        <ele>53.000000</ele>
        <time>2023-06-13T15:10:46Z</time>
      </trkpt>
      <trkpt lat="47.735910000" lon="0.525250000">
        <ele>53.000000</ele>
        <time>2023-06-13T15:10:48Z</time>
      </trkpt>
      <trkpt lat="47.735890000" lon="0.525160000">
        <ele>54.000000</ele>
        <time>2023-06-13T15:10:53Z</time>
      </trkpt>
      <trkpt lat="47.735870000" lon="0.525110000">
        <ele>55.000000</ele>
        <time>2023-06-13T15:10:55Z</time>
      </trkpt>
      <trkpt lat="47.735860000" lon="0.524960000">
        <ele>56.000000</ele>
        <time>2023-06-13T15:11:03Z</time>
      </trkpt>
      <trkpt lat="47.735840000" lon="0.524870000">
        <ele>55.000000</ele>
        <time>2023-06-13T15:11:07Z</time>
      </trkpt>
      <trkpt lat="47.735820000" lon="0.524830000">
        <ele>56.000000</ele>
        <time>2023-06-13T15:11:09Z</time>
      </trkpt>
      <trkpt lat="47.735780000" lon="0.524640000">
        <ele>54.000000</ele>
        <time>2023-06-13T15:11:19Z</time>
      </trkpt>
      <trkpt lat="47.735760000" lon="0.524590000">
        <ele>53.000000</ele>
        <time>2023-06-13T15:11:22Z</time>
      </trkpt>
      <trkpt lat="47.735740000" lon="0.524500000">
        <ele>52.000000</ele>
        <time>2023-06-13T15:11:26Z</time>
      </trkpt>
      <trkpt lat="47.735740000" lon="0.524460000">
        <ele>52.000000</ele>
        <time>2023-06-13T15:11:28Z</time>
      </trkpt>
      <trkpt lat="47.735700000" lon="0.524280000">
        <ele>52.000000</ele>
        <time>2023-06-13T15:11:38Z</time>
      </trkpt>
      <trkpt lat="47.735680000" lon="0.524240000">
        <ele>52.000000</ele>
        <time>2023-06-13T15:11:40Z</time>
      </trkpt>
      <trkpt lat="47.735640000" lon="0.524050000">
        <ele>50.000000</ele>
        <time>2023-06-13T15:11:50Z</time>
      </trkpt>
      <trkpt lat="47.735640000" lon="0.524000000">
        <ele>50.000000</ele>
        <time>2023-06-13T15:11:52Z</time>
      </trkpt>
      <trkpt lat="47.735610000" lon="0.523930000">
        <ele>50.000000</ele>
        <time>2023-06-13T15:11:56Z</time>
      </trkpt>
      <trkpt lat="47.735590000" lon="0.523830000">
        <ele>50.000000</ele>
        <time>2023-06-13T15:12:02Z</time>
      </trkpt>
      <trkpt lat="47.735590000" lon="0.523780000">
        <ele>50.000000</ele>
        <time>2023-06-13T15:12:04Z</time>
      </trkpt>
      <trkpt lat="47.735530000" lon="0.523520000">
        <ele>52.000000</ele>
        <time>2023-06-13T15:12:18Z</time>
      </trkpt>
      <trkpt lat="47.735530000" lon="0.523470000">
        <ele>52.000000</ele>
        <time>2023-06-13T15:12:20Z</time>
      </trkpt>
      <trkpt lat="47.735510000" lon="0.523380000">
        <ele>52.000000</ele>
        <time>2023-06-13T15:12:24Z</time>
      </trkpt>
      <trkpt lat="47.735510000" lon="0.523290000">
        <ele>52.000000</ele>
        <time>2023-06-13T15:12:28Z</time>
      </trkpt>
      <trkpt lat="47.735480000" lon="0.523210000">
        <ele>54.000000</ele>
        <time>2023-06-13T15:12:33Z</time>
      </trkpt>
      <trkpt lat="47.735480000" lon="0.523160000">
        <ele>55.000000</ele>
        <time>2023-06-13T15:12:35Z</time>
      </trkpt>
      <trkpt lat="47.735410000" lon="0.522860000">
        <ele>54.000000</ele>
        <time>2023-06-13T15:12:52Z</time>
      </trkpt>
      <trkpt lat="47.735390000" lon="0.522810000">
        <ele>54.000000</ele>
        <time>2023-06-13T15:12:54Z</time>
      </trkpt>
      <trkpt lat="47.735270000" lon="0.522280000">
        <ele>51.000000</ele>
        <time>2023-06-13T15:13:21Z</time>
      </trkpt>
      <trkpt lat="47.735220000" lon="0.522160000">
        <ele>52.000000</ele>
        <time>2023-06-13T15:13:27Z</time>
      </trkpt>
      <trkpt lat="47.735220000" lon="0.522110000">
        <ele>52.000000</ele>
        <time>2023-06-13T15:13:30Z</time>
      </trkpt>
      <trkpt lat="47.735190000" lon="0.522030000">
        <ele>52.000000</ele>
        <time>2023-06-13T15:13:34Z</time>
      </trkpt>
      <trkpt lat="47.735180000" lon="0.521980000">
        <ele>53.000000</ele>
        <time>2023-06-13T15:13:37Z</time>
      </trkpt>
      <trkpt lat="47.735180000" lon="0.521930000">
        <ele>54.000000</ele>
        <time>2023-06-13T15:13:39Z</time>
      </trkpt>
      <trkpt lat="47.735160000" lon="0.521830000">
        <ele>57.000000</ele>
        <time>2023-06-13T15:13:43Z</time>
      </trkpt>
      <trkpt lat="47.735160000" lon="0.521780000">
        <ele>58.000000</ele>
        <time>2023-06-13T15:13:45Z</time>
      </trkpt>
      <trkpt lat="47.735130000" lon="0.521650000">
        <ele>60.000000</ele>
        <time>2023-06-13T15:13:51Z</time>
      </trkpt>
      <trkpt lat="47.735110000" lon="0.521610000">
        <ele>61.000000</ele>
        <time>2023-06-13T15:13:53Z</time>
      </trkpt>
      <trkpt lat="47.735100000" lon="0.521560000">
        <ele>61.000000</ele>
        <time>2023-06-13T15:13:56Z</time>
      </trkpt>
      <trkpt lat="47.735100000" lon="0.521510000">
        <ele>61.000000</ele>
        <time>2023-06-13T15:13:58Z</time>
      </trkpt>
      <trkpt lat="47.735060000" lon="0.521430000">
        <ele>60.000000</ele>
        <time>2023-06-13T15:14:03Z</time>
      </trkpt>
      <trkpt lat="47.735050000" lon="0.521390000">
        <ele>58.000000</ele>
        <time>2023-06-13T15:14:05Z</time>
      </trkpt>
      <trkpt lat="47.735050000" lon="0.521340000">
        <ele>57.000000</ele>
        <time>2023-06-13T15:14:07Z</time>
      </trkpt>
      <trkpt lat="47.735020000" lon="0.521250000">
        <ele>55.000000</ele>
        <time>2023-06-13T15:14:13Z</time>
      </trkpt>
      <trkpt lat="47.735010000" lon="0.521150000">
        <ele>52.000000</ele>
        <time>2023-06-13T15:14:18Z</time>
      </trkpt>
      <trkpt lat="47.734970000" lon="0.520960000">
        <ele>51.000000</ele>
        <time>2023-06-13T15:14:28Z</time>
      </trkpt>
      <trkpt lat="47.734950000" lon="0.520910000">
        <ele>50.000000</ele>
        <time>2023-06-13T15:14:31Z</time>
      </trkpt>
      <trkpt lat="47.734930000" lon="0.520810000">
        <ele>50.000000</ele>
        <time>2023-06-13T15:14:36Z</time>
      </trkpt>
      <trkpt lat="47.734930000" lon="0.520770000">
        <ele>50.000000</ele>
        <time>2023-06-13T15:14:38Z</time>
      </trkpt>
      <trkpt lat="47.734910000" lon="0.520670000">
        <ele>50.000000</ele>
        <time>2023-06-13T15:14:43Z</time>
      </trkpt>
      <trkpt lat="47.734890000" lon="0.520630000">
        <ele>50.000000</ele>
        <time>2023-06-13T15:14:45Z</time>
      </trkpt>
      <trkpt lat="47.734770000" lon="0.520100000">
        <ele>47.000000</ele>
        <time>2023-06-13T15:15:12Z</time>
      </trkpt>
      <trkpt lat="47.734750000" lon="0.520060000">
        <ele>47.000000</ele>
        <time>2023-06-13T15:15:15Z</time>
      </trkpt>
      <trkpt lat="47.734730000" lon="0.519980000">
        <ele>48.000000</ele>
        <time>2023-06-13T15:15:20Z</time>
      </trkpt>
      <trkpt lat="47.734730000" lon="0.519930000">
        <ele>48.000000</ele>
        <time>2023-06-13T15:15:23Z</time>
      </trkpt>
      <trkpt lat="47.734680000" lon="0.519690000">
        <ele>48.000000</ele>
        <time>2023-06-13T15:15:34Z</time>
      </trkpt>
      <trkpt lat="47.734680000" lon="0.519650000">
        <ele>49.000000</ele>
        <time>2023-06-13T15:15:37Z</time>
      </trkpt>
      <trkpt lat="47.734540000" lon="0.519020000">
        <ele>51.000000</ele>
        <time>2023-06-13T15:16:08Z</time>
      </trkpt>
      <trkpt lat="47.734520000" lon="0.518980000">
        <ele>51.000000</ele>
        <time>2023-06-13T15:16:10Z</time>
      </trkpt>
      <trkpt lat="47.734490000" lon="0.518830000">
        <ele>50.000000</ele>
        <time>2023-06-13T15:16:18Z</time>
      </trkpt>
      <trkpt lat="47.734490000" lon="0.518780000">
        <ele>50.000000</ele>
        <time>2023-06-13T15:16:21Z</time>
      </trkpt>
      <trkpt lat="47.734460000" lon="0.518630000">
        <ele>49.000000</ele>
        <time>2023-06-13T15:16:29Z</time>
      </trkpt>
      <trkpt lat="47.734460000" lon="0.518580000">
        <ele>49.000000</ele>
        <time>2023-06-13T15:16:31Z</time>
      </trkpt>
      <trkpt lat="47.734410000" lon="0.518450000">
        <ele>50.000000</ele>
        <time>2023-06-13T15:16:38Z</time>
      </trkpt>
      <trkpt lat="47.734390000" lon="0.518360000">
        <ele>50.000000</ele>
        <time>2023-06-13T15:16:43Z</time>
      </trkpt>
      <trkpt lat="47.734390000" lon="0.518320000">
        <ele>51.000000</ele>
        <time>2023-06-13T15:16:45Z</time>
      </trkpt>
      <trkpt lat="47.734350000" lon="0.518150000">
        <ele>50.000000</ele>
        <time>2023-06-13T15:16:54Z</time>
      </trkpt>
      <trkpt lat="47.734350000" lon="0.518110000">
        <ele>50.000000</ele>
        <time>2023-06-13T15:16:56Z</time>
      </trkpt>
      <trkpt lat="47.734330000" lon="0.518020000">
        <ele>50.000000</ele>
        <time>2023-06-13T15:17:01Z</time>
      </trkpt>
      <trkpt lat="47.734330000" lon="0.517970000">
        <ele>50.000000</ele>
        <time>2023-06-13T15:17:03Z</time>
      </trkpt>
      <trkpt lat="47.734310000" lon="0.517880000">
        <ele>52.000000</ele>
        <time>2023-06-13T15:17:09Z</time>
      </trkpt>
      <trkpt lat="47.734310000" lon="0.517820000">
        <ele>52.000000</ele>
        <time>2023-06-13T15:17:12Z</time>
      </trkpt>
      <trkpt lat="47.734280000" lon="0.517690000">
        <ele>51.000000</ele>
        <time>2023-06-13T15:17:18Z</time>
      </trkpt>
      <trkpt lat="47.734240000" lon="0.517600000">
        <ele>50.000000</ele>
        <time>2023-06-13T15:17:24Z</time>
      </trkpt>
      <trkpt lat="47.734200000" lon="0.517420000">
        <ele>49.000000</ele>
        <time>2023-06-13T15:17:33Z</time>
      </trkpt>
      <trkpt lat="47.734180000" lon="0.517380000">
        <ele>50.000000</ele>
        <time>2023-06-13T15:17:35Z</time>
      </trkpt>
      <trkpt lat="47.734180000" lon="0.517330000">
        <ele>51.000000</ele>
        <time>2023-06-13T15:17:37Z</time>
      </trkpt>
      <trkpt lat="47.734150000" lon="0.517190000">
        <ele>53.000000</ele>
        <time>2023-06-13T15:17:44Z</time>
      </trkpt>
      <trkpt lat="47.734130000" lon="0.517150000">
        <ele>54.000000</ele>
        <time>2023-06-13T15:17:46Z</time>
      </trkpt>
      <trkpt lat="47.734130000" lon="0.517110000">
        <ele>54.000000</ele>
        <time>2023-06-13T15:17:48Z</time>
      </trkpt>
      <trkpt lat="47.734110000" lon="0.517060000">
        <ele>53.000000</ele>
        <time>2023-06-13T15:17:50Z</time>
      </trkpt>
      <trkpt lat="47.734040000" lon="0.516720000">
        <ele>52.000000</ele>
        <time>2023-06-13T15:18:09Z</time>
      </trkpt>
      <trkpt lat="47.734040000" lon="0.516670000">
        <ele>52.000000</ele>
        <time>2023-06-13T15:18:12Z</time>
      </trkpt>
      <trkpt lat="47.734030000" lon="0.516620000">
        <ele>52.000000</ele>
        <time>2023-06-13T15:18:14Z</time>
      </trkpt>
      <trkpt lat="47.734030000" lon="0.516570000">
        <ele>52.000000</ele>
        <time>2023-06-13T15:18:17Z</time>
      </trkpt>
      <trkpt lat="47.733880000" lon="0.515920000">
        <ele>48.000000</ele>
        <time>2023-06-13T15:18:52Z</time>
      </trkpt>
      <trkpt lat="47.733880000" lon="0.515870000">
        <ele>48.000000</ele>
        <time>2023-06-13T15:18:54Z</time>
      </trkpt>
      <trkpt lat="47.733820000" lon="0.515580000">
        <ele>49.000000</ele>
        <time>2023-06-13T15:19:08Z</time>
      </trkpt>
      <trkpt lat="47.733800000" lon="0.515530000">
        <ele>49.000000</ele>
        <time>2023-06-13T15:19:11Z</time>
      </trkpt>
      <trkpt lat="47.733780000" lon="0.515430000">
        <ele>49.000000</ele>
        <time>2023-06-13T15:19:17Z</time>
      </trkpt>
      <trkpt lat="47.733780000" lon="0.515380000">
        <ele>49.000000</ele>
        <time>2023-06-13T15:19:19Z</time>
      </trkpt>
      <trkpt lat="47.733760000" lon="0.515330000">
        <ele>49.000000</ele>
        <time>2023-06-13T15:19:22Z</time>
      </trkpt>
      <trkpt lat="47.733600000" lon="0.514580000">
        <ele>54.000000</ele>
        <time>2023-06-13T15:20:02Z</time>
      </trkpt>
      <trkpt lat="47.733600000" lon="0.514530000">
        <ele>54.000000</ele>
        <time>2023-06-13T15:20:05Z</time>
      </trkpt>
      <trkpt lat="47.733580000" lon="0.514430000">
        <ele>56.000000</ele>
        <time>2023-06-13T15:20:10Z</time>
      </trkpt>
      <trkpt lat="47.733560000" lon="0.514390000">
        <ele>56.000000</ele>
        <time>2023-06-13T15:20:12Z</time>
      </trkpt>
      <trkpt lat="47.733530000" lon="0.514270000">
        <ele>55.000000</ele>
        <time>2023-06-13T15:20:18Z</time>
      </trkpt>
      <trkpt lat="47.733490000" lon="0.514190000">
        <ele>56.000000</ele>
        <time>2023-06-13T15:20:23Z</time>
      </trkpt>
      <trkpt lat="47.733440000" lon="0.514180000">
        <ele>58.000000</ele>
        <time>2023-06-13T15:20:31Z</time>
      </trkpt>
      <trkpt lat="47.733410000" lon="0.514210000">
        <ele>59.000000</ele>
        <time>2023-06-13T15:20:36Z</time>
      </trkpt>
      <trkpt lat="47.733440000" lon="0.514220000">
        <ele>58.000000</ele>
        <time>2023-06-13T15:22:12Z</time>
      </trkpt>
      <trkpt lat="47.733540000" lon="0.514190000">
        <ele>60.000000</ele>
        <time>2023-06-13T15:22:19Z</time>
      </trkpt>
      <trkpt lat="47.733680000" lon="0.514090000">
        <ele>62.000000</ele>
        <time>2023-06-13T15:22:33Z</time>
      </trkpt>
      <trkpt lat="47.733720000" lon="0.514080000">
        <ele>61.000000</ele>
        <time>2023-06-13T15:22:36Z</time>
      </trkpt>
      <trkpt lat="47.733780000" lon="0.514040000">
        <ele>58.000000</ele>
        <time>2023-06-13T15:22:42Z</time>
      </trkpt>
      <trkpt lat="47.733850000" lon="0.514010000">
        <ele>56.000000</ele>
        <time>2023-06-13T15:22:48Z</time>
      </trkpt>
      <trkpt lat="47.733890000" lon="0.513930000">
        <ele>56.000000</ele>
        <time>2023-06-13T15:22:54Z</time>
      </trkpt>
      <trkpt lat="47.733910000" lon="0.513830000">
        <ele>57.000000</ele>
        <time>2023-06-13T15:23:01Z</time>
      </trkpt>
      <trkpt lat="47.733910000" lon="0.513740000">
        <ele>59.000000</ele>
        <time>2023-06-13T15:23:05Z</time>
      </trkpt>
      <trkpt lat="47.733880000" lon="0.513590000">
        <ele>60.000000</ele>
        <time>2023-06-13T15:23:12Z</time>
      </trkpt>
      <trkpt lat="47.733860000" lon="0.513540000">
        <ele>61.000000</ele>
        <time>2023-06-13T15:23:15Z</time>
      </trkpt>
      <trkpt lat="47.733840000" lon="0.513430000">
        <ele>62.000000</ele>
        <time>2023-06-13T15:23:21Z</time>
      </trkpt>
      <trkpt lat="47.733790000" lon="0.513280000">
        <ele>65.000000</ele>
        <time>2023-06-13T15:23:31Z</time>
      </trkpt>
      <trkpt lat="47.733770000" lon="0.513180000">
        <ele>65.000000</ele>
        <time>2023-06-13T15:23:36Z</time>
      </trkpt>
      <trkpt lat="47.733780000" lon="0.513130000">
        <ele>65.000000</ele>
        <time>2023-06-13T15:23:39Z</time>
      </trkpt>
      <trkpt lat="47.733780000" lon="0.513020000">
        <ele>66.000000</ele>
        <time>2023-06-13T15:23:45Z</time>
      </trkpt>
      <trkpt lat="47.733740000" lon="0.512860000">
        <ele>64.000000</ele>
        <time>2023-06-13T15:23:54Z</time>
      </trkpt>
      <trkpt lat="47.733720000" lon="0.512820000">
        <ele>63.000000</ele>
        <time>2023-06-13T15:23:56Z</time>
      </trkpt>
      <trkpt lat="47.733700000" lon="0.512740000">
        <ele>63.000000</ele>
        <time>2023-06-13T15:24:00Z</time>
      </trkpt>
      <trkpt lat="47.733660000" lon="0.512670000">
        <ele>63.000000</ele>
        <time>2023-06-13T15:24:04Z</time>
      </trkpt>
      <trkpt lat="47.733610000" lon="0.512620000">
        <ele>62.000000</ele>
        <time>2023-06-13T15:24:08Z</time>
      </trkpt>
      <trkpt lat="47.733600000" lon="0.512580000">
        <ele>61.000000</ele>
        <time>2023-06-13T15:24:10Z</time>
      </trkpt>
      <trkpt lat="47.733550000" lon="0.512510000">
        <ele>60.000000</ele>
        <time>2023-06-13T15:24:15Z</time>
      </trkpt>
      <trkpt lat="47.733430000" lon="0.512430000">
        <ele>59.000000</ele>
        <time>2023-06-13T15:24:25Z</time>
      </trkpt>
      <trkpt lat="47.733370000" lon="0.512330000">
        <ele>59.000000</ele>
        <time>2023-06-13T15:24:31Z</time>
      </trkpt>
      <trkpt lat="47.733370000" lon="0.512240000">
        <ele>59.000000</ele>
        <time>2023-06-13T15:24:36Z</time>
      </trkpt>
      <trkpt lat="47.733380000" lon="0.512190000">
        <ele>59.000000</ele>
        <time>2023-06-13T15:24:39Z</time>
      </trkpt>
      <trkpt lat="47.733450000" lon="0.512110000">
        <ele>58.000000</ele>
        <time>2023-06-13T15:24:45Z</time>
      </trkpt>
      <trkpt lat="47.733480000" lon="0.512090000">
        <ele>58.000000</ele>
        <time>2023-06-13T15:24:47Z</time>
      </trkpt>
      <trkpt lat="47.733500000" lon="0.512060000">
        <ele>58.000000</ele>
        <time>2023-06-13T15:24:49Z</time>
      </trkpt>
      <trkpt lat="47.733690000" lon="0.511910000">
        <ele>60.000000</ele>
        <time>2023-06-13T15:25:05Z</time>
      </trkpt>
      <trkpt lat="47.733750000" lon="0.511840000">
        <ele>60.000000</ele>
        <time>2023-06-13T15:25:11Z</time>
      </trkpt>
      <trkpt lat="47.733810000" lon="0.511790000">
        <ele>59.000000</ele>
        <time>2023-06-13T15:25:16Z</time>
      </trkpt>
      <trkpt lat="47.733910000" lon="0.511730000">
        <ele>59.000000</ele>
        <time>2023-06-13T15:25:25Z</time>
      </trkpt>
      <trkpt lat="47.733980000" lon="0.511710000">
        <ele>59.000000</ele>
        <time>2023-06-13T15:25:29Z</time>
      </trkpt>
      <trkpt lat="47.734050000" lon="0.511720000">
        <ele>58.000000</ele>
        <time>2023-06-13T15:25:35Z</time>
      </trkpt>
      <trkpt lat="47.734130000" lon="0.511780000">
        <ele>58.000000</ele>
        <time>2023-06-13T15:25:41Z</time>
      </trkpt>
      <trkpt lat="47.734210000" lon="0.511790000">
        <ele>58.000000</ele>
        <time>2023-06-13T15:25:47Z</time>
      </trkpt>
      <trkpt lat="47.734300000" lon="0.511770000">
        <ele>56.000000</ele>
        <time>2023-06-13T15:26:11Z</time>
      </trkpt>
      <trkpt lat="47.734360000" lon="0.511730000">
        <ele>57.000000</ele>
        <time>2023-06-13T15:26:15Z</time>
      </trkpt>
      <trkpt lat="47.734430000" lon="0.511710000">
        <ele>58.000000</ele>
        <time>2023-06-13T15:26:19Z</time>
      </trkpt>
      <trkpt lat="47.734630000" lon="0.511620000">
        <ele>59.000000</ele>
        <time>2023-06-13T15:26:33Z</time>
      </trkpt>
      <trkpt lat="47.734830000" lon="0.511510000">
        <ele>59.000000</ele>
        <time>2023-06-13T15:26:48Z</time>
      </trkpt>
      <trkpt lat="47.734940000" lon="0.511400000">
        <ele>56.000000</ele>
        <time>2023-06-13T15:27:00Z</time>
      </trkpt>
      <trkpt lat="47.735060000" lon="0.511320000">
        <ele>56.000000</ele>
        <time>2023-06-13T15:27:09Z</time>
      </trkpt>
      <trkpt lat="47.735140000" lon="0.511230000">
        <ele>56.000000</ele>
        <time>2023-06-13T15:27:17Z</time>
      </trkpt>
      <trkpt lat="47.735160000" lon="0.511190000">
        <ele>56.000000</ele>
        <time>2023-06-13T15:27:20Z</time>
      </trkpt>
      <trkpt lat="47.735240000" lon="0.511100000">
        <ele>57.000000</ele>
        <time>2023-06-13T15:27:28Z</time>
      </trkpt>
      <trkpt lat="47.735260000" lon="0.511060000">
        <ele>56.000000</ele>
        <time>2023-06-13T15:27:31Z</time>
      </trkpt>
      <trkpt lat="47.735290000" lon="0.511030000">
        <ele>56.000000</ele>
        <time>2023-06-13T15:27:33Z</time>
      </trkpt>
      <trkpt lat="47.735420000" lon="0.510840000">
        <ele>57.000000</ele>
        <time>2023-06-13T15:27:46Z</time>
      </trkpt>
      <trkpt lat="47.735480000" lon="0.510780000">
        <ele>57.000000</ele>
        <time>2023-06-13T15:27:52Z</time>
      </trkpt>
      <trkpt lat="47.735500000" lon="0.510730000">
        <ele>57.000000</ele>
        <time>2023-06-13T15:27:55Z</time>
      </trkpt>
      <trkpt lat="47.735560000" lon="0.510660000">
        <ele>56.000000</ele>
        <time>2023-06-13T15:28:00Z</time>
      </trkpt>
      <trkpt lat="47.735580000" lon="0.510620000">
        <ele>56.000000</ele>
        <time>2023-06-13T15:28:02Z</time>
      </trkpt>
      <trkpt lat="47.735610000" lon="0.510590000">
        <ele>56.000000</ele>
        <time>2023-06-13T15:28:05Z</time>
      </trkpt>
      <trkpt lat="47.735630000" lon="0.510550000">
        <ele>57.000000</ele>
        <time>2023-06-13T15:28:08Z</time>
      </trkpt>
      <trkpt lat="47.735660000" lon="0.510530000">
        <ele>57.000000</ele>
        <time>2023-06-13T15:28:10Z</time>
      </trkpt>
      <trkpt lat="47.735760000" lon="0.510400000">
        <ele>57.000000</ele>
        <time>2023-06-13T15:28:20Z</time>
      </trkpt>
      <trkpt lat="47.735800000" lon="0.510330000">
        <ele>56.000000</ele>
        <time>2023-06-13T15:28:25Z</time>
      </trkpt>
      <trkpt lat="47.735830000" lon="0.510300000">
        <ele>56.000000</ele>
        <time>2023-06-13T15:28:27Z</time>
      </trkpt>
      <trkpt lat="47.735850000" lon="0.510260000">
        <ele>56.000000</ele>
        <time>2023-06-13T15:28:30Z</time>
      </trkpt>
      <trkpt lat="47.735880000" lon="0.510230000">
        <ele>55.000000</ele>
        <time>2023-06-13T15:28:33Z</time>
      </trkpt>
      <trkpt lat="47.735920000" lon="0.510150000">
        <ele>55.000000</ele>
        <time>2023-06-13T15:28:38Z</time>
      </trkpt>
      <trkpt lat="47.735950000" lon="0.510120000">
        <ele>55.000000</ele>
        <time>2023-06-13T15:28:41Z</time>
      </trkpt>
      <trkpt lat="47.735980000" lon="0.510040000">
        <ele>55.000000</ele>
        <time>2023-06-13T15:28:45Z</time>
      </trkpt>
      <trkpt lat="47.736010000" lon="0.510010000">
        <ele>55.000000</ele>
        <time>2023-06-13T15:28:48Z</time>
      </trkpt>
      <trkpt lat="47.736030000" lon="0.509970000">
        <ele>55.000000</ele>
        <time>2023-06-13T15:28:51Z</time>
      </trkpt>
      <trkpt lat="47.736140000" lon="0.509840000">
        <ele>54.000000</ele>
        <time>2023-06-13T15:29:01Z</time>
      </trkpt>
      <trkpt lat="47.736180000" lon="0.509770000">
        <ele>53.000000</ele>
        <time>2023-06-13T15:29:05Z</time>
      </trkpt>
      <trkpt lat="47.736210000" lon="0.509740000">
        <ele>54.000000</ele>
        <time>2023-06-13T15:29:08Z</time>
      </trkpt>
      <trkpt lat="47.736230000" lon="0.509700000">
        <ele>53.000000</ele>
        <time>2023-06-13T15:29:11Z</time>
      </trkpt>
      <trkpt lat="47.736350000" lon="0.509530000">
        <ele>52.000000</ele>
        <time>2023-06-13T15:29:23Z</time>
      </trkpt>
      <trkpt lat="47.736380000" lon="0.509500000">
        <ele>52.000000</ele>
        <time>2023-06-13T15:29:26Z</time>
      </trkpt>
      <trkpt lat="47.736400000" lon="0.509460000">
        <ele>53.000000</ele>
        <time>2023-06-13T15:29:29Z</time>
      </trkpt>
      <trkpt lat="47.736460000" lon="0.509410000">
        <ele>53.000000</ele>
        <time>2023-06-13T15:29:34Z</time>
      </trkpt>
      <trkpt lat="47.736480000" lon="0.509380000">
        <ele>54.000000</ele>
        <time>2023-06-13T15:29:36Z</time>
      </trkpt>
      <trkpt lat="47.736510000" lon="0.509360000">
        <ele>54.000000</ele>
        <time>2023-06-13T15:29:38Z</time>
      </trkpt>
      <trkpt lat="47.736570000" lon="0.509360000">
        <ele>54.000000</ele>
        <time>2023-06-13T15:29:42Z</time>
      </trkpt>
      <trkpt lat="47.736730000" lon="0.509500000">
        <ele>55.000000</ele>
        <time>2023-06-13T15:29:57Z</time>
      </trkpt>
      <trkpt lat="47.736890000" lon="0.509680000">
        <ele>57.000000</ele>
        <time>2023-06-13T15:30:11Z</time>
      </trkpt>
      <trkpt lat="47.737020000" lon="0.509770000">
        <ele>56.000000</ele>
        <time>2023-06-13T15:30:23Z</time>
      </trkpt>
      <trkpt lat="47.737120000" lon="0.509920000">
        <ele>55.000000</ele>
        <time>2023-06-13T15:30:33Z</time>
      </trkpt>
      <trkpt lat="47.737340000" lon="0.510190000">
        <ele>54.000000</ele>
        <time>2023-06-13T15:30:54Z</time>
      </trkpt>
      <trkpt lat="47.737360000" lon="0.510230000">
        <ele>54.000000</ele>
        <time>2023-06-13T15:30:57Z</time>
      </trkpt>
      <trkpt lat="47.737440000" lon="0.510330000">
        <ele>54.000000</ele>
        <time>2023-06-13T15:31:05Z</time>
      </trkpt>
      <trkpt lat="47.737470000" lon="0.510350000">
        <ele>54.000000</ele>
        <time>2023-06-13T15:31:07Z</time>
      </trkpt>
      <trkpt lat="47.737580000" lon="0.510510000">
        <ele>55.000000</ele>
        <time>2023-06-13T15:31:18Z</time>
      </trkpt>
      <trkpt lat="47.737660000" lon="0.510590000">
        <ele>55.000000</ele>
        <time>2023-06-13T15:31:24Z</time>
      </trkpt>
      <trkpt lat="47.737780000" lon="0.510750000">
        <ele>56.000000</ele>
        <time>2023-06-13T15:31:36Z</time>
      </trkpt>
      <trkpt lat="47.737810000" lon="0.510770000">
        <ele>56.000000</ele>
        <time>2023-06-13T15:31:38Z</time>
      </trkpt>
      <trkpt lat="47.737830000" lon="0.510810000">
        <ele>56.000000</ele>
        <time>2023-06-13T15:31:41Z</time>
      </trkpt>
      <trkpt lat="47.737930000" lon="0.510900000">
        <ele>56.000000</ele>
        <time>2023-06-13T15:31:50Z</time>
      </trkpt>
      <trkpt lat="47.738050000" lon="0.511030000">
        <ele>56.000000</ele>
        <time>2023-06-13T15:32:00Z</time>
      </trkpt>
      <trkpt lat="47.738070000" lon="0.511070000">
        <ele>56.000000</ele>
        <time>2023-06-13T15:32:03Z</time>
      </trkpt>
      <trkpt lat="47.738130000" lon="0.511130000">
        <ele>56.000000</ele>
        <time>2023-06-13T15:32:08Z</time>
      </trkpt>
      <trkpt lat="47.738250000" lon="0.511290000">
        <ele>56.000000</ele>
        <time>2023-06-13T15:32:20Z</time>
      </trkpt>
      <trkpt lat="47.738450000" lon="0.511520000">
        <ele>57.000000</ele>
        <time>2023-06-13T15:32:38Z</time>
      </trkpt>
      <trkpt lat="47.738490000" lon="0.511590000">
        <ele>57.000000</ele>
        <time>2023-06-13T15:32:43Z</time>
      </trkpt>
      <trkpt lat="47.738570000" lon="0.511680000">
        <ele>57.000000</ele>
        <time>2023-06-13T15:32:50Z</time>
      </trkpt>
      <trkpt lat="47.738590000" lon="0.511720000">
        <ele>57.000000</ele>
        <time>2023-06-13T15:32:53Z</time>
      </trkpt>
      <trkpt lat="47.738650000" lon="0.511790000">
        <ele>57.000000</ele>
        <time>2023-06-13T15:32:59Z</time>
      </trkpt>
      <trkpt lat="47.738670000" lon="0.511830000">
        <ele>58.000000</ele>
        <time>2023-06-13T15:33:02Z</time>
      </trkpt>
      <trkpt lat="47.738700000" lon="0.511860000">
        <ele>58.000000</ele>
        <time>2023-06-13T15:33:29Z</time>
      </trkpt>
      <trkpt lat="47.738750000" lon="0.511950000">
        <ele>60.000000</ele>
        <time>2023-06-13T15:33:34Z</time>
      </trkpt>
      <trkpt lat="47.738760000" lon="0.511990000">
        <ele>61.000000</ele>
        <time>2023-06-13T15:33:36Z</time>
      </trkpt>
      <trkpt lat="47.738840000" lon="0.512160000">
        <ele>61.000000</ele>
        <time>2023-06-13T15:33:47Z</time>
      </trkpt>
      <trkpt lat="47.738870000" lon="0.512190000">
        <ele>61.000000</ele>
        <time>2023-06-13T15:33:49Z</time>
      </trkpt>
      <trkpt lat="47.738910000" lon="0.512270000">
        <ele>60.000000</ele>
        <time>2023-06-13T15:33:54Z</time>
      </trkpt>
      <trkpt lat="47.739060000" lon="0.512420000">
        <ele>59.000000</ele>
        <time>2023-06-13T15:34:06Z</time>
      </trkpt>
      <trkpt lat="47.739090000" lon="0.512440000">
        <ele>59.000000</ele>
        <time>2023-06-13T15:34:08Z</time>
      </trkpt>
      <trkpt lat="47.739110000" lon="0.512470000">
        <ele>59.000000</ele>
        <time>2023-06-13T15:34:10Z</time>
      </trkpt>
      <trkpt lat="47.739280000" lon="0.512640000">
        <ele>58.000000</ele>
        <time>2023-06-13T15:34:25Z</time>
      </trkpt>
      <trkpt lat="47.739330000" lon="0.512770000">
        <ele>59.000000</ele>
        <time>2023-06-13T15:34:33Z</time>
      </trkpt>
      <trkpt lat="47.739340000" lon="0.512830000">
        <ele>60.000000</ele>
        <time>2023-06-13T15:34:36Z</time>
      </trkpt>
      <trkpt lat="47.739340000" lon="0.513040000">
        <ele>62.000000</ele>
        <time>2023-06-13T15:34:45Z</time>
      </trkpt>
      <trkpt lat="47.739310000" lon="0.513180000">
        <ele>63.000000</ele>
        <time>2023-06-13T15:34:51Z</time>
      </trkpt>
      <trkpt lat="47.739310000" lon="0.513220000">
        <ele>63.000000</ele>
        <time>2023-06-13T15:34:53Z</time>
      </trkpt>
      <trkpt lat="47.739260000" lon="0.513450000">
        <ele>64.000000</ele>
        <time>2023-06-13T15:35:04Z</time>
      </trkpt>
      <trkpt lat="47.739270000" lon="0.513500000">
        <ele>64.000000</ele>
        <time>2023-06-13T15:35:07Z</time>
      </trkpt>
      <trkpt lat="47.739270000" lon="0.513550000">
        <ele>64.000000</ele>
        <time>2023-06-13T15:35:09Z</time>
      </trkpt>
      <trkpt lat="47.739320000" lon="0.513770000">
        <ele>63.000000</ele>
        <time>2023-06-13T15:35:22Z</time>
      </trkpt>
      <trkpt lat="47.739370000" lon="0.513920000">
        <ele>60.000000</ele>
        <time>2023-06-13T15:35:31Z</time>
      </trkpt>
      <trkpt lat="47.739370000" lon="0.513970000">
        <ele>60.000000</ele>
        <time>2023-06-13T15:35:34Z</time>
      </trkpt>
      <trkpt lat="47.739390000" lon="0.514060000">
        <ele>59.000000</ele>
        <time>2023-06-13T15:35:38Z</time>
      </trkpt>
      <trkpt lat="47.739430000" lon="0.514130000">
        <ele>58.000000</ele>
        <time>2023-06-13T15:35:44Z</time>
      </trkpt>
      <trkpt lat="47.739460000" lon="0.514140000">
        <ele>58.000000</ele>
        <time>2023-06-13T15:35:47Z</time>
      </trkpt>
      <trkpt lat="47.739490000" lon="0.514130000">
        <ele>58.000000</ele>
        <time>2023-06-13T15:35:51Z</time>
      </trkpt>
      <trkpt lat="47.739540000" lon="0.513910000">
        <ele>58.000000</ele>
        <time>2023-06-13T15:36:05Z</time>
      </trkpt>
      <trkpt lat="47.739540000" lon="0.513870000">
        <ele>58.000000</ele>
        <time>2023-06-13T15:36:07Z</time>
      </trkpt>
      <trkpt lat="47.739580000" lon="0.513790000">
        <ele>58.000000</ele>
        <time>2023-06-13T15:36:13Z</time>
      </trkpt>
      <trkpt lat="47.739610000" lon="0.513780000">
        <ele>57.000000</ele>
        <time>2023-06-13T15:36:15Z</time>
      </trkpt>
      <trkpt lat="47.739670000" lon="0.513790000">
        <ele>57.000000</ele>
        <time>2023-06-13T15:36:21Z</time>
      </trkpt>
      <trkpt lat="47.739750000" lon="0.513870000">
        <ele>59.000000</ele>
        <time>2023-06-13T15:36:29Z</time>
      </trkpt>
      <trkpt lat="47.739810000" lon="0.513900000">
        <ele>61.000000</ele>
        <time>2023-06-13T15:36:34Z</time>
      </trkpt>
      <trkpt lat="47.740020000" lon="0.513900000">
        <ele>66.000000</ele>
        <time>2023-06-13T15:36:47Z</time>
      </trkpt>
      <trkpt lat="47.740210000" lon="0.513870000">
        <ele>69.000000</ele>
        <time>2023-06-13T15:37:01Z</time>
      </trkpt>
      <trkpt lat="47.740310000" lon="0.513840000">
        <ele>70.000000</ele>
        <time>2023-06-13T15:37:08Z</time>
      </trkpt>
      <trkpt lat="47.740400000" lon="0.513780000">
        <ele>69.000000</ele>
        <time>2023-06-13T15:37:16Z</time>
      </trkpt>
      <trkpt lat="47.740390000" lon="0.513770000">
        <ele>68.000000</ele>
        <time>2023-06-13T15:37:23Z</time>
      </trkpt>
      <trkpt lat="47.740430000" lon="0.513730000">
        <ele>64.000000</ele>
        <time>2023-06-13T15:37:30Z</time>
      </trkpt>
      <trkpt lat="47.740460000" lon="0.513720000">
        <ele>63.000000</ele>
        <time>2023-06-13T15:37:33Z</time>
      </trkpt>
      <trkpt lat="47.740480000" lon="0.513700000">
        <ele>63.000000</ele>
        <time>2023-06-13T15:37:36Z</time>
      </trkpt>
      <trkpt lat="47.740550000" lon="0.513670000">
        <ele>63.000000</ele>
        <time>2023-06-13T15:37:42Z</time>
      </trkpt>
      <trkpt lat="47.740630000" lon="0.513600000">
        <ele>64.000000</ele>
        <time>2023-06-13T15:37:52Z</time>
      </trkpt>
      <trkpt lat="47.740700000" lon="0.513580000">
        <ele>64.000000</ele>
        <time>2023-06-13T15:37:58Z</time>
      </trkpt>
      <trkpt lat="47.740780000" lon="0.513520000">
        <ele>65.000000</ele>
        <time>2023-06-13T15:38:06Z</time>
      </trkpt>
      <trkpt lat="47.740850000" lon="0.513490000">
        <ele>65.000000</ele>
        <time>2023-06-13T15:38:12Z</time>
      </trkpt>
      <trkpt lat="47.740910000" lon="0.513500000">
        <ele>66.000000</ele>
        <time>2023-06-13T15:38:18Z</time>
      </trkpt>
      <trkpt lat="47.741070000" lon="0.513390000">
        <ele>70.000000</ele>
        <time>2023-06-13T15:38:35Z</time>
      </trkpt>
      <trkpt lat="47.741090000" lon="0.513360000">
        <ele>70.000000</ele>
        <time>2023-06-13T15:38:38Z</time>
      </trkpt>
      <trkpt lat="47.741270000" lon="0.513270000">
        <ele>71.000000</ele>
        <time>2023-06-13T15:38:55Z</time>
      </trkpt>
      <trkpt lat="47.741290000" lon="0.513240000">
        <ele>72.000000</ele>
        <time>2023-06-13T15:38:58Z</time>
      </trkpt>
      <trkpt lat="47.741320000" lon="0.513230000">
        <ele>72.000000</ele>
        <time>2023-06-13T15:39:01Z</time>
      </trkpt>
      <trkpt lat="47.741380000" lon="0.513250000">
        <ele>73.000000</ele>
        <time>2023-06-13T15:39:07Z</time>
      </trkpt>
      <trkpt lat="47.741500000" lon="0.513360000">
        <ele>71.000000</ele>
        <time>2023-06-13T15:39:17Z</time>
      </trkpt>
      <trkpt lat="47.741570000" lon="0.513510000">
        <ele>71.000000</ele>
        <time>2023-06-13T15:39:26Z</time>
      </trkpt>
      <trkpt lat="47.741620000" lon="0.513580000">
        <ele>70.000000</ele>
        <time>2023-06-13T15:39:31Z</time>
      </trkpt>
      <trkpt lat="47.741630000" lon="0.513620000">
        <ele>70.000000</ele>
        <time>2023-06-13T15:39:33Z</time>
      </trkpt>
      <trkpt lat="47.741720000" lon="0.513760000">
        <ele>72.000000</ele>
        <time>2023-06-13T15:39:41Z</time>
      </trkpt>
      <trkpt lat="47.741730000" lon="0.513800000">
        <ele>73.000000</ele>
        <time>2023-06-13T15:39:43Z</time>
      </trkpt>
      <trkpt lat="47.741730000" lon="0.513910000">
        <ele>71.000000</ele>
        <time>2023-06-13T15:39:49Z</time>
      </trkpt>
      <trkpt lat="47.741770000" lon="0.514100000">
        <ele>69.000000</ele>
        <time>2023-06-13T15:40:01Z</time>
      </trkpt>
      <trkpt lat="47.741770000" lon="0.514150000">
        <ele>69.000000</ele>
        <time>2023-06-13T15:40:04Z</time>
      </trkpt>
      <trkpt lat="47.741750000" lon="0.514230000">
        <ele>69.000000</ele>
        <time>2023-06-13T15:40:09Z</time>
      </trkpt>
      <trkpt lat="47.741730000" lon="0.514270000">
        <ele>70.000000</ele>
        <time>2023-06-13T15:40:12Z</time>
      </trkpt>
      <trkpt lat="47.741640000" lon="0.514320000">
        <ele>71.000000</ele>
        <time>2023-06-13T15:40:21Z</time>
      </trkpt>
      <trkpt lat="47.741570000" lon="0.514310000">
        <ele>72.000000</ele>
        <time>2023-06-13T15:40:27Z</time>
      </trkpt>
      <trkpt lat="47.741540000" lon="0.514330000">
        <ele>74.000000</ele>
        <time>2023-06-13T15:40:29Z</time>
      </trkpt>
      <trkpt lat="47.741470000" lon="0.514340000">
        <ele>78.000000</ele>
        <time>2023-06-13T15:40:34Z</time>
      </trkpt>
      <trkpt lat="47.741430000" lon="0.514330000">
        <ele>80.000000</ele>
        <time>2023-06-13T15:40:37Z</time>
      </trkpt>
      <trkpt lat="47.741400000" lon="0.514360000">
        <ele>80.000000</ele>
        <time>2023-06-13T15:40:40Z</time>
      </trkpt>
      <trkpt lat="47.741370000" lon="0.514470000">
        <ele>76.000000</ele>
        <time>2023-06-13T15:40:51Z</time>
      </trkpt>
      <trkpt lat="47.741350000" lon="0.514500000">
        <ele>75.000000</ele>
        <time>2023-06-13T15:40:56Z</time>
      </trkpt>
      <trkpt lat="47.741260000" lon="0.514560000">
        <ele>70.000000</ele>
        <time>2023-06-13T15:41:08Z</time>
      </trkpt>
      <trkpt lat="47.741240000" lon="0.514590000">
        <ele>68.000000</ele>
        <time>2023-06-13T15:41:11Z</time>
      </trkpt>
      <trkpt lat="47.741210000" lon="0.514600000">
        <ele>66.000000</ele>
        <time>2023-06-13T15:41:13Z</time>
      </trkpt>
      <trkpt lat="47.741100000" lon="0.514700000">
        <ele>63.000000</ele>
        <time>2023-06-13T15:41:24Z</time>
      </trkpt>
      <trkpt lat="47.741070000" lon="0.514740000">
        <ele>63.000000</ele>
        <time>2023-06-13T15:41:27Z</time>
      </trkpt>
      <trkpt lat="47.741060000" lon="0.514780000">
        <ele>64.000000</ele>
        <time>2023-06-13T15:41:34Z</time>
      </trkpt>
      <trkpt lat="47.741070000" lon="0.514810000">
        <ele>66.000000</ele>
        <time>2023-06-13T15:41:39Z</time>
      </trkpt>
    </trkseg>
  </trk>
</gpx>
